<?xml version="1.0" encoding="UTF-8" standalone="no" ?>
<gpx xmlns="http://www.topografix.com/GPX/1/1" xmlns:xsi="http://www.w3.org/2001/XMLSchema-instance" xsi:schemaLocation="http://www.topografix.com/GPX/1/1 http://www.topografix.com/GPX/1/1/gpx.xsd" version="1.1" creator="VisuGPX - https://www.visugpx.com">
  <metadata>
    <name>Tournefeuille Gravel bike</name>
  </metadata>
  <trk>
    <name><![CDATA[Tournefeuille Gravel bike_1]]></name>
    <trkseg>
      <trkpt lat="43.58712" lon="1.32224">
        <ele>188.6</ele>
        <time>2022-06-08T04:42:45Z</time>
      </trkpt>
      <trkpt lat="43.58723" lon="1.32225">
        <ele>188.6</ele>
        <time>2022-06-08T04:42:46Z</time>
      </trkpt>
      <trkpt lat="43.58674" lon="1.32236">
        <ele>189</ele>
        <time>2022-06-08T04:43:32Z</time>
      </trkpt>
      <trkpt lat="43.58674" lon="1.32244">
        <ele>189</ele>
        <time>2022-06-08T04:43:34Z</time>
      </trkpt>
      <trkpt lat="43.58672" lon="1.32267">
        <ele>188.8</ele>
        <time>2022-06-08T04:43:39Z</time>
      </trkpt>
      <trkpt lat="43.58673" lon="1.32281">
        <ele>188.6</ele>
        <time>2022-06-08T04:43:42Z</time>
      </trkpt>
      <trkpt lat="43.58675" lon="1.32282">
        <ele>188.6</ele>
        <time>2022-06-08T04:43:43Z</time>
      </trkpt>
      <trkpt lat="43.58688" lon="1.32276">
        <ele>188.4</ele>
        <time>2022-06-08T04:43:47Z</time>
      </trkpt>
      <trkpt lat="43.58711" lon="1.32254">
        <ele>189</ele>
        <time>2022-06-08T04:43:54Z</time>
      </trkpt>
      <trkpt lat="43.58722" lon="1.32244">
        <ele>189.6</ele>
        <time>2022-06-08T04:43:57Z</time>
      </trkpt>
      <trkpt lat="43.58729" lon="1.32236">
        <ele>190</ele>
        <time>2022-06-08T04:43:59Z</time>
      </trkpt>
      <trkpt lat="43.58752" lon="1.32213">
        <ele>190.6</ele>
        <time>2022-06-08T04:44:05Z</time>
      </trkpt>
      <trkpt lat="43.5876" lon="1.32204">
        <ele>190.8</ele>
        <time>2022-06-08T04:44:07Z</time>
      </trkpt>
      <trkpt lat="43.58787" lon="1.3218">
        <ele>191</ele>
        <time>2022-06-08T04:44:14Z</time>
      </trkpt>
      <trkpt lat="43.58809" lon="1.32156">
        <ele>191</ele>
        <time>2022-06-08T04:44:20Z</time>
      </trkpt>
      <trkpt lat="43.58811" lon="1.32152">
        <ele>191</ele>
        <time>2022-06-08T04:44:21Z</time>
      </trkpt>
      <trkpt lat="43.5881" lon="1.32148">
        <ele>191</ele>
        <time>2022-06-08T04:44:22Z</time>
      </trkpt>
      <trkpt lat="43.58812" lon="1.32137">
        <ele>191</ele>
        <time>2022-06-08T04:44:25Z</time>
      </trkpt>
      <trkpt lat="43.58819" lon="1.32116">
        <ele>191</ele>
        <time>2022-06-08T04:44:29Z</time>
      </trkpt>
      <trkpt lat="43.58823" lon="1.32112">
        <ele>191.2</ele>
        <time>2022-06-08T04:44:30Z</time>
      </trkpt>
      <trkpt lat="43.58852" lon="1.32081">
        <ele>191.4</ele>
        <time>2022-06-08T04:44:37Z</time>
      </trkpt>
      <trkpt lat="43.58882" lon="1.32051">
        <ele>191.8</ele>
        <time>2022-06-08T04:44:44Z</time>
      </trkpt>
      <trkpt lat="43.58887" lon="1.32046">
        <ele>191.8</ele>
        <time>2022-06-08T04:44:45Z</time>
      </trkpt>
      <trkpt lat="43.58927" lon="1.32007">
        <ele>192</ele>
        <time>2022-06-08T04:44:54Z</time>
      </trkpt>
      <trkpt lat="43.58931" lon="1.32004">
        <ele>192</ele>
        <time>2022-06-08T04:44:55Z</time>
      </trkpt>
      <trkpt lat="43.58939" lon="1.32002">
        <ele>192</ele>
        <time>2022-06-08T04:44:57Z</time>
      </trkpt>
      <trkpt lat="43.58952" lon="1.31999">
        <ele>191.8</ele>
        <time>2022-06-08T04:45:00Z</time>
      </trkpt>
      <trkpt lat="43.58956" lon="1.31997">
        <ele>191.6</ele>
        <time>2022-06-08T04:45:01Z</time>
      </trkpt>
      <trkpt lat="43.58975" lon="1.31985">
        <ele>191.6</ele>
        <time>2022-06-08T04:45:05Z</time>
      </trkpt>
      <trkpt lat="43.5898" lon="1.31981">
        <ele>191.6</ele>
        <time>2022-06-08T04:45:06Z</time>
      </trkpt>
      <trkpt lat="43.59023" lon="1.31936">
        <ele>191.6</ele>
        <time>2022-06-08T04:45:16Z</time>
      </trkpt>
      <trkpt lat="43.59032" lon="1.31925">
        <ele>191.6</ele>
        <time>2022-06-08T04:45:18Z</time>
      </trkpt>
      <trkpt lat="43.59042" lon="1.31906">
        <ele>191.8</ele>
        <time>2022-06-08T04:45:21Z</time>
      </trkpt>
      <trkpt lat="43.59046" lon="1.319">
        <ele>191.8</ele>
        <time>2022-06-08T04:45:22Z</time>
      </trkpt>
      <trkpt lat="43.5905" lon="1.31895">
        <ele>191.8</ele>
        <time>2022-06-08T04:45:23Z</time>
      </trkpt>
      <trkpt lat="43.5906" lon="1.31888">
        <ele>191.8</ele>
        <time>2022-06-08T04:45:25Z</time>
      </trkpt>
      <trkpt lat="43.59065" lon="1.31884">
        <ele>191.8</ele>
        <time>2022-06-08T04:45:26Z</time>
      </trkpt>
      <trkpt lat="43.59081" lon="1.31861">
        <ele>192</ele>
        <time>2022-06-08T04:45:30Z</time>
      </trkpt>
      <trkpt lat="43.59091" lon="1.31851">
        <ele>192</ele>
        <time>2022-06-08T04:45:32Z</time>
      </trkpt>
      <trkpt lat="43.5911" lon="1.31833">
        <ele>191.8</ele>
        <time>2022-06-08T04:45:36Z</time>
      </trkpt>
      <trkpt lat="43.59135" lon="1.3181">
        <ele>191.8</ele>
        <time>2022-06-08T04:45:41Z</time>
      </trkpt>
      <trkpt lat="43.59144" lon="1.31802">
        <ele>191.8</ele>
        <time>2022-06-08T04:45:43Z</time>
      </trkpt>
      <trkpt lat="43.59156" lon="1.31795">
        <ele>191.8</ele>
        <time>2022-06-08T04:45:47Z</time>
      </trkpt>
      <trkpt lat="43.59179" lon="1.31782">
        <ele>191.6</ele>
        <time>2022-06-08T04:45:53Z</time>
      </trkpt>
      <trkpt lat="43.59203" lon="1.31771">
        <ele>191.4</ele>
        <time>2022-06-08T04:45:58Z</time>
      </trkpt>
      <trkpt lat="43.59211" lon="1.31769">
        <ele>191.2</ele>
        <time>2022-06-08T04:46:00Z</time>
      </trkpt>
      <trkpt lat="43.59226" lon="1.31761">
        <ele>191</ele>
        <time>2022-06-08T04:46:04Z</time>
      </trkpt>
      <trkpt lat="43.59238" lon="1.31756">
        <ele>190.8</ele>
        <time>2022-06-08T04:46:07Z</time>
      </trkpt>
      <trkpt lat="43.59247" lon="1.31757">
        <ele>190.8</ele>
        <time>2022-06-08T04:46:09Z</time>
      </trkpt>
      <trkpt lat="43.59257" lon="1.31761">
        <ele>190.8</ele>
        <time>2022-06-08T04:46:11Z</time>
      </trkpt>
      <trkpt lat="43.5927" lon="1.31766">
        <ele>190.8</ele>
        <time>2022-06-08T04:46:14Z</time>
      </trkpt>
      <trkpt lat="43.59274" lon="1.31767">
        <ele>190.8</ele>
        <time>2022-06-08T04:46:15Z</time>
      </trkpt>
      <trkpt lat="43.59296" lon="1.31778">
        <ele>190.8</ele>
        <time>2022-06-08T04:46:20Z</time>
      </trkpt>
      <trkpt lat="43.59304" lon="1.31783">
        <ele>190.6</ele>
        <time>2022-06-08T04:46:22Z</time>
      </trkpt>
      <trkpt lat="43.5932" lon="1.31786">
        <ele>190.8</ele>
        <time>2022-06-08T04:46:25Z</time>
      </trkpt>
      <trkpt lat="43.59324" lon="1.31786">
        <ele>190.8</ele>
        <time>2022-06-08T04:46:26Z</time>
      </trkpt>
      <trkpt lat="43.59329" lon="1.31785">
        <ele>190.8</ele>
        <time>2022-06-08T04:46:27Z</time>
      </trkpt>
      <trkpt lat="43.59334" lon="1.3178">
        <ele>190.8</ele>
        <time>2022-06-08T04:46:29Z</time>
      </trkpt>
      <trkpt lat="43.59347" lon="1.31766">
        <ele>190.8</ele>
        <time>2022-06-08T04:46:33Z</time>
      </trkpt>
      <trkpt lat="43.59352" lon="1.31763">
        <ele>190.8</ele>
        <time>2022-06-08T04:46:34Z</time>
      </trkpt>
      <trkpt lat="43.59366" lon="1.31751">
        <ele>190.8</ele>
        <time>2022-06-08T04:46:37Z</time>
      </trkpt>
      <trkpt lat="43.59373" lon="1.31748">
        <ele>190.8</ele>
        <time>2022-06-08T04:46:38Z</time>
      </trkpt>
      <trkpt lat="43.59378" lon="1.31744">
        <ele>191</ele>
        <time>2022-06-08T04:46:39Z</time>
      </trkpt>
      <trkpt lat="43.59387" lon="1.31737">
        <ele>191</ele>
        <time>2022-06-08T04:46:41Z</time>
      </trkpt>
      <trkpt lat="43.59393" lon="1.31734">
        <ele>191</ele>
        <time>2022-06-08T04:46:42Z</time>
      </trkpt>
      <trkpt lat="43.59398" lon="1.31732">
        <ele>191</ele>
        <time>2022-06-08T04:46:43Z</time>
      </trkpt>
      <trkpt lat="43.59409" lon="1.31733">
        <ele>191.2</ele>
        <time>2022-06-08T04:46:45Z</time>
      </trkpt>
      <trkpt lat="43.59414" lon="1.31733">
        <ele>191</ele>
        <time>2022-06-08T04:46:46Z</time>
      </trkpt>
      <trkpt lat="43.59419" lon="1.31732">
        <ele>191</ele>
        <time>2022-06-08T04:46:47Z</time>
      </trkpt>
      <trkpt lat="43.59429" lon="1.31729">
        <ele>191</ele>
        <time>2022-06-08T04:46:49Z</time>
      </trkpt>
      <trkpt lat="43.59434" lon="1.31728">
        <ele>191</ele>
        <time>2022-06-08T04:46:50Z</time>
      </trkpt>
      <trkpt lat="43.59475" lon="1.31732">
        <ele>190.8</ele>
        <time>2022-06-08T04:46:58Z</time>
      </trkpt>
      <trkpt lat="43.5948" lon="1.31732">
        <ele>190.8</ele>
        <time>2022-06-08T04:46:59Z</time>
      </trkpt>
      <trkpt lat="43.59487" lon="1.31738">
        <ele>190.8</ele>
        <time>2022-06-08T04:47:01Z</time>
      </trkpt>
      <trkpt lat="43.59489" lon="1.3175">
        <ele>190.8</ele>
        <time>2022-06-08T04:47:03Z</time>
      </trkpt>
      <trkpt lat="43.59489" lon="1.31757">
        <ele>190.8</ele>
        <time>2022-06-08T04:47:04Z</time>
      </trkpt>
      <trkpt lat="43.59488" lon="1.31793">
        <ele>191</ele>
        <time>2022-06-08T04:47:09Z</time>
      </trkpt>
      <trkpt lat="43.59488" lon="1.31802">
        <ele>191</ele>
        <time>2022-06-08T04:47:10Z</time>
      </trkpt>
      <trkpt lat="43.59487" lon="1.31818">
        <ele>191</ele>
        <time>2022-06-08T04:47:12Z</time>
      </trkpt>
      <trkpt lat="43.59485" lon="1.3187">
        <ele>190.8</ele>
        <time>2022-06-08T04:47:19Z</time>
      </trkpt>
      <trkpt lat="43.59486" lon="1.31878">
        <ele>190.8</ele>
        <time>2022-06-08T04:47:20Z</time>
      </trkpt>
      <trkpt lat="43.59487" lon="1.31893">
        <ele>190.6</ele>
        <time>2022-06-08T04:47:22Z</time>
      </trkpt>
      <trkpt lat="43.59491" lon="1.31908">
        <ele>190.6</ele>
        <time>2022-06-08T04:47:24Z</time>
      </trkpt>
      <trkpt lat="43.59493" lon="1.31915">
        <ele>190.6</ele>
        <time>2022-06-08T04:47:25Z</time>
      </trkpt>
      <trkpt lat="43.59504" lon="1.3194">
        <ele>190.8</ele>
        <time>2022-06-08T04:47:29Z</time>
      </trkpt>
      <trkpt lat="43.59514" lon="1.31958">
        <ele>190.6</ele>
        <time>2022-06-08T04:47:32Z</time>
      </trkpt>
      <trkpt lat="43.59519" lon="1.3197">
        <ele>190.6</ele>
        <time>2022-06-08T04:47:34Z</time>
      </trkpt>
      <trkpt lat="43.59528" lon="1.31978">
        <ele>190.4</ele>
        <time>2022-06-08T04:47:36Z</time>
      </trkpt>
      <trkpt lat="43.59538" lon="1.31984">
        <ele>190.4</ele>
        <time>2022-06-08T04:47:38Z</time>
      </trkpt>
      <trkpt lat="43.59552" lon="1.31992">
        <ele>190.2</ele>
        <time>2022-06-08T04:47:41Z</time>
      </trkpt>
      <trkpt lat="43.59562" lon="1.31993">
        <ele>190.2</ele>
        <time>2022-06-08T04:47:43Z</time>
      </trkpt>
      <trkpt lat="43.59571" lon="1.31992">
        <ele>190.4</ele>
        <time>2022-06-08T04:47:45Z</time>
      </trkpt>
      <trkpt lat="43.5958" lon="1.31994">
        <ele>190.4</ele>
        <time>2022-06-08T04:47:47Z</time>
      </trkpt>
      <trkpt lat="43.59585" lon="1.32003">
        <ele>190.2</ele>
        <time>2022-06-08T04:47:49Z</time>
      </trkpt>
      <trkpt lat="43.59587" lon="1.32008">
        <ele>190.2</ele>
        <time>2022-06-08T04:47:50Z</time>
      </trkpt>
      <trkpt lat="43.5959" lon="1.3202">
        <ele>190.4</ele>
        <time>2022-06-08T04:47:52Z</time>
      </trkpt>
      <trkpt lat="43.59599" lon="1.32028">
        <ele>190.4</ele>
        <time>2022-06-08T04:47:54Z</time>
      </trkpt>
      <trkpt lat="43.59632" lon="1.32052">
        <ele>190.4</ele>
        <time>2022-06-08T04:48:01Z</time>
      </trkpt>
      <trkpt lat="43.59637" lon="1.32056">
        <ele>190.4</ele>
        <time>2022-06-08T04:48:02Z</time>
      </trkpt>
      <trkpt lat="43.59685" lon="1.32092">
        <ele>190.6</ele>
        <time>2022-06-08T04:48:11Z</time>
      </trkpt>
      <trkpt lat="43.59696" lon="1.32099">
        <ele>190.6</ele>
        <time>2022-06-08T04:48:13Z</time>
      </trkpt>
      <trkpt lat="43.59745" lon="1.32137">
        <ele>190.2</ele>
        <time>2022-06-08T04:48:22Z</time>
      </trkpt>
      <trkpt lat="43.59762" lon="1.32147">
        <ele>190.2</ele>
        <time>2022-06-08T04:48:25Z</time>
      </trkpt>
      <trkpt lat="43.59771" lon="1.32149">
        <ele>190.2</ele>
        <time>2022-06-08T04:48:27Z</time>
      </trkpt>
      <trkpt lat="43.59783" lon="1.32149">
        <ele>190.2</ele>
        <time>2022-06-08T04:48:30Z</time>
      </trkpt>
      <trkpt lat="43.59787" lon="1.32158">
        <ele>190.2</ele>
        <time>2022-06-08T04:48:32Z</time>
      </trkpt>
      <trkpt lat="43.59789" lon="1.32164">
        <ele>190.2</ele>
        <time>2022-06-08T04:48:33Z</time>
      </trkpt>
      <trkpt lat="43.59792" lon="1.32169">
        <ele>190.2</ele>
        <time>2022-06-08T04:48:34Z</time>
      </trkpt>
      <trkpt lat="43.59804" lon="1.32181">
        <ele>190.2</ele>
        <time>2022-06-08T04:48:37Z</time>
      </trkpt>
      <trkpt lat="43.59827" lon="1.32205">
        <ele>190.2</ele>
        <time>2022-06-08T04:48:42Z</time>
      </trkpt>
      <trkpt lat="43.59832" lon="1.32209">
        <ele>190.2</ele>
        <time>2022-06-08T04:48:43Z</time>
      </trkpt>
      <trkpt lat="43.59843" lon="1.32214">
        <ele>190</ele>
        <time>2022-06-08T04:48:45Z</time>
      </trkpt>
      <trkpt lat="43.59861" lon="1.32217">
        <ele>190</ele>
        <time>2022-06-08T04:48:48Z</time>
      </trkpt>
      <trkpt lat="43.59905" lon="1.32222">
        <ele>190</ele>
        <time>2022-06-08T04:48:55Z</time>
      </trkpt>
      <trkpt lat="43.59946" lon="1.32228">
        <ele>189.6</ele>
        <time>2022-06-08T04:49:02Z</time>
      </trkpt>
      <trkpt lat="43.59951" lon="1.32229">
        <ele>189.6</ele>
        <time>2022-06-08T04:49:03Z</time>
      </trkpt>
      <trkpt lat="43.59962" lon="1.32233">
        <ele>189.8</ele>
        <time>2022-06-08T04:49:05Z</time>
      </trkpt>
      <trkpt lat="43.59972" lon="1.32241">
        <ele>190</ele>
        <time>2022-06-08T04:49:07Z</time>
      </trkpt>
      <trkpt lat="43.59976" lon="1.32246">
        <ele>190.2</ele>
        <time>2022-06-08T04:49:08Z</time>
      </trkpt>
      <trkpt lat="43.59991" lon="1.32264">
        <ele>190.2</ele>
        <time>2022-06-08T04:49:12Z</time>
      </trkpt>
      <trkpt lat="43.59994" lon="1.32267">
        <ele>190.2</ele>
        <time>2022-06-08T04:49:13Z</time>
      </trkpt>
      <trkpt lat="43.60002" lon="1.32271">
        <ele>190</ele>
        <time>2022-06-08T04:49:15Z</time>
      </trkpt>
      <trkpt lat="43.60011" lon="1.32272">
        <ele>190</ele>
        <time>2022-06-08T04:49:17Z</time>
      </trkpt>
      <trkpt lat="43.60016" lon="1.32272">
        <ele>190</ele>
        <time>2022-06-08T04:49:18Z</time>
      </trkpt>
      <trkpt lat="43.6003" lon="1.32268">
        <ele>190.2</ele>
        <time>2022-06-08T04:49:21Z</time>
      </trkpt>
      <trkpt lat="43.60039" lon="1.32263">
        <ele>190</ele>
        <time>2022-06-08T04:49:23Z</time>
      </trkpt>
      <trkpt lat="43.60046" lon="1.32263">
        <ele>190</ele>
        <time>2022-06-08T04:49:25Z</time>
      </trkpt>
      <trkpt lat="43.60048" lon="1.32266">
        <ele>190</ele>
        <time>2022-06-08T04:49:26Z</time>
      </trkpt>
      <trkpt lat="43.60049" lon="1.32271">
        <ele>190</ele>
        <time>2022-06-08T04:49:27Z</time>
      </trkpt>
      <trkpt lat="43.60048" lon="1.32282">
        <ele>189.8</ele>
        <time>2022-06-08T04:49:29Z</time>
      </trkpt>
      <trkpt lat="43.60048" lon="1.32288">
        <ele>189.8</ele>
        <time>2022-06-08T04:49:30Z</time>
      </trkpt>
      <trkpt lat="43.6005" lon="1.32315">
        <ele>189.8</ele>
        <time>2022-06-08T04:49:34Z</time>
      </trkpt>
      <trkpt lat="43.60052" lon="1.32328">
        <ele>189.8</ele>
        <time>2022-06-08T04:49:36Z</time>
      </trkpt>
      <trkpt lat="43.60058" lon="1.3234">
        <ele>189.8</ele>
        <time>2022-06-08T04:49:38Z</time>
      </trkpt>
      <trkpt lat="43.60084" lon="1.32371">
        <ele>189.8</ele>
        <time>2022-06-08T04:49:44Z</time>
      </trkpt>
      <trkpt lat="43.60118" lon="1.3241">
        <ele>189.4</ele>
        <time>2022-06-08T04:49:51Z</time>
      </trkpt>
      <trkpt lat="43.60132" lon="1.32426">
        <ele>189</ele>
        <time>2022-06-08T04:49:54Z</time>
      </trkpt>
      <trkpt lat="43.60159" lon="1.32461">
        <ele>188.8</ele>
        <time>2022-06-08T04:50:00Z</time>
      </trkpt>
      <trkpt lat="43.602" lon="1.3251">
        <ele>188.8</ele>
        <time>2022-06-08T04:50:09Z</time>
      </trkpt>
      <trkpt lat="43.60245" lon="1.32563">
        <ele>189.2</ele>
        <time>2022-06-08T04:50:19Z</time>
      </trkpt>
      <trkpt lat="43.60286" lon="1.32611">
        <ele>189.4</ele>
        <time>2022-06-08T04:50:28Z</time>
      </trkpt>
      <trkpt lat="43.60291" lon="1.32616">
        <ele>189.4</ele>
        <time>2022-06-08T04:50:29Z</time>
      </trkpt>
      <trkpt lat="43.60303" lon="1.3262">
        <ele>189.4</ele>
        <time>2022-06-08T04:50:31Z</time>
      </trkpt>
      <trkpt lat="43.60335" lon="1.32613">
        <ele>189.4</ele>
        <time>2022-06-08T04:50:36Z</time>
      </trkpt>
      <trkpt lat="43.60352" lon="1.32609">
        <ele>189.4</ele>
        <time>2022-06-08T04:50:39Z</time>
      </trkpt>
      <trkpt lat="43.60361" lon="1.32598">
        <ele>189.4</ele>
        <time>2022-06-08T04:50:41Z</time>
      </trkpt>
      <trkpt lat="43.60365" lon="1.32584">
        <ele>189.6</ele>
        <time>2022-06-08T04:50:43Z</time>
      </trkpt>
      <trkpt lat="43.60374" lon="1.32564">
        <ele>189.6</ele>
        <time>2022-06-08T04:50:46Z</time>
      </trkpt>
      <trkpt lat="43.60406" lon="1.32503">
        <ele>189.4</ele>
        <time>2022-06-08T04:50:55Z</time>
      </trkpt>
      <trkpt lat="43.60416" lon="1.32483">
        <ele>189.4</ele>
        <time>2022-06-08T04:50:58Z</time>
      </trkpt>
      <trkpt lat="43.60423" lon="1.3247">
        <ele>189.4</ele>
        <time>2022-06-08T04:51:00Z</time>
      </trkpt>
      <trkpt lat="43.60439" lon="1.32443">
        <ele>189.6</ele>
        <time>2022-06-08T04:51:04Z</time>
      </trkpt>
      <trkpt lat="43.60449" lon="1.32423">
        <ele>189.6</ele>
        <time>2022-06-08T04:51:07Z</time>
      </trkpt>
      <trkpt lat="43.60456" lon="1.32408">
        <ele>189.6</ele>
        <time>2022-06-08T04:51:09Z</time>
      </trkpt>
      <trkpt lat="43.60469" lon="1.32392">
        <ele>189.6</ele>
        <time>2022-06-08T04:51:12Z</time>
      </trkpt>
      <trkpt lat="43.60479" lon="1.32384">
        <ele>189.6</ele>
        <time>2022-06-08T04:51:14Z</time>
      </trkpt>
      <trkpt lat="43.6049" lon="1.32379">
        <ele>189.4</ele>
        <time>2022-06-08T04:51:16Z</time>
      </trkpt>
      <trkpt lat="43.60495" lon="1.32377">
        <ele>189.4</ele>
        <time>2022-06-08T04:51:17Z</time>
      </trkpt>
      <trkpt lat="43.605" lon="1.32377">
        <ele>189.4</ele>
        <time>2022-06-08T04:51:18Z</time>
      </trkpt>
      <trkpt lat="43.60507" lon="1.32382">
        <ele>189.4</ele>
        <time>2022-06-08T04:51:20Z</time>
      </trkpt>
      <trkpt lat="43.60524" lon="1.3239">
        <ele>189.4</ele>
        <time>2022-06-08T04:51:24Z</time>
      </trkpt>
      <trkpt lat="43.6053" lon="1.3239">
        <ele>189.4</ele>
        <time>2022-06-08T04:51:25Z</time>
      </trkpt>
      <trkpt lat="43.60535" lon="1.32389">
        <ele>189.4</ele>
        <time>2022-06-08T04:51:26Z</time>
      </trkpt>
      <trkpt lat="43.60543" lon="1.32381">
        <ele>189.6</ele>
        <time>2022-06-08T04:51:28Z</time>
      </trkpt>
      <trkpt lat="43.60547" lon="1.32376">
        <ele>189.6</ele>
        <time>2022-06-08T04:51:29Z</time>
      </trkpt>
      <trkpt lat="43.60557" lon="1.3237">
        <ele>189.6</ele>
        <time>2022-06-08T04:51:31Z</time>
      </trkpt>
      <trkpt lat="43.60563" lon="1.32368">
        <ele>189.6</ele>
        <time>2022-06-08T04:51:32Z</time>
      </trkpt>
      <trkpt lat="43.60582" lon="1.32367">
        <ele>189.4</ele>
        <time>2022-06-08T04:51:35Z</time>
      </trkpt>
      <trkpt lat="43.60594" lon="1.32373">
        <ele>189.2</ele>
        <time>2022-06-08T04:51:37Z</time>
      </trkpt>
      <trkpt lat="43.60634" lon="1.32416">
        <ele>188.6</ele>
        <time>2022-06-08T04:51:45Z</time>
      </trkpt>
      <trkpt lat="43.60638" lon="1.32421">
        <ele>188.6</ele>
        <time>2022-06-08T04:51:46Z</time>
      </trkpt>
      <trkpt lat="43.60654" lon="1.32435">
        <ele>188.6</ele>
        <time>2022-06-08T04:51:49Z</time>
      </trkpt>
      <trkpt lat="43.60661" lon="1.32437">
        <ele>188.4</ele>
        <time>2022-06-08T04:51:50Z</time>
      </trkpt>
      <trkpt lat="43.60667" lon="1.32437">
        <ele>188.4</ele>
        <time>2022-06-08T04:51:51Z</time>
      </trkpt>
      <trkpt lat="43.60686" lon="1.32434">
        <ele>188.4</ele>
        <time>2022-06-08T04:51:54Z</time>
      </trkpt>
      <trkpt lat="43.6069" lon="1.32431">
        <ele>188.4</ele>
        <time>2022-06-08T04:51:55Z</time>
      </trkpt>
      <trkpt lat="43.60733" lon="1.32409">
        <ele>188.4</ele>
        <time>2022-06-08T04:52:02Z</time>
      </trkpt>
      <trkpt lat="43.60737" lon="1.32404">
        <ele>188.4</ele>
        <time>2022-06-08T04:52:03Z</time>
      </trkpt>
      <trkpt lat="43.60747" lon="1.32393">
        <ele>188.4</ele>
        <time>2022-06-08T04:52:05Z</time>
      </trkpt>
      <trkpt lat="43.60749" lon="1.32386">
        <ele>188.4</ele>
        <time>2022-06-08T04:52:06Z</time>
      </trkpt>
      <trkpt lat="43.60755" lon="1.32372">
        <ele>188.4</ele>
        <time>2022-06-08T04:52:08Z</time>
      </trkpt>
      <trkpt lat="43.60763" lon="1.3236">
        <ele>188.2</ele>
        <time>2022-06-08T04:52:10Z</time>
      </trkpt>
      <trkpt lat="43.60777" lon="1.32344">
        <ele>188.2</ele>
        <time>2022-06-08T04:52:14Z</time>
      </trkpt>
      <trkpt lat="43.6078" lon="1.32342">
        <ele>188.2</ele>
        <time>2022-06-08T04:52:15Z</time>
      </trkpt>
      <trkpt lat="43.60783" lon="1.32342">
        <ele>188.2</ele>
        <time>2022-06-08T04:52:16Z</time>
      </trkpt>
      <trkpt lat="43.6079" lon="1.32344">
        <ele>188.2</ele>
        <time>2022-06-08T04:52:18Z</time>
      </trkpt>
      <trkpt lat="43.60794" lon="1.32345">
        <ele>188.2</ele>
        <time>2022-06-08T04:52:19Z</time>
      </trkpt>
      <trkpt lat="43.6081" lon="1.32346">
        <ele>188.2</ele>
        <time>2022-06-08T04:52:22Z</time>
      </trkpt>
      <trkpt lat="43.60815" lon="1.32346">
        <ele>188.2</ele>
        <time>2022-06-08T04:52:23Z</time>
      </trkpt>
      <trkpt lat="43.60825" lon="1.32343">
        <ele>188.4</ele>
        <time>2022-06-08T04:52:25Z</time>
      </trkpt>
      <trkpt lat="43.60845" lon="1.32334">
        <ele>188.4</ele>
        <time>2022-06-08T04:52:29Z</time>
      </trkpt>
      <trkpt lat="43.60865" lon="1.3232">
        <ele>188.6</ele>
        <time>2022-06-08T04:52:33Z</time>
      </trkpt>
      <trkpt lat="43.60877" lon="1.32318">
        <ele>188.8</ele>
        <time>2022-06-08T04:52:35Z</time>
      </trkpt>
      <trkpt lat="43.60888" lon="1.32321">
        <ele>188.8</ele>
        <time>2022-06-08T04:52:37Z</time>
      </trkpt>
      <trkpt lat="43.609" lon="1.32319">
        <ele>188.6</ele>
        <time>2022-06-08T04:52:39Z</time>
      </trkpt>
      <trkpt lat="43.60921" lon="1.32307">
        <ele>188.8</ele>
        <time>2022-06-08T04:52:44Z</time>
      </trkpt>
      <trkpt lat="43.60934" lon="1.323">
        <ele>190</ele>
        <time>2022-06-08T04:52:49Z</time>
      </trkpt>
      <trkpt lat="43.60937" lon="1.32299">
        <ele>190.2</ele>
        <time>2022-06-08T04:52:50Z</time>
      </trkpt>
      <trkpt lat="43.60941" lon="1.32304">
        <ele>191.6</ele>
        <time>2022-06-08T04:52:52Z</time>
      </trkpt>
      <trkpt lat="43.60944" lon="1.32321">
        <ele>192.6</ele>
        <time>2022-06-08T04:52:56Z</time>
      </trkpt>
      <trkpt lat="43.60943" lon="1.32325">
        <ele>192.6</ele>
        <time>2022-06-08T04:52:57Z</time>
      </trkpt>
      <trkpt lat="43.60931" lon="1.32331">
        <ele>192.8</ele>
        <time>2022-06-08T04:53:00Z</time>
      </trkpt>
      <trkpt lat="43.60902" lon="1.32345">
        <ele>191.8</ele>
        <time>2022-06-08T04:53:05Z</time>
      </trkpt>
      <trkpt lat="43.60897" lon="1.32348">
        <ele>191.4</ele>
        <time>2022-06-08T04:53:06Z</time>
      </trkpt>
      <trkpt lat="43.60894" lon="1.32349">
        <ele>190.4</ele>
        <time>2022-06-08T04:53:07Z</time>
      </trkpt>
      <trkpt lat="43.60892" lon="1.3235">
        <ele>189.4</ele>
        <time>2022-06-08T04:53:08Z</time>
      </trkpt>
      <trkpt lat="43.6089" lon="1.32351">
        <ele>188.2</ele>
        <time>2022-06-08T04:53:10Z</time>
      </trkpt>
      <trkpt lat="43.60887" lon="1.32352">
        <ele>187.8</ele>
        <time>2022-06-08T04:53:12Z</time>
      </trkpt>
      <trkpt lat="43.60876" lon="1.32361">
        <ele>187.6</ele>
        <time>2022-06-08T04:53:16Z</time>
      </trkpt>
      <trkpt lat="43.60873" lon="1.32365">
        <ele>187.4</ele>
        <time>2022-06-08T04:53:17Z</time>
      </trkpt>
      <trkpt lat="43.60871" lon="1.32376">
        <ele>187.2</ele>
        <time>2022-06-08T04:53:19Z</time>
      </trkpt>
      <trkpt lat="43.60872" lon="1.32382">
        <ele>187.2</ele>
        <time>2022-06-08T04:53:20Z</time>
      </trkpt>
      <trkpt lat="43.60874" lon="1.32389">
        <ele>187.2</ele>
        <time>2022-06-08T04:53:21Z</time>
      </trkpt>
      <trkpt lat="43.60878" lon="1.32409">
        <ele>187.2</ele>
        <time>2022-06-08T04:53:24Z</time>
      </trkpt>
      <trkpt lat="43.60881" lon="1.32422">
        <ele>187.2</ele>
        <time>2022-06-08T04:53:26Z</time>
      </trkpt>
      <trkpt lat="43.6089" lon="1.32439">
        <ele>187.2</ele>
        <time>2022-06-08T04:53:29Z</time>
      </trkpt>
      <trkpt lat="43.6089" lon="1.32452">
        <ele>187</ele>
        <time>2022-06-08T04:53:31Z</time>
      </trkpt>
      <trkpt lat="43.6089" lon="1.32459">
        <ele>187</ele>
        <time>2022-06-08T04:53:32Z</time>
      </trkpt>
      <trkpt lat="43.60892" lon="1.32465">
        <ele>187</ele>
        <time>2022-06-08T04:53:33Z</time>
      </trkpt>
      <trkpt lat="43.609" lon="1.32477">
        <ele>187</ele>
        <time>2022-06-08T04:53:35Z</time>
      </trkpt>
      <trkpt lat="43.60915" lon="1.32497">
        <ele>187</ele>
        <time>2022-06-08T04:53:39Z</time>
      </trkpt>
      <trkpt lat="43.60916" lon="1.32504">
        <ele>187</ele>
        <time>2022-06-08T04:53:40Z</time>
      </trkpt>
      <trkpt lat="43.60914" lon="1.32509">
        <ele>186.8</ele>
        <time>2022-06-08T04:53:41Z</time>
      </trkpt>
      <trkpt lat="43.60912" lon="1.32514">
        <ele>186.8</ele>
        <time>2022-06-08T04:53:42Z</time>
      </trkpt>
      <trkpt lat="43.60909" lon="1.3252">
        <ele>186.8</ele>
        <time>2022-06-08T04:53:43Z</time>
      </trkpt>
      <trkpt lat="43.60906" lon="1.32532">
        <ele>186.6</ele>
        <time>2022-06-08T04:53:45Z</time>
      </trkpt>
      <trkpt lat="43.60908" lon="1.32539">
        <ele>186.6</ele>
        <time>2022-06-08T04:53:46Z</time>
      </trkpt>
      <trkpt lat="43.60912" lon="1.32545">
        <ele>186.6</ele>
        <time>2022-06-08T04:53:47Z</time>
      </trkpt>
      <trkpt lat="43.60921" lon="1.32554">
        <ele>186.6</ele>
        <time>2022-06-08T04:53:49Z</time>
      </trkpt>
      <trkpt lat="43.60925" lon="1.32558">
        <ele>186.6</ele>
        <time>2022-06-08T04:53:50Z</time>
      </trkpt>
      <trkpt lat="43.60933" lon="1.32563">
        <ele>186.4</ele>
        <time>2022-06-08T04:53:52Z</time>
      </trkpt>
      <trkpt lat="43.60939" lon="1.32566">
        <ele>186.4</ele>
        <time>2022-06-08T04:53:54Z</time>
      </trkpt>
      <trkpt lat="43.60941" lon="1.32568">
        <ele>186.4</ele>
        <time>2022-06-08T04:53:55Z</time>
      </trkpt>
      <trkpt lat="43.60941" lon="1.32578">
        <ele>186.4</ele>
        <time>2022-06-08T04:53:58Z</time>
      </trkpt>
      <trkpt lat="43.60932" lon="1.32598">
        <ele>186.4</ele>
        <time>2022-06-08T04:54:03Z</time>
      </trkpt>
      <trkpt lat="43.60926" lon="1.32608">
        <ele>186.4</ele>
        <time>2022-06-08T04:54:05Z</time>
      </trkpt>
      <trkpt lat="43.60916" lon="1.32623">
        <ele>186.6</ele>
        <time>2022-06-08T04:54:08Z</time>
      </trkpt>
      <trkpt lat="43.60913" lon="1.32627">
        <ele>186.6</ele>
        <time>2022-06-08T04:54:09Z</time>
      </trkpt>
      <trkpt lat="43.60905" lon="1.32632">
        <ele>186.6</ele>
        <time>2022-06-08T04:54:11Z</time>
      </trkpt>
      <trkpt lat="43.60901" lon="1.32633">
        <ele>186.6</ele>
        <time>2022-06-08T04:54:12Z</time>
      </trkpt>
      <trkpt lat="43.60897" lon="1.32635">
        <ele>186.6</ele>
        <time>2022-06-08T04:54:13Z</time>
      </trkpt>
      <trkpt lat="43.60889" lon="1.3264">
        <ele>186.6</ele>
        <time>2022-06-08T04:54:15Z</time>
      </trkpt>
      <trkpt lat="43.60879" lon="1.32647">
        <ele>186.6</ele>
        <time>2022-06-08T04:54:17Z</time>
      </trkpt>
      <trkpt lat="43.60871" lon="1.32657">
        <ele>186.6</ele>
        <time>2022-06-08T04:54:19Z</time>
      </trkpt>
      <trkpt lat="43.60864" lon="1.32669">
        <ele>186.8</ele>
        <time>2022-06-08T04:54:21Z</time>
      </trkpt>
      <trkpt lat="43.60857" lon="1.32691">
        <ele>186.8</ele>
        <time>2022-06-08T04:54:24Z</time>
      </trkpt>
      <trkpt lat="43.60858" lon="1.32716">
        <ele>186.8</ele>
        <time>2022-06-08T04:54:26Z</time>
      </trkpt>
      <trkpt lat="43.60871" lon="1.32737">
        <ele>186.8</ele>
        <time>2022-06-08T04:54:29Z</time>
      </trkpt>
      <trkpt lat="43.60876" lon="1.32742">
        <ele>186.8</ele>
        <time>2022-06-08T04:54:30Z</time>
      </trkpt>
      <trkpt lat="43.60888" lon="1.32748">
        <ele>187</ele>
        <time>2022-06-08T04:54:32Z</time>
      </trkpt>
      <trkpt lat="43.60901" lon="1.32749">
        <ele>187</ele>
        <time>2022-06-08T04:54:34Z</time>
      </trkpt>
      <trkpt lat="43.60921" lon="1.32747">
        <ele>187</ele>
        <time>2022-06-08T04:54:37Z</time>
      </trkpt>
      <trkpt lat="43.60932" lon="1.32754">
        <ele>187</ele>
        <time>2022-06-08T04:54:39Z</time>
      </trkpt>
      <trkpt lat="43.60937" lon="1.32759">
        <ele>187</ele>
        <time>2022-06-08T04:54:41Z</time>
      </trkpt>
      <trkpt lat="43.60956" lon="1.32784">
        <ele>187</ele>
        <time>2022-06-08T04:54:45Z</time>
      </trkpt>
      <trkpt lat="43.60999" lon="1.32837">
        <ele>187</ele>
        <time>2022-06-08T04:54:53Z</time>
      </trkpt>
      <trkpt lat="43.61003" lon="1.32843">
        <ele>187.2</ele>
        <time>2022-06-08T04:54:55Z</time>
      </trkpt>
      <trkpt lat="43.61045" lon="1.32894">
        <ele>187.4</ele>
        <time>2022-06-08T04:55:03Z</time>
      </trkpt>
      <trkpt lat="43.61058" lon="1.3291">
        <ele>187.6</ele>
        <time>2022-06-08T04:55:06Z</time>
      </trkpt>
      <trkpt lat="43.61062" lon="1.32916">
        <ele>187.6</ele>
        <time>2022-06-08T04:55:07Z</time>
      </trkpt>
      <trkpt lat="43.61072" lon="1.32936">
        <ele>187.8</ele>
        <time>2022-06-08T04:55:10Z</time>
      </trkpt>
      <trkpt lat="43.61082" lon="1.32945">
        <ele>187.8</ele>
        <time>2022-06-08T04:55:12Z</time>
      </trkpt>
      <trkpt lat="43.61088" lon="1.32946">
        <ele>187.8</ele>
        <time>2022-06-08T04:55:13Z</time>
      </trkpt>
      <trkpt lat="43.61094" lon="1.32945">
        <ele>187.8</ele>
        <time>2022-06-08T04:55:14Z</time>
      </trkpt>
      <trkpt lat="43.611" lon="1.32943">
        <ele>187.6</ele>
        <time>2022-06-08T04:55:16Z</time>
      </trkpt>
      <trkpt lat="43.61112" lon="1.32948">
        <ele>187.6</ele>
        <time>2022-06-08T04:55:17Z</time>
      </trkpt>
      <trkpt lat="43.61118" lon="1.32953">
        <ele>187.6</ele>
        <time>2022-06-08T04:55:18Z</time>
      </trkpt>
      <trkpt lat="43.61123" lon="1.32959">
        <ele>187.6</ele>
        <time>2022-06-08T04:55:19Z</time>
      </trkpt>
      <trkpt lat="43.61145" lon="1.3299">
        <ele>187.2</ele>
        <time>2022-06-08T04:55:23Z</time>
      </trkpt>
      <trkpt lat="43.6117" lon="1.33021">
        <ele>186.2</ele>
        <time>2022-06-08T04:55:28Z</time>
      </trkpt>
      <trkpt lat="43.61174" lon="1.33026">
        <ele>186</ele>
        <time>2022-06-08T04:55:29Z</time>
      </trkpt>
      <trkpt lat="43.61202" lon="1.33059">
        <ele>185.4</ele>
        <time>2022-06-08T04:55:35Z</time>
      </trkpt>
      <trkpt lat="43.61211" lon="1.33066">
        <ele>185.4</ele>
        <time>2022-06-08T04:55:37Z</time>
      </trkpt>
      <trkpt lat="43.61216" lon="1.33075">
        <ele>185.4</ele>
        <time>2022-06-08T04:55:39Z</time>
      </trkpt>
      <trkpt lat="43.61217" lon="1.3308">
        <ele>185.6</ele>
        <time>2022-06-08T04:55:41Z</time>
      </trkpt>
      <trkpt lat="43.61217" lon="1.3308">
        <ele>185.6</ele>
        <time>2022-06-08T04:55:42Z</time>
      </trkpt>
      <trkpt lat="43.61211" lon="1.33085">
        <ele>185.8</ele>
        <time>2022-06-08T04:55:45Z</time>
      </trkpt>
      <trkpt lat="43.61217" lon="1.33093">
        <ele>185.8</ele>
        <time>2022-06-08T04:55:48Z</time>
      </trkpt>
      <trkpt lat="43.6122" lon="1.33095">
        <ele>186</ele>
        <time>2022-06-08T04:55:49Z</time>
      </trkpt>
      <trkpt lat="43.61234" lon="1.33103">
        <ele>186</ele>
        <time>2022-06-08T04:55:53Z</time>
      </trkpt>
      <trkpt lat="43.61246" lon="1.3311">
        <ele>186.2</ele>
        <time>2022-06-08T04:55:56Z</time>
      </trkpt>
      <trkpt lat="43.61249" lon="1.33114">
        <ele>186.2</ele>
        <time>2022-06-08T04:55:57Z</time>
      </trkpt>
      <trkpt lat="43.61251" lon="1.33119">
        <ele>186.2</ele>
        <time>2022-06-08T04:55:58Z</time>
      </trkpt>
      <trkpt lat="43.61256" lon="1.33141">
        <ele>186.4</ele>
        <time>2022-06-08T04:56:01Z</time>
      </trkpt>
      <trkpt lat="43.61266" lon="1.33185">
        <ele>186.6</ele>
        <time>2022-06-08T04:56:07Z</time>
      </trkpt>
      <trkpt lat="43.61267" lon="1.33193">
        <ele>186.6</ele>
        <time>2022-06-08T04:56:08Z</time>
      </trkpt>
      <trkpt lat="43.61267" lon="1.33201">
        <ele>186.6</ele>
        <time>2022-06-08T04:56:09Z</time>
      </trkpt>
      <trkpt lat="43.61264" lon="1.33217">
        <ele>186.8</ele>
        <time>2022-06-08T04:56:11Z</time>
      </trkpt>
      <trkpt lat="43.61247" lon="1.33279">
        <ele>187</ele>
        <time>2022-06-08T04:56:19Z</time>
      </trkpt>
      <trkpt lat="43.61234" lon="1.33331">
        <ele>186.8</ele>
        <time>2022-06-08T04:56:25Z</time>
      </trkpt>
      <trkpt lat="43.61217" lon="1.33397">
        <ele>185.6</ele>
        <time>2022-06-08T04:56:32Z</time>
      </trkpt>
      <trkpt lat="43.6121" lon="1.33423">
        <ele>185.2</ele>
        <time>2022-06-08T04:56:35Z</time>
      </trkpt>
      <trkpt lat="43.61203" lon="1.33445">
        <ele>185.2</ele>
        <time>2022-06-08T04:56:38Z</time>
      </trkpt>
      <trkpt lat="43.61187" lon="1.33497">
        <ele>186.2</ele>
        <time>2022-06-08T04:56:45Z</time>
      </trkpt>
      <trkpt lat="43.61164" lon="1.33569">
        <ele>186.4</ele>
        <time>2022-06-08T04:56:54Z</time>
      </trkpt>
      <trkpt lat="43.61149" lon="1.33609">
        <ele>186.2</ele>
        <time>2022-06-08T04:56:59Z</time>
      </trkpt>
      <trkpt lat="43.6114" lon="1.3362">
        <ele>186</ele>
        <time>2022-06-08T04:57:01Z</time>
      </trkpt>
      <trkpt lat="43.61111" lon="1.33645">
        <ele>185.8</ele>
        <time>2022-06-08T04:57:06Z</time>
      </trkpt>
      <trkpt lat="43.61103" lon="1.33657">
        <ele>185.6</ele>
        <time>2022-06-08T04:57:08Z</time>
      </trkpt>
      <trkpt lat="43.61098" lon="1.33674">
        <ele>185.4</ele>
        <time>2022-06-08T04:57:10Z</time>
      </trkpt>
      <trkpt lat="43.611" lon="1.33691">
        <ele>185.2</ele>
        <time>2022-06-08T04:57:12Z</time>
      </trkpt>
      <trkpt lat="43.61106" lon="1.33708">
        <ele>185.2</ele>
        <time>2022-06-08T04:57:14Z</time>
      </trkpt>
      <trkpt lat="43.61123" lon="1.33722">
        <ele>185</ele>
        <time>2022-06-08T04:57:17Z</time>
      </trkpt>
      <trkpt lat="43.61148" lon="1.33729">
        <ele>185.2</ele>
        <time>2022-06-08T04:57:21Z</time>
      </trkpt>
      <trkpt lat="43.61155" lon="1.3373">
        <ele>185.2</ele>
        <time>2022-06-08T04:57:22Z</time>
      </trkpt>
      <trkpt lat="43.61185" lon="1.33743">
        <ele>185.2</ele>
        <time>2022-06-08T04:57:27Z</time>
      </trkpt>
      <trkpt lat="43.61212" lon="1.3376">
        <ele>184.8</ele>
        <time>2022-06-08T04:57:32Z</time>
      </trkpt>
      <trkpt lat="43.61249" lon="1.3379">
        <ele>183.6</ele>
        <time>2022-06-08T04:57:36Z</time>
      </trkpt>
      <trkpt lat="43.61249" lon="1.3379">
        <ele>183.4</ele>
        <time>2022-06-08T04:57:37Z</time>
      </trkpt>
      <trkpt lat="43.61265" lon="1.33806">
        <ele>182.8</ele>
        <time>2022-06-08T04:57:38Z</time>
      </trkpt>
      <trkpt lat="43.6128" lon="1.33823">
        <ele>182.2</ele>
        <time>2022-06-08T04:57:40Z</time>
      </trkpt>
      <trkpt lat="43.61304" lon="1.33851">
        <ele>180.4</ele>
        <time>2022-06-08T04:57:43Z</time>
      </trkpt>
      <trkpt lat="43.6132" lon="1.33869">
        <ele>179.2</ele>
        <time>2022-06-08T04:57:45Z</time>
      </trkpt>
      <trkpt lat="43.61336" lon="1.33887">
        <ele>178.2</ele>
        <time>2022-06-08T04:57:47Z</time>
      </trkpt>
      <trkpt lat="43.61344" lon="1.33899">
        <ele>178</ele>
        <time>2022-06-08T04:57:48Z</time>
      </trkpt>
      <trkpt lat="43.61348" lon="1.33908">
        <ele>177.4</ele>
        <time>2022-06-08T04:57:49Z</time>
      </trkpt>
      <trkpt lat="43.61354" lon="1.33919">
        <ele>176.8</ele>
        <time>2022-06-08T04:57:50Z</time>
      </trkpt>
      <trkpt lat="43.61368" lon="1.33955">
        <ele>175.8</ele>
        <time>2022-06-08T04:57:53Z</time>
      </trkpt>
      <trkpt lat="43.61371" lon="1.33967">
        <ele>175.4</ele>
        <time>2022-06-08T04:57:54Z</time>
      </trkpt>
      <trkpt lat="43.61373" lon="1.33988">
        <ele>174.6</ele>
        <time>2022-06-08T04:57:56Z</time>
      </trkpt>
      <trkpt lat="43.61374" lon="1.34021">
        <ele>173.6</ele>
        <time>2022-06-08T04:57:59Z</time>
      </trkpt>
      <trkpt lat="43.61377" lon="1.34042">
        <ele>173.4</ele>
        <time>2022-06-08T04:58:01Z</time>
      </trkpt>
      <trkpt lat="43.61379" lon="1.34052">
        <ele>173.2</ele>
        <time>2022-06-08T04:58:02Z</time>
      </trkpt>
      <trkpt lat="43.61387" lon="1.34079">
        <ele>172.8</ele>
        <time>2022-06-08T04:58:05Z</time>
      </trkpt>
      <trkpt lat="43.61389" lon="1.34092">
        <ele>172.6</ele>
        <time>2022-06-08T04:58:07Z</time>
      </trkpt>
      <trkpt lat="43.61392" lon="1.34095">
        <ele>172.6</ele>
        <time>2022-06-08T04:58:08Z</time>
      </trkpt>
      <trkpt lat="43.61395" lon="1.34097">
        <ele>172.4</ele>
        <time>2022-06-08T04:58:09Z</time>
      </trkpt>
      <trkpt lat="43.61404" lon="1.341">
        <ele>172.4</ele>
        <time>2022-06-08T04:58:11Z</time>
      </trkpt>
      <trkpt lat="43.61422" lon="1.34099">
        <ele>172</ele>
        <time>2022-06-08T04:58:15Z</time>
      </trkpt>
      <trkpt lat="43.61426" lon="1.34097">
        <ele>171.8</ele>
        <time>2022-06-08T04:58:16Z</time>
      </trkpt>
      <trkpt lat="43.6143" lon="1.34096">
        <ele>171.8</ele>
        <time>2022-06-08T04:58:17Z</time>
      </trkpt>
      <trkpt lat="43.61444" lon="1.3409">
        <ele>172</ele>
        <time>2022-06-08T04:58:20Z</time>
      </trkpt>
      <trkpt lat="43.61451" lon="1.34079">
        <ele>172.2</ele>
        <time>2022-06-08T04:58:22Z</time>
      </trkpt>
      <trkpt lat="43.61453" lon="1.34073">
        <ele>172.2</ele>
        <time>2022-06-08T04:58:23Z</time>
      </trkpt>
      <trkpt lat="43.6146" lon="1.3406">
        <ele>172.4</ele>
        <time>2022-06-08T04:58:25Z</time>
      </trkpt>
      <trkpt lat="43.61472" lon="1.34045">
        <ele>172.8</ele>
        <time>2022-06-08T04:58:28Z</time>
      </trkpt>
      <trkpt lat="43.61482" lon="1.34041">
        <ele>172.8</ele>
        <time>2022-06-08T04:58:30Z</time>
      </trkpt>
      <trkpt lat="43.61493" lon="1.34038">
        <ele>173.2</ele>
        <time>2022-06-08T04:58:32Z</time>
      </trkpt>
      <trkpt lat="43.61508" lon="1.34035">
        <ele>173.8</ele>
        <time>2022-06-08T04:58:35Z</time>
      </trkpt>
      <trkpt lat="43.61545" lon="1.34028">
        <ele>174.4</ele>
        <time>2022-06-08T04:58:42Z</time>
      </trkpt>
      <trkpt lat="43.61555" lon="1.34024">
        <ele>174.8</ele>
        <time>2022-06-08T04:58:44Z</time>
      </trkpt>
      <trkpt lat="43.61595" lon="1.34017">
        <ele>175.6</ele>
        <time>2022-06-08T04:58:52Z</time>
      </trkpt>
      <trkpt lat="43.61608" lon="1.34014">
        <ele>176</ele>
        <time>2022-06-08T04:58:55Z</time>
      </trkpt>
      <trkpt lat="43.61633" lon="1.34011">
        <ele>176.6</ele>
        <time>2022-06-08T04:59:00Z</time>
      </trkpt>
      <trkpt lat="43.61656" lon="1.34009">
        <ele>177</ele>
        <time>2022-06-08T04:59:05Z</time>
      </trkpt>
      <trkpt lat="43.61666" lon="1.34005">
        <ele>177.2</ele>
        <time>2022-06-08T04:59:07Z</time>
      </trkpt>
      <trkpt lat="43.61669" lon="1.34001">
        <ele>177.2</ele>
        <time>2022-06-08T04:59:08Z</time>
      </trkpt>
      <trkpt lat="43.61671" lon="1.33998">
        <ele>177.2</ele>
        <time>2022-06-08T04:59:09Z</time>
      </trkpt>
      <trkpt lat="43.6168" lon="1.33996">
        <ele>177.4</ele>
        <time>2022-06-08T04:59:11Z</time>
      </trkpt>
      <trkpt lat="43.61689" lon="1.33995">
        <ele>177.4</ele>
        <time>2022-06-08T04:59:13Z</time>
      </trkpt>
      <trkpt lat="43.61708" lon="1.33989">
        <ele>177.6</ele>
        <time>2022-06-08T04:59:17Z</time>
      </trkpt>
      <trkpt lat="43.6172" lon="1.33983">
        <ele>178</ele>
        <time>2022-06-08T04:59:20Z</time>
      </trkpt>
      <trkpt lat="43.61747" lon="1.33968">
        <ele>178.8</ele>
        <time>2022-06-08T04:59:26Z</time>
      </trkpt>
      <trkpt lat="43.61773" lon="1.33948">
        <ele>179.4</ele>
        <time>2022-06-08T04:59:32Z</time>
      </trkpt>
      <trkpt lat="43.6179" lon="1.33933">
        <ele>180</ele>
        <time>2022-06-08T04:59:36Z</time>
      </trkpt>
      <trkpt lat="43.61798" lon="1.33927">
        <ele>180</ele>
        <time>2022-06-08T04:59:38Z</time>
      </trkpt>
      <trkpt lat="43.61807" lon="1.33924">
        <ele>180.2</ele>
        <time>2022-06-08T04:59:40Z</time>
      </trkpt>
      <trkpt lat="43.61811" lon="1.33924">
        <ele>180.4</ele>
        <time>2022-06-08T04:59:41Z</time>
      </trkpt>
      <trkpt lat="43.61814" lon="1.33926">
        <ele>180.6</ele>
        <time>2022-06-08T04:59:43Z</time>
      </trkpt>
      <trkpt lat="43.61818" lon="1.33933">
        <ele>180.6</ele>
        <time>2022-06-08T04:59:44Z</time>
      </trkpt>
      <trkpt lat="43.61813" lon="1.33943">
        <ele>180.8</ele>
        <time>2022-06-08T04:59:46Z</time>
      </trkpt>
      <trkpt lat="43.6181" lon="1.33948">
        <ele>180.8</ele>
        <time>2022-06-08T04:59:47Z</time>
      </trkpt>
      <trkpt lat="43.61788" lon="1.33972">
        <ele>180.6</ele>
        <time>2022-06-08T04:59:51Z</time>
      </trkpt>
      <trkpt lat="43.61772" lon="1.33987">
        <ele>179.4</ele>
        <time>2022-06-08T04:59:54Z</time>
      </trkpt>
      <trkpt lat="43.61763" lon="1.33992">
        <ele>178.4</ele>
        <time>2022-06-08T04:59:56Z</time>
      </trkpt>
      <trkpt lat="43.61761" lon="1.33996">
        <ele>177.4</ele>
        <time>2022-06-08T04:59:57Z</time>
      </trkpt>
      <trkpt lat="43.61761" lon="1.34001">
        <ele>177</ele>
        <time>2022-06-08T04:59:58Z</time>
      </trkpt>
      <trkpt lat="43.61761" lon="1.34001">
        <ele>176</ele>
        <time>2022-06-08T04:59:59Z</time>
      </trkpt>
      <trkpt lat="43.61767" lon="1.34022">
        <ele>175</ele>
        <time>2022-06-08T05:00:01Z</time>
      </trkpt>
      <trkpt lat="43.61771" lon="1.3404">
        <ele>174</ele>
        <time>2022-06-08T05:00:03Z</time>
      </trkpt>
      <trkpt lat="43.61774" lon="1.3405">
        <ele>173.6</ele>
        <time>2022-06-08T05:00:04Z</time>
      </trkpt>
      <trkpt lat="43.61784" lon="1.34083">
        <ele>172.4</ele>
        <time>2022-06-08T05:00:07Z</time>
      </trkpt>
      <trkpt lat="43.61787" lon="1.34095">
        <ele>172</ele>
        <time>2022-06-08T05:00:08Z</time>
      </trkpt>
      <trkpt lat="43.6179" lon="1.34107">
        <ele>171.2</ele>
        <time>2022-06-08T05:00:09Z</time>
      </trkpt>
      <trkpt lat="43.61793" lon="1.34118">
        <ele>170.8</ele>
        <time>2022-06-08T05:00:10Z</time>
      </trkpt>
      <trkpt lat="43.61798" lon="1.34141">
        <ele>169.8</ele>
        <time>2022-06-08T05:00:12Z</time>
      </trkpt>
      <trkpt lat="43.61802" lon="1.34151">
        <ele>169</ele>
        <time>2022-06-08T05:00:13Z</time>
      </trkpt>
      <trkpt lat="43.61806" lon="1.3416">
        <ele>168.6</ele>
        <time>2022-06-08T05:00:14Z</time>
      </trkpt>
      <trkpt lat="43.61817" lon="1.34175">
        <ele>167.6</ele>
        <time>2022-06-08T05:00:16Z</time>
      </trkpt>
      <trkpt lat="43.6184" lon="1.34205">
        <ele>166.4</ele>
        <time>2022-06-08T05:00:20Z</time>
      </trkpt>
      <trkpt lat="43.61852" lon="1.34219">
        <ele>166</ele>
        <time>2022-06-08T05:00:22Z</time>
      </trkpt>
      <trkpt lat="43.61887" lon="1.3426">
        <ele>165.4</ele>
        <time>2022-06-08T05:00:28Z</time>
      </trkpt>
      <trkpt lat="43.61903" lon="1.3428">
        <ele>164.8</ele>
        <time>2022-06-08T05:00:31Z</time>
      </trkpt>
      <trkpt lat="43.6192" lon="1.34299">
        <ele>164.2</ele>
        <time>2022-06-08T05:00:34Z</time>
      </trkpt>
      <trkpt lat="43.61942" lon="1.34321">
        <ele>163.6</ele>
        <time>2022-06-08T05:00:38Z</time>
      </trkpt>
      <trkpt lat="43.61964" lon="1.34343">
        <ele>163.4</ele>
        <time>2022-06-08T05:00:42Z</time>
      </trkpt>
      <trkpt lat="43.6197" lon="1.34348">
        <ele>163.2</ele>
        <time>2022-06-08T05:00:43Z</time>
      </trkpt>
      <trkpt lat="43.61994" lon="1.34375">
        <ele>162.8</ele>
        <time>2022-06-08T05:00:48Z</time>
      </trkpt>
      <trkpt lat="43.61998" lon="1.34381">
        <ele>162.6</ele>
        <time>2022-06-08T05:00:49Z</time>
      </trkpt>
      <trkpt lat="43.62003" lon="1.34386">
        <ele>162.4</ele>
        <time>2022-06-08T05:00:50Z</time>
      </trkpt>
      <trkpt lat="43.62016" lon="1.34402">
        <ele>162.2</ele>
        <time>2022-06-08T05:00:53Z</time>
      </trkpt>
      <trkpt lat="43.62025" lon="1.34414">
        <ele>162.2</ele>
        <time>2022-06-08T05:00:55Z</time>
      </trkpt>
      <trkpt lat="43.6203" lon="1.34428">
        <ele>162</ele>
        <time>2022-06-08T05:00:57Z</time>
      </trkpt>
      <trkpt lat="43.62028" lon="1.3445">
        <ele>161.4</ele>
        <time>2022-06-08T05:01:00Z</time>
      </trkpt>
      <trkpt lat="43.62027" lon="1.34454">
        <ele>161.4</ele>
        <time>2022-06-08T05:01:01Z</time>
      </trkpt>
      <trkpt lat="43.62024" lon="1.34458">
        <ele>161</ele>
        <time>2022-06-08T05:01:03Z</time>
      </trkpt>
      <trkpt lat="43.62024" lon="1.34459">
        <ele>161</ele>
        <time>2022-06-08T05:01:04Z</time>
      </trkpt>
      <trkpt lat="43.62025" lon="1.34463">
        <ele>160.4</ele>
        <time>2022-06-08T05:01:11Z</time>
      </trkpt>
      <trkpt lat="43.62029" lon="1.34464">
        <ele>160.4</ele>
        <time>2022-06-08T05:01:13Z</time>
      </trkpt>
      <trkpt lat="43.62034" lon="1.3446">
        <ele>160.4</ele>
        <time>2022-06-08T05:01:15Z</time>
      </trkpt>
      <trkpt lat="43.62047" lon="1.34454">
        <ele>160.4</ele>
        <time>2022-06-08T05:01:19Z</time>
      </trkpt>
      <trkpt lat="43.62061" lon="1.34455">
        <ele>160.4</ele>
        <time>2022-06-08T05:01:22Z</time>
      </trkpt>
      <trkpt lat="43.62072" lon="1.34459">
        <ele>160.4</ele>
        <time>2022-06-08T05:01:24Z</time>
      </trkpt>
      <trkpt lat="43.62081" lon="1.34468">
        <ele>160.4</ele>
        <time>2022-06-08T05:01:26Z</time>
      </trkpt>
      <trkpt lat="43.6209" lon="1.34478">
        <ele>160.4</ele>
        <time>2022-06-08T05:01:28Z</time>
      </trkpt>
      <trkpt lat="43.62118" lon="1.34509">
        <ele>160.4</ele>
        <time>2022-06-08T05:01:34Z</time>
      </trkpt>
      <trkpt lat="43.62166" lon="1.34552">
        <ele>160.2</ele>
        <time>2022-06-08T05:01:43Z</time>
      </trkpt>
      <trkpt lat="43.62195" lon="1.34574">
        <ele>160</ele>
        <time>2022-06-08T05:01:48Z</time>
      </trkpt>
      <trkpt lat="43.62219" lon="1.3459">
        <ele>159.8</ele>
        <time>2022-06-08T05:01:52Z</time>
      </trkpt>
      <trkpt lat="43.6226" lon="1.34616">
        <ele>159.6</ele>
        <time>2022-06-08T05:01:59Z</time>
      </trkpt>
      <trkpt lat="43.62316" lon="1.34643">
        <ele>159.4</ele>
        <time>2022-06-08T05:02:08Z</time>
      </trkpt>
      <trkpt lat="43.62363" lon="1.34665">
        <ele>159.4</ele>
        <time>2022-06-08T05:02:16Z</time>
      </trkpt>
      <trkpt lat="43.62367" lon="1.3467">
        <ele>159.4</ele>
        <time>2022-06-08T05:02:17Z</time>
      </trkpt>
      <trkpt lat="43.62382" lon="1.34694">
        <ele>159.2</ele>
        <time>2022-06-08T05:02:21Z</time>
      </trkpt>
      <trkpt lat="43.62387" lon="1.34699">
        <ele>159.2</ele>
        <time>2022-06-08T05:02:22Z</time>
      </trkpt>
      <trkpt lat="43.62392" lon="1.34699">
        <ele>159.2</ele>
        <time>2022-06-08T05:02:23Z</time>
      </trkpt>
      <trkpt lat="43.62392" lon="1.34699">
        <ele>159.2</ele>
        <time>2022-06-08T05:02:24Z</time>
      </trkpt>
      <trkpt lat="43.62403" lon="1.34693">
        <ele>159</ele>
        <time>2022-06-08T05:02:25Z</time>
      </trkpt>
      <trkpt lat="43.62415" lon="1.34688">
        <ele>159</ele>
        <time>2022-06-08T05:02:27Z</time>
      </trkpt>
      <trkpt lat="43.62421" lon="1.34687">
        <ele>159</ele>
        <time>2022-06-08T05:02:28Z</time>
      </trkpt>
      <trkpt lat="43.62427" lon="1.34686">
        <ele>159</ele>
        <time>2022-06-08T05:02:29Z</time>
      </trkpt>
      <trkpt lat="43.62459" lon="1.34687">
        <ele>158.8</ele>
        <time>2022-06-08T05:02:34Z</time>
      </trkpt>
      <trkpt lat="43.62489" lon="1.34689">
        <ele>158.8</ele>
        <time>2022-06-08T05:02:39Z</time>
      </trkpt>
      <trkpt lat="43.62501" lon="1.34703">
        <ele>158.6</ele>
        <time>2022-06-08T05:02:42Z</time>
      </trkpt>
      <trkpt lat="43.62506" lon="1.34718">
        <ele>158.6</ele>
        <time>2022-06-08T05:02:44Z</time>
      </trkpt>
      <trkpt lat="43.62509" lon="1.34736">
        <ele>158.4</ele>
        <time>2022-06-08T05:02:47Z</time>
      </trkpt>
      <trkpt lat="43.62509" lon="1.34745">
        <ele>158</ele>
        <time>2022-06-08T05:02:51Z</time>
      </trkpt>
      <trkpt lat="43.62509" lon="1.34745">
        <ele>158</ele>
        <time>2022-06-08T05:02:52Z</time>
      </trkpt>
      <trkpt lat="43.62509" lon="1.34748">
        <ele>157.4</ele>
        <time>2022-06-08T05:03:07Z</time>
      </trkpt>
      <trkpt lat="43.6251" lon="1.34755">
        <ele>157.2</ele>
        <time>2022-06-08T05:03:09Z</time>
      </trkpt>
      <trkpt lat="43.62507" lon="1.34765">
        <ele>157.2</ele>
        <time>2022-06-08T05:03:12Z</time>
      </trkpt>
      <trkpt lat="43.62503" lon="1.34769">
        <ele>157.2</ele>
        <time>2022-06-08T05:03:14Z</time>
      </trkpt>
      <trkpt lat="43.62489" lon="1.3477">
        <ele>157.2</ele>
        <time>2022-06-08T05:03:19Z</time>
      </trkpt>
      <trkpt lat="43.62467" lon="1.34772">
        <ele>157.6</ele>
        <time>2022-06-08T05:03:25Z</time>
      </trkpt>
      <trkpt lat="43.62447" lon="1.34777">
        <ele>157.8</ele>
        <time>2022-06-08T05:03:30Z</time>
      </trkpt>
      <trkpt lat="43.62442" lon="1.34778">
        <ele>158</ele>
        <time>2022-06-08T05:03:31Z</time>
      </trkpt>
      <trkpt lat="43.62406" lon="1.34776">
        <ele>158.2</ele>
        <time>2022-06-08T05:03:37Z</time>
      </trkpt>
      <trkpt lat="43.62363" lon="1.3478">
        <ele>158.8</ele>
        <time>2022-06-08T05:03:44Z</time>
      </trkpt>
      <trkpt lat="43.62357" lon="1.34781">
        <ele>158.8</ele>
        <time>2022-06-08T05:03:45Z</time>
      </trkpt>
      <trkpt lat="43.62346" lon="1.34786">
        <ele>159</ele>
        <time>2022-06-08T05:03:47Z</time>
      </trkpt>
      <trkpt lat="43.6234" lon="1.3479">
        <ele>159</ele>
        <time>2022-06-08T05:03:48Z</time>
      </trkpt>
      <trkpt lat="43.62327" lon="1.348">
        <ele>159</ele>
        <time>2022-06-08T05:03:50Z</time>
      </trkpt>
      <trkpt lat="43.6228" lon="1.34847">
        <ele>158.6</ele>
        <time>2022-06-08T05:03:58Z</time>
      </trkpt>
      <trkpt lat="43.62261" lon="1.34865">
        <ele>158.2</ele>
        <time>2022-06-08T05:04:02Z</time>
      </trkpt>
      <trkpt lat="43.62256" lon="1.34874">
        <ele>158.2</ele>
        <time>2022-06-08T05:04:04Z</time>
      </trkpt>
      <trkpt lat="43.62255" lon="1.34881">
        <ele>158</ele>
        <time>2022-06-08T05:04:06Z</time>
      </trkpt>
      <trkpt lat="43.62254" lon="1.34885">
        <ele>157.8</ele>
        <time>2022-06-08T05:04:07Z</time>
      </trkpt>
      <trkpt lat="43.62256" lon="1.34918">
        <ele>157.4</ele>
        <time>2022-06-08T05:04:12Z</time>
      </trkpt>
      <trkpt lat="43.62257" lon="1.34957">
        <ele>156.8</ele>
        <time>2022-06-08T05:04:17Z</time>
      </trkpt>
      <trkpt lat="43.62258" lon="1.34981">
        <ele>156.6</ele>
        <time>2022-06-08T05:04:20Z</time>
      </trkpt>
      <trkpt lat="43.62259" lon="1.35043">
        <ele>156.6</ele>
        <time>2022-06-08T05:04:28Z</time>
      </trkpt>
      <trkpt lat="43.62261" lon="1.35092">
        <ele>156.6</ele>
        <time>2022-06-08T05:04:34Z</time>
      </trkpt>
      <trkpt lat="43.62261" lon="1.35099">
        <ele>156.6</ele>
        <time>2022-06-08T05:04:35Z</time>
      </trkpt>
      <trkpt lat="43.62263" lon="1.35147">
        <ele>156.4</ele>
        <time>2022-06-08T05:04:42Z</time>
      </trkpt>
      <trkpt lat="43.62264" lon="1.35151">
        <ele>156.4</ele>
        <time>2022-06-08T05:04:43Z</time>
      </trkpt>
      <trkpt lat="43.62266" lon="1.35153">
        <ele>156.4</ele>
        <time>2022-06-08T05:04:44Z</time>
      </trkpt>
      <trkpt lat="43.62267" lon="1.35152">
        <ele>156.4</ele>
        <time>2022-06-08T05:04:45Z</time>
      </trkpt>
      <trkpt lat="43.62267" lon="1.35152">
        <ele>156.2</ele>
        <time>2022-06-08T05:04:48Z</time>
      </trkpt>
      <trkpt lat="43.62267" lon="1.35152">
        <ele>156.2</ele>
        <time>2022-06-08T05:04:49Z</time>
      </trkpt>
      <trkpt lat="43.62268" lon="1.35158">
        <ele>154.2</ele>
        <time>2022-06-08T05:12:25Z</time>
      </trkpt>
      <trkpt lat="43.62269" lon="1.35166">
        <ele>154</ele>
        <time>2022-06-08T05:12:28Z</time>
      </trkpt>
      <trkpt lat="43.62267" lon="1.35195">
        <ele>154</ele>
        <time>2022-06-08T05:12:34Z</time>
      </trkpt>
      <trkpt lat="43.62271" lon="1.35222">
        <ele>154</ele>
        <time>2022-06-08T05:12:39Z</time>
      </trkpt>
      <trkpt lat="43.62274" lon="1.35226">
        <ele>154.2</ele>
        <time>2022-06-08T05:12:40Z</time>
      </trkpt>
      <trkpt lat="43.62282" lon="1.35232">
        <ele>154.2</ele>
        <time>2022-06-08T05:12:43Z</time>
      </trkpt>
      <trkpt lat="43.62283" lon="1.35235">
        <ele>154.2</ele>
        <time>2022-06-08T05:12:44Z</time>
      </trkpt>
      <trkpt lat="43.62283" lon="1.3524">
        <ele>150</ele>
        <time>2022-06-08T05:12:46Z</time>
      </trkpt>
      <trkpt lat="43.62281" lon="1.35247">
        <ele>154.2</ele>
        <time>2022-06-08T05:12:49Z</time>
      </trkpt>
      <trkpt lat="43.62281" lon="1.35249">
        <ele>154.2</ele>
        <time>2022-06-08T05:12:50Z</time>
      </trkpt>
      <trkpt lat="43.62281" lon="1.35251">
        <ele>154.2</ele>
        <time>2022-06-08T05:12:54Z</time>
      </trkpt>
      <trkpt lat="43.62283" lon="1.35159">
        <ele>133.4</ele>
        <time>2022-06-08T14:16:34Z</time>
      </trkpt>
      <trkpt lat="43.62285" lon="1.35246">
        <ele>134</ele>
        <time>2022-06-08T14:20:28Z</time>
      </trkpt>
      <trkpt lat="43.62284" lon="1.35241">
        <ele>134</ele>
        <time>2022-06-08T14:20:30Z</time>
      </trkpt>
      <trkpt lat="43.62283" lon="1.35232">
        <ele>133.4</ele>
        <time>2022-06-08T14:20:35Z</time>
      </trkpt>
      <trkpt lat="43.62281" lon="1.3523">
        <ele>133.4</ele>
        <time>2022-06-08T14:20:36Z</time>
      </trkpt>
      <trkpt lat="43.62279" lon="1.35228">
        <ele>133.4</ele>
        <time>2022-06-08T14:20:37Z</time>
      </trkpt>
      <trkpt lat="43.62272" lon="1.35217">
        <ele>133.4</ele>
        <time>2022-06-08T14:20:40Z</time>
      </trkpt>
      <trkpt lat="43.62269" lon="1.35196">
        <ele>133.6</ele>
        <time>2022-06-08T14:20:44Z</time>
      </trkpt>
      <trkpt lat="43.62268" lon="1.35163">
        <ele>133.8</ele>
        <time>2022-06-08T14:20:50Z</time>
      </trkpt>
      <trkpt lat="43.62271" lon="1.35151">
        <ele>133.8</ele>
        <time>2022-06-08T14:20:54Z</time>
      </trkpt>
      <trkpt lat="43.62272" lon="1.35149">
        <ele>133.8</ele>
        <time>2022-06-08T14:20:58Z</time>
      </trkpt>
      <trkpt lat="43.6228" lon="1.35161">
        <ele>133</ele>
        <time>2022-06-08T14:27:49Z</time>
      </trkpt>
      <trkpt lat="43.62285" lon="1.35155">
        <ele>133.2</ele>
        <time>2022-06-08T14:27:57Z</time>
      </trkpt>
      <trkpt lat="43.62285" lon="1.35155">
        <ele>133.2</ele>
        <time>2022-06-08T14:27:58Z</time>
      </trkpt>
      <trkpt lat="43.62287" lon="1.3515">
        <ele>133.2</ele>
        <time>2022-06-08T14:28:05Z</time>
      </trkpt>
      <trkpt lat="43.62286" lon="1.35148">
        <ele>133.2</ele>
        <time>2022-06-08T14:28:07Z</time>
      </trkpt>
      <trkpt lat="43.62286" lon="1.35147">
        <ele>133.2</ele>
        <time>2022-06-08T14:28:08Z</time>
      </trkpt>
      <trkpt lat="43.62285" lon="1.35146">
        <ele>133.2</ele>
        <time>2022-06-08T14:28:10Z</time>
      </trkpt>
      <trkpt lat="43.62284" lon="1.35145">
        <ele>133.2</ele>
        <time>2022-06-08T14:28:12Z</time>
      </trkpt>
      <trkpt lat="43.62281" lon="1.35136">
        <ele>132.8</ele>
        <time>2022-06-08T14:28:37Z</time>
      </trkpt>
      <trkpt lat="43.62277" lon="1.35132">
        <ele>132.8</ele>
        <time>2022-06-08T14:28:39Z</time>
      </trkpt>
      <trkpt lat="43.62275" lon="1.35132">
        <ele>132.8</ele>
        <time>2022-06-08T14:28:40Z</time>
      </trkpt>
      <trkpt lat="43.62271" lon="1.35136">
        <ele>132.8</ele>
        <time>2022-06-08T14:28:42Z</time>
      </trkpt>
      <trkpt lat="43.62269" lon="1.35151">
        <ele>133</ele>
        <time>2022-06-08T14:28:47Z</time>
      </trkpt>
      <trkpt lat="43.6227" lon="1.35154">
        <ele>133.2</ele>
        <time>2022-06-08T14:28:51Z</time>
      </trkpt>
      <trkpt lat="43.62273" lon="1.35144">
        <ele>132.8</ele>
        <time>2022-06-08T14:30:12Z</time>
      </trkpt>
      <trkpt lat="43.62271" lon="1.35137">
        <ele>132.8</ele>
        <time>2022-06-08T14:30:14Z</time>
      </trkpt>
      <trkpt lat="43.62268" lon="1.35104">
        <ele>133.2</ele>
        <time>2022-06-08T14:30:22Z</time>
      </trkpt>
      <trkpt lat="43.62264" lon="1.3507">
        <ele>133.4</ele>
        <time>2022-06-08T14:30:29Z</time>
      </trkpt>
      <trkpt lat="43.62264" lon="1.35041">
        <ele>133.4</ele>
        <time>2022-06-08T14:30:34Z</time>
      </trkpt>
      <trkpt lat="43.62263" lon="1.35012">
        <ele>133.4</ele>
        <time>2022-06-08T14:30:39Z</time>
      </trkpt>
      <trkpt lat="43.62262" lon="1.35001">
        <ele>133.6</ele>
        <time>2022-06-08T14:30:41Z</time>
      </trkpt>
      <trkpt lat="43.6226" lon="1.34943">
        <ele>133.6</ele>
        <time>2022-06-08T14:30:50Z</time>
      </trkpt>
      <trkpt lat="43.62258" lon="1.3488">
        <ele>134</ele>
        <time>2022-06-08T14:31:00Z</time>
      </trkpt>
      <trkpt lat="43.6226" lon="1.34872">
        <ele>134</ele>
        <time>2022-06-08T14:31:04Z</time>
      </trkpt>
      <trkpt lat="43.62272" lon="1.34861">
        <ele>134.2</ele>
        <time>2022-06-08T14:31:09Z</time>
      </trkpt>
      <trkpt lat="43.62294" lon="1.34839">
        <ele>134.4</ele>
        <time>2022-06-08T14:31:15Z</time>
      </trkpt>
      <trkpt lat="43.62301" lon="1.34831">
        <ele>134.6</ele>
        <time>2022-06-08T14:31:17Z</time>
      </trkpt>
      <trkpt lat="43.62319" lon="1.34815">
        <ele>134.8</ele>
        <time>2022-06-08T14:31:21Z</time>
      </trkpt>
      <trkpt lat="43.62341" lon="1.34796">
        <ele>135.4</ele>
        <time>2022-06-08T14:31:26Z</time>
      </trkpt>
      <trkpt lat="43.62346" lon="1.34793">
        <ele>135.6</ele>
        <time>2022-06-08T14:31:27Z</time>
      </trkpt>
      <trkpt lat="43.62351" lon="1.34791">
        <ele>135.6</ele>
        <time>2022-06-08T14:31:28Z</time>
      </trkpt>
      <trkpt lat="43.62376" lon="1.34785">
        <ele>136</ele>
        <time>2022-06-08T14:31:33Z</time>
      </trkpt>
      <trkpt lat="43.62424" lon="1.34784">
        <ele>136.6</ele>
        <time>2022-06-08T14:31:42Z</time>
      </trkpt>
      <trkpt lat="43.62444" lon="1.34781">
        <ele>136.4</ele>
        <time>2022-06-08T14:31:46Z</time>
      </trkpt>
      <trkpt lat="43.62457" lon="1.34775">
        <ele>136.2</ele>
        <time>2022-06-08T14:31:48Z</time>
      </trkpt>
      <trkpt lat="43.62467" lon="1.34773">
        <ele>136.2</ele>
        <time>2022-06-08T14:31:50Z</time>
      </trkpt>
      <trkpt lat="43.62478" lon="1.34774">
        <ele>135.8</ele>
        <time>2022-06-08T14:31:52Z</time>
      </trkpt>
      <trkpt lat="43.62484" lon="1.34774">
        <ele>135.6</ele>
        <time>2022-06-08T14:31:53Z</time>
      </trkpt>
      <trkpt lat="43.62503" lon="1.34779">
        <ele>135.2</ele>
        <time>2022-06-08T14:31:56Z</time>
      </trkpt>
      <trkpt lat="43.62515" lon="1.34784">
        <ele>135.2</ele>
        <time>2022-06-08T14:31:58Z</time>
      </trkpt>
      <trkpt lat="43.62524" lon="1.34785">
        <ele>135</ele>
        <time>2022-06-08T14:32:00Z</time>
      </trkpt>
      <trkpt lat="43.62528" lon="1.34778">
        <ele>135</ele>
        <time>2022-06-08T14:32:01Z</time>
      </trkpt>
      <trkpt lat="43.62531" lon="1.34773">
        <ele>135</ele>
        <time>2022-06-08T14:32:02Z</time>
      </trkpt>
      <trkpt lat="43.62533" lon="1.34758">
        <ele>134.8</ele>
        <time>2022-06-08T14:32:04Z</time>
      </trkpt>
      <trkpt lat="43.62534" lon="1.3474">
        <ele>134.6</ele>
        <time>2022-06-08T14:32:08Z</time>
      </trkpt>
      <trkpt lat="43.62534" lon="1.34739">
        <ele>134.6</ele>
        <time>2022-06-08T14:32:10Z</time>
      </trkpt>
      <trkpt lat="43.62534" lon="1.34734">
        <ele>134.4</ele>
        <time>2022-06-08T14:32:19Z</time>
      </trkpt>
      <trkpt lat="43.62536" lon="1.3472">
        <ele>134.2</ele>
        <time>2022-06-08T14:32:23Z</time>
      </trkpt>
      <trkpt lat="43.62544" lon="1.34689">
        <ele>134.4</ele>
        <time>2022-06-08T14:32:29Z</time>
      </trkpt>
      <trkpt lat="43.6255" lon="1.34661">
        <ele>134.8</ele>
        <time>2022-06-08T14:32:34Z</time>
      </trkpt>
      <trkpt lat="43.62553" lon="1.34658">
        <ele>135</ele>
        <time>2022-06-08T14:32:35Z</time>
      </trkpt>
      <trkpt lat="43.62567" lon="1.3466">
        <ele>135</ele>
        <time>2022-06-08T14:32:38Z</time>
      </trkpt>
      <trkpt lat="43.62572" lon="1.3466">
        <ele>135</ele>
        <time>2022-06-08T14:32:39Z</time>
      </trkpt>
      <trkpt lat="43.62622" lon="1.34659">
        <ele>135</ele>
        <time>2022-06-08T14:32:47Z</time>
      </trkpt>
      <trkpt lat="43.62679" lon="1.34656">
        <ele>135.2</ele>
        <time>2022-06-08T14:32:56Z</time>
      </trkpt>
      <trkpt lat="43.62685" lon="1.34655">
        <ele>135.2</ele>
        <time>2022-06-08T14:32:57Z</time>
      </trkpt>
      <trkpt lat="43.62733" lon="1.34653">
        <ele>135.2</ele>
        <time>2022-06-08T14:33:05Z</time>
      </trkpt>
      <trkpt lat="43.62783" lon="1.3465">
        <ele>135</ele>
        <time>2022-06-08T14:33:13Z</time>
      </trkpt>
      <trkpt lat="43.62843" lon="1.34647">
        <ele>134.8</ele>
        <time>2022-06-08T14:33:22Z</time>
      </trkpt>
      <trkpt lat="43.62862" lon="1.34645">
        <ele>134.6</ele>
        <time>2022-06-08T14:33:25Z</time>
      </trkpt>
      <trkpt lat="43.62913" lon="1.34636">
        <ele>134.4</ele>
        <time>2022-06-08T14:33:33Z</time>
      </trkpt>
      <trkpt lat="43.62942" lon="1.34622">
        <ele>134.2</ele>
        <time>2022-06-08T14:33:38Z</time>
      </trkpt>
      <trkpt lat="43.62952" lon="1.34614">
        <ele>134.2</ele>
        <time>2022-06-08T14:33:40Z</time>
      </trkpt>
      <trkpt lat="43.62957" lon="1.3461">
        <ele>134.4</ele>
        <time>2022-06-08T14:33:41Z</time>
      </trkpt>
      <trkpt lat="43.62965" lon="1.34607">
        <ele>134.4</ele>
        <time>2022-06-08T14:33:43Z</time>
      </trkpt>
      <trkpt lat="43.62969" lon="1.34606">
        <ele>134.4</ele>
        <time>2022-06-08T14:33:44Z</time>
      </trkpt>
      <trkpt lat="43.62975" lon="1.34605">
        <ele>134</ele>
        <time>2022-06-08T14:33:46Z</time>
      </trkpt>
      <trkpt lat="43.62977" lon="1.34601">
        <ele>134</ele>
        <time>2022-06-08T14:33:47Z</time>
      </trkpt>
      <trkpt lat="43.62978" lon="1.34597">
        <ele>134</ele>
        <time>2022-06-08T14:33:48Z</time>
      </trkpt>
      <trkpt lat="43.62978" lon="1.34581">
        <ele>134</ele>
        <time>2022-06-08T14:33:51Z</time>
      </trkpt>
      <trkpt lat="43.6298" lon="1.34568">
        <ele>133.8</ele>
        <time>2022-06-08T14:33:53Z</time>
      </trkpt>
      <trkpt lat="43.62981" lon="1.34539">
        <ele>134</ele>
        <time>2022-06-08T14:33:57Z</time>
      </trkpt>
      <trkpt lat="43.62985" lon="1.34495">
        <ele>134</ele>
        <time>2022-06-08T14:34:03Z</time>
      </trkpt>
      <trkpt lat="43.62988" lon="1.34441">
        <ele>134.6</ele>
        <time>2022-06-08T14:34:10Z</time>
      </trkpt>
      <trkpt lat="43.6299" lon="1.34418">
        <ele>134.6</ele>
        <time>2022-06-08T14:34:13Z</time>
      </trkpt>
      <trkpt lat="43.62995" lon="1.34404">
        <ele>134.8</ele>
        <time>2022-06-08T14:34:15Z</time>
      </trkpt>
      <trkpt lat="43.62999" lon="1.34398">
        <ele>134.8</ele>
        <time>2022-06-08T14:34:16Z</time>
      </trkpt>
      <trkpt lat="43.63006" lon="1.34389">
        <ele>134.8</ele>
        <time>2022-06-08T14:34:18Z</time>
      </trkpt>
      <trkpt lat="43.63017" lon="1.34382">
        <ele>135.2</ele>
        <time>2022-06-08T14:34:20Z</time>
      </trkpt>
      <trkpt lat="43.63021" lon="1.3438">
        <ele>135.4</ele>
        <time>2022-06-08T14:34:21Z</time>
      </trkpt>
      <trkpt lat="43.63026" lon="1.34379">
        <ele>135.4</ele>
        <time>2022-06-08T14:34:22Z</time>
      </trkpt>
      <trkpt lat="43.63037" lon="1.34379">
        <ele>135.4</ele>
        <time>2022-06-08T14:34:24Z</time>
      </trkpt>
      <trkpt lat="43.63091" lon="1.34381">
        <ele>136.6</ele>
        <time>2022-06-08T14:34:33Z</time>
      </trkpt>
      <trkpt lat="43.63109" lon="1.34382">
        <ele>136.8</ele>
        <time>2022-06-08T14:34:36Z</time>
      </trkpt>
      <trkpt lat="43.63165" lon="1.34385">
        <ele>137</ele>
        <time>2022-06-08T14:34:45Z</time>
      </trkpt>
      <trkpt lat="43.63171" lon="1.34386">
        <ele>137</ele>
        <time>2022-06-08T14:34:46Z</time>
      </trkpt>
      <trkpt lat="43.63228" lon="1.34391">
        <ele>137.6</ele>
        <time>2022-06-08T14:34:55Z</time>
      </trkpt>
      <trkpt lat="43.63234" lon="1.34391">
        <ele>137.6</ele>
        <time>2022-06-08T14:34:56Z</time>
      </trkpt>
      <trkpt lat="43.63259" lon="1.34391">
        <ele>137.6</ele>
        <time>2022-06-08T14:35:00Z</time>
      </trkpt>
      <trkpt lat="43.63278" lon="1.34392">
        <ele>137.8</ele>
        <time>2022-06-08T14:35:03Z</time>
      </trkpt>
      <trkpt lat="43.63337" lon="1.34398">
        <ele>138</ele>
        <time>2022-06-08T14:35:12Z</time>
      </trkpt>
      <trkpt lat="43.63344" lon="1.34399">
        <ele>138</ele>
        <time>2022-06-08T14:35:13Z</time>
      </trkpt>
      <trkpt lat="43.6339" lon="1.34416">
        <ele>138</ele>
        <time>2022-06-08T14:35:20Z</time>
      </trkpt>
      <trkpt lat="43.63423" lon="1.34431">
        <ele>137.8</ele>
        <time>2022-06-08T14:35:25Z</time>
      </trkpt>
      <trkpt lat="43.63431" lon="1.34433">
        <ele>137.6</ele>
        <time>2022-06-08T14:35:26Z</time>
      </trkpt>
      <trkpt lat="43.63437" lon="1.34437">
        <ele>137.4</ele>
        <time>2022-06-08T14:35:27Z</time>
      </trkpt>
      <trkpt lat="43.63463" lon="1.34453">
        <ele>137.2</ele>
        <time>2022-06-08T14:35:31Z</time>
      </trkpt>
      <trkpt lat="43.63468" lon="1.34459">
        <ele>137</ele>
        <time>2022-06-08T14:35:32Z</time>
      </trkpt>
      <trkpt lat="43.63475" lon="1.34474">
        <ele>136.8</ele>
        <time>2022-06-08T14:35:34Z</time>
      </trkpt>
      <trkpt lat="43.63476" lon="1.34495">
        <ele>136.6</ele>
        <time>2022-06-08T14:35:36Z</time>
      </trkpt>
      <trkpt lat="43.63474" lon="1.34504">
        <ele>136.6</ele>
        <time>2022-06-08T14:35:37Z</time>
      </trkpt>
      <trkpt lat="43.63469" lon="1.34523">
        <ele>136.4</ele>
        <time>2022-06-08T14:35:39Z</time>
      </trkpt>
      <trkpt lat="43.6346" lon="1.3454">
        <ele>135.8</ele>
        <time>2022-06-08T14:35:41Z</time>
      </trkpt>
      <trkpt lat="43.63447" lon="1.34564">
        <ele>135.4</ele>
        <time>2022-06-08T14:35:44Z</time>
      </trkpt>
      <trkpt lat="43.63445" lon="1.34573">
        <ele>135.2</ele>
        <time>2022-06-08T14:35:45Z</time>
      </trkpt>
      <trkpt lat="43.63444" lon="1.34583">
        <ele>135</ele>
        <time>2022-06-08T14:35:46Z</time>
      </trkpt>
      <trkpt lat="43.63448" lon="1.34603">
        <ele>134.8</ele>
        <time>2022-06-08T14:35:48Z</time>
      </trkpt>
      <trkpt lat="43.63458" lon="1.34618">
        <ele>134.8</ele>
        <time>2022-06-08T14:35:50Z</time>
      </trkpt>
      <trkpt lat="43.63463" lon="1.34622">
        <ele>134.8</ele>
        <time>2022-06-08T14:35:51Z</time>
      </trkpt>
      <trkpt lat="43.63469" lon="1.34625">
        <ele>134.8</ele>
        <time>2022-06-08T14:35:52Z</time>
      </trkpt>
      <trkpt lat="43.63481" lon="1.34626">
        <ele>134.6</ele>
        <time>2022-06-08T14:35:54Z</time>
      </trkpt>
      <trkpt lat="43.63517" lon="1.34624">
        <ele>134.6</ele>
        <time>2022-06-08T14:35:59Z</time>
      </trkpt>
      <trkpt lat="43.6357" lon="1.3462">
        <ele>134.4</ele>
        <time>2022-06-08T14:36:07Z</time>
      </trkpt>
      <trkpt lat="43.63589" lon="1.3462">
        <ele>134.2</ele>
        <time>2022-06-08T14:36:10Z</time>
      </trkpt>
      <trkpt lat="43.63644" lon="1.3462">
        <ele>133.8</ele>
        <time>2022-06-08T14:36:18Z</time>
      </trkpt>
      <trkpt lat="43.63664" lon="1.34621">
        <ele>133.6</ele>
        <time>2022-06-08T14:36:21Z</time>
      </trkpt>
      <trkpt lat="43.63718" lon="1.34623">
        <ele>133.4</ele>
        <time>2022-06-08T14:36:29Z</time>
      </trkpt>
      <trkpt lat="43.63745" lon="1.34624">
        <ele>133.8</ele>
        <time>2022-06-08T14:36:33Z</time>
      </trkpt>
      <trkpt lat="43.63772" lon="1.34624">
        <ele>133.8</ele>
        <time>2022-06-08T14:36:37Z</time>
      </trkpt>
      <trkpt lat="43.63792" lon="1.34621">
        <ele>133.8</ele>
        <time>2022-06-08T14:36:40Z</time>
      </trkpt>
      <trkpt lat="43.63819" lon="1.34614">
        <ele>133.4</ele>
        <time>2022-06-08T14:36:44Z</time>
      </trkpt>
      <trkpt lat="43.63844" lon="1.34604">
        <ele>133.2</ele>
        <time>2022-06-08T14:36:48Z</time>
      </trkpt>
      <trkpt lat="43.63897" lon="1.34575">
        <ele>133.2</ele>
        <time>2022-06-08T14:36:57Z</time>
      </trkpt>
      <trkpt lat="43.63938" lon="1.34541">
        <ele>133.4</ele>
        <time>2022-06-08T14:37:05Z</time>
      </trkpt>
      <trkpt lat="43.63975" lon="1.34503">
        <ele>134.2</ele>
        <time>2022-06-08T14:37:13Z</time>
      </trkpt>
      <trkpt lat="43.63992" lon="1.34482">
        <ele>134.4</ele>
        <time>2022-06-08T14:37:17Z</time>
      </trkpt>
      <trkpt lat="43.64025" lon="1.34442">
        <ele>135.2</ele>
        <time>2022-06-08T14:37:25Z</time>
      </trkpt>
      <trkpt lat="43.6405" lon="1.34413">
        <ele>135.4</ele>
        <time>2022-06-08T14:37:32Z</time>
      </trkpt>
      <trkpt lat="43.64064" lon="1.34389">
        <ele>135.4</ele>
        <time>2022-06-08T14:37:38Z</time>
      </trkpt>
      <trkpt lat="43.64085" lon="1.34367">
        <ele>135.4</ele>
        <time>2022-06-08T14:37:44Z</time>
      </trkpt>
      <trkpt lat="43.64092" lon="1.34357">
        <ele>135.4</ele>
        <time>2022-06-08T14:37:46Z</time>
      </trkpt>
      <trkpt lat="43.64104" lon="1.34342">
        <ele>135.4</ele>
        <time>2022-06-08T14:37:49Z</time>
      </trkpt>
      <trkpt lat="43.64117" lon="1.34327">
        <ele>135.6</ele>
        <time>2022-06-08T14:37:52Z</time>
      </trkpt>
      <trkpt lat="43.64143" lon="1.34297">
        <ele>136</ele>
        <time>2022-06-08T14:37:58Z</time>
      </trkpt>
      <trkpt lat="43.64178" lon="1.34257">
        <ele>136.6</ele>
        <time>2022-06-08T14:38:06Z</time>
      </trkpt>
      <trkpt lat="43.64188" lon="1.34246">
        <ele>136.8</ele>
        <time>2022-06-08T14:38:08Z</time>
      </trkpt>
      <trkpt lat="43.64227" lon="1.34194">
        <ele>137</ele>
        <time>2022-06-08T14:38:17Z</time>
      </trkpt>
      <trkpt lat="43.6423" lon="1.34187">
        <ele>137</ele>
        <time>2022-06-08T14:38:18Z</time>
      </trkpt>
      <trkpt lat="43.64255" lon="1.34138">
        <ele>137.2</ele>
        <time>2022-06-08T14:38:25Z</time>
      </trkpt>
      <trkpt lat="43.64266" lon="1.34117">
        <ele>137.2</ele>
        <time>2022-06-08T14:38:28Z</time>
      </trkpt>
      <trkpt lat="43.643" lon="1.34049">
        <ele>137.4</ele>
        <time>2022-06-08T14:38:37Z</time>
      </trkpt>
      <trkpt lat="43.64303" lon="1.34042">
        <ele>137.4</ele>
        <time>2022-06-08T14:38:38Z</time>
      </trkpt>
      <trkpt lat="43.64314" lon="1.34019">
        <ele>137.4</ele>
        <time>2022-06-08T14:38:41Z</time>
      </trkpt>
      <trkpt lat="43.64321" lon="1.34004">
        <ele>137.4</ele>
        <time>2022-06-08T14:38:43Z</time>
      </trkpt>
      <trkpt lat="43.64325" lon="1.33996">
        <ele>137.4</ele>
        <time>2022-06-08T14:38:44Z</time>
      </trkpt>
      <trkpt lat="43.6436" lon="1.33929">
        <ele>137.4</ele>
        <time>2022-06-08T14:38:53Z</time>
      </trkpt>
      <trkpt lat="43.64364" lon="1.33921">
        <ele>137.4</ele>
        <time>2022-06-08T14:38:54Z</time>
      </trkpt>
      <trkpt lat="43.64392" lon="1.3387">
        <ele>137.4</ele>
        <time>2022-06-08T14:39:01Z</time>
      </trkpt>
      <trkpt lat="43.64428" lon="1.33803">
        <ele>137.6</ele>
        <time>2022-06-08T14:39:10Z</time>
      </trkpt>
      <trkpt lat="43.64432" lon="1.33796">
        <ele>137.8</ele>
        <time>2022-06-08T14:39:11Z</time>
      </trkpt>
      <trkpt lat="43.64441" lon="1.33782">
        <ele>137.8</ele>
        <time>2022-06-08T14:39:13Z</time>
      </trkpt>
      <trkpt lat="43.64459" lon="1.33766">
        <ele>137.8</ele>
        <time>2022-06-08T14:39:16Z</time>
      </trkpt>
      <trkpt lat="43.64503" lon="1.3374">
        <ele>137.2</ele>
        <time>2022-06-08T14:39:23Z</time>
      </trkpt>
      <trkpt lat="43.64535" lon="1.33722">
        <ele>137</ele>
        <time>2022-06-08T14:39:28Z</time>
      </trkpt>
      <trkpt lat="43.64581" lon="1.33694">
        <ele>136.8</ele>
        <time>2022-06-08T14:39:35Z</time>
      </trkpt>
      <trkpt lat="43.64588" lon="1.33691">
        <ele>136.6</ele>
        <time>2022-06-08T14:39:36Z</time>
      </trkpt>
      <trkpt lat="43.64628" lon="1.33668">
        <ele>136.4</ele>
        <time>2022-06-08T14:39:42Z</time>
      </trkpt>
      <trkpt lat="43.64664" lon="1.33644">
        <ele>135.8</ele>
        <time>2022-06-08T14:39:48Z</time>
      </trkpt>
      <trkpt lat="43.64677" lon="1.33646">
        <ele>135.8</ele>
        <time>2022-06-08T14:39:51Z</time>
      </trkpt>
      <trkpt lat="43.64681" lon="1.33647">
        <ele>135.4</ele>
        <time>2022-06-08T14:39:52Z</time>
      </trkpt>
      <trkpt lat="43.64686" lon="1.33646">
        <ele>135.4</ele>
        <time>2022-06-08T14:39:53Z</time>
      </trkpt>
      <trkpt lat="43.6469" lon="1.33645">
        <ele>135.4</ele>
        <time>2022-06-08T14:39:54Z</time>
      </trkpt>
      <trkpt lat="43.64696" lon="1.33645">
        <ele>135.4</ele>
        <time>2022-06-08T14:39:55Z</time>
      </trkpt>
      <trkpt lat="43.64708" lon="1.33649">
        <ele>135.2</ele>
        <time>2022-06-08T14:39:57Z</time>
      </trkpt>
      <trkpt lat="43.64738" lon="1.33674">
        <ele>134.6</ele>
        <time>2022-06-08T14:40:02Z</time>
      </trkpt>
      <trkpt lat="43.64758" lon="1.3369">
        <ele>134</ele>
        <time>2022-06-08T14:40:05Z</time>
      </trkpt>
      <trkpt lat="43.64771" lon="1.33702">
        <ele>134</ele>
        <time>2022-06-08T14:40:07Z</time>
      </trkpt>
      <trkpt lat="43.64792" lon="1.33721">
        <ele>133.4</ele>
        <time>2022-06-08T14:40:10Z</time>
      </trkpt>
      <trkpt lat="43.64827" lon="1.33751">
        <ele>132.2</ele>
        <time>2022-06-08T14:40:15Z</time>
      </trkpt>
      <trkpt lat="43.6487" lon="1.33788">
        <ele>131</ele>
        <time>2022-06-08T14:40:21Z</time>
      </trkpt>
      <trkpt lat="43.64885" lon="1.338">
        <ele>130.8</ele>
        <time>2022-06-08T14:40:23Z</time>
      </trkpt>
      <trkpt lat="43.64933" lon="1.33841">
        <ele>130.2</ele>
        <time>2022-06-08T14:40:30Z</time>
      </trkpt>
      <trkpt lat="43.6496" lon="1.33864">
        <ele>130.2</ele>
        <time>2022-06-08T14:40:34Z</time>
      </trkpt>
      <trkpt lat="43.65011" lon="1.33908">
        <ele>130.4</ele>
        <time>2022-06-08T14:40:42Z</time>
      </trkpt>
      <trkpt lat="43.65018" lon="1.33914">
        <ele>130.4</ele>
        <time>2022-06-08T14:40:43Z</time>
      </trkpt>
      <trkpt lat="43.65049" lon="1.3394">
        <ele>130.6</ele>
        <time>2022-06-08T14:40:48Z</time>
      </trkpt>
      <trkpt lat="43.65059" lon="1.33953">
        <ele>130.6</ele>
        <time>2022-06-08T14:40:50Z</time>
      </trkpt>
      <trkpt lat="43.65068" lon="1.33969">
        <ele>130.8</ele>
        <time>2022-06-08T14:40:52Z</time>
      </trkpt>
      <trkpt lat="43.65072" lon="1.33986">
        <ele>130.6</ele>
        <time>2022-06-08T14:40:54Z</time>
      </trkpt>
      <trkpt lat="43.65075" lon="1.34005">
        <ele>130.6</ele>
        <time>2022-06-08T14:40:56Z</time>
      </trkpt>
      <trkpt lat="43.65078" lon="1.34023">
        <ele>130.6</ele>
        <time>2022-06-08T14:40:58Z</time>
      </trkpt>
      <trkpt lat="43.65075" lon="1.34041">
        <ele>130.8</ele>
        <time>2022-06-08T14:41:00Z</time>
      </trkpt>
      <trkpt lat="43.65072" lon="1.34047">
        <ele>130.8</ele>
        <time>2022-06-08T14:41:01Z</time>
      </trkpt>
      <trkpt lat="43.65039" lon="1.34113">
        <ele>130.8</ele>
        <time>2022-06-08T14:41:09Z</time>
      </trkpt>
      <trkpt lat="43.65011" lon="1.34158">
        <ele>130.8</ele>
        <time>2022-06-08T14:41:15Z</time>
      </trkpt>
      <trkpt lat="43.64976" lon="1.34213">
        <ele>131</ele>
        <time>2022-06-08T14:41:22Z</time>
      </trkpt>
      <trkpt lat="43.64941" lon="1.34271">
        <ele>131.2</ele>
        <time>2022-06-08T14:41:29Z</time>
      </trkpt>
      <trkpt lat="43.64928" lon="1.34297">
        <ele>131.2</ele>
        <time>2022-06-08T14:41:32Z</time>
      </trkpt>
      <trkpt lat="43.64891" lon="1.34362">
        <ele>131.2</ele>
        <time>2022-06-08T14:41:40Z</time>
      </trkpt>
      <trkpt lat="43.64886" lon="1.3437">
        <ele>131.2</ele>
        <time>2022-06-08T14:41:41Z</time>
      </trkpt>
      <trkpt lat="43.64871" lon="1.34394">
        <ele>131.2</ele>
        <time>2022-06-08T14:41:44Z</time>
      </trkpt>
      <trkpt lat="43.64861" lon="1.34408">
        <ele>131.2</ele>
        <time>2022-06-08T14:41:46Z</time>
      </trkpt>
      <trkpt lat="43.64853" lon="1.34423">
        <ele>131.2</ele>
        <time>2022-06-08T14:41:48Z</time>
      </trkpt>
      <trkpt lat="43.64847" lon="1.34445">
        <ele>131.2</ele>
        <time>2022-06-08T14:41:50Z</time>
      </trkpt>
      <trkpt lat="43.64843" lon="1.34454">
        <ele>131.2</ele>
        <time>2022-06-08T14:41:51Z</time>
      </trkpt>
      <trkpt lat="43.64826" lon="1.34487">
        <ele>131.4</ele>
        <time>2022-06-08T14:41:55Z</time>
      </trkpt>
      <trkpt lat="43.64792" lon="1.34557">
        <ele>131.2</ele>
        <time>2022-06-08T14:42:03Z</time>
      </trkpt>
      <trkpt lat="43.64779" lon="1.34583">
        <ele>131.2</ele>
        <time>2022-06-08T14:42:06Z</time>
      </trkpt>
      <trkpt lat="43.64748" lon="1.34645">
        <ele>131.4</ele>
        <time>2022-06-08T14:42:13Z</time>
      </trkpt>
      <trkpt lat="43.64733" lon="1.34671">
        <ele>131.4</ele>
        <time>2022-06-08T14:42:16Z</time>
      </trkpt>
      <trkpt lat="43.64699" lon="1.34715">
        <ele>131</ele>
        <time>2022-06-08T14:42:22Z</time>
      </trkpt>
      <trkpt lat="43.6468" lon="1.34762">
        <ele>130.6</ele>
        <time>2022-06-08T14:42:27Z</time>
      </trkpt>
      <trkpt lat="43.64659" lon="1.34816">
        <ele>130.6</ele>
        <time>2022-06-08T14:42:33Z</time>
      </trkpt>
      <trkpt lat="43.64639" lon="1.34883">
        <ele>130.8</ele>
        <time>2022-06-08T14:42:40Z</time>
      </trkpt>
      <trkpt lat="43.64607" lon="1.3495">
        <ele>131</ele>
        <time>2022-06-08T14:42:48Z</time>
      </trkpt>
      <trkpt lat="43.64603" lon="1.34958">
        <ele>131</ele>
        <time>2022-06-08T14:42:49Z</time>
      </trkpt>
      <trkpt lat="43.6457" lon="1.35025">
        <ele>131</ele>
        <time>2022-06-08T14:42:57Z</time>
      </trkpt>
      <trkpt lat="43.6456" lon="1.35056">
        <ele>131</ele>
        <time>2022-06-08T14:43:01Z</time>
      </trkpt>
      <trkpt lat="43.6456" lon="1.35061">
        <ele>131</ele>
        <time>2022-06-08T14:43:02Z</time>
      </trkpt>
      <trkpt lat="43.6456" lon="1.35065">
        <ele>131</ele>
        <time>2022-06-08T14:43:03Z</time>
      </trkpt>
      <trkpt lat="43.64562" lon="1.35066">
        <ele>131</ele>
        <time>2022-06-08T14:43:04Z</time>
      </trkpt>
      <trkpt lat="43.64572" lon="1.35066">
        <ele>130.8</ele>
        <time>2022-06-08T14:43:09Z</time>
      </trkpt>
      <trkpt lat="43.64579" lon="1.35067">
        <ele>130.6</ele>
        <time>2022-06-08T14:43:11Z</time>
      </trkpt>
      <trkpt lat="43.64583" lon="1.3507">
        <ele>130.6</ele>
        <time>2022-06-08T14:43:12Z</time>
      </trkpt>
      <trkpt lat="43.6459" lon="1.35078">
        <ele>130.6</ele>
        <time>2022-06-08T14:43:14Z</time>
      </trkpt>
      <trkpt lat="43.64596" lon="1.35091">
        <ele>130.4</ele>
        <time>2022-06-08T14:43:16Z</time>
      </trkpt>
      <trkpt lat="43.64596" lon="1.35104">
        <ele>130.4</ele>
        <time>2022-06-08T14:43:18Z</time>
      </trkpt>
      <trkpt lat="43.64594" lon="1.35111">
        <ele>130.2</ele>
        <time>2022-06-08T14:43:19Z</time>
      </trkpt>
      <trkpt lat="43.64591" lon="1.35118">
        <ele>130.2</ele>
        <time>2022-06-08T14:43:20Z</time>
      </trkpt>
      <trkpt lat="43.64583" lon="1.35127">
        <ele>130.2</ele>
        <time>2022-06-08T14:43:22Z</time>
      </trkpt>
      <trkpt lat="43.64579" lon="1.35133">
        <ele>130.4</ele>
        <time>2022-06-08T14:43:23Z</time>
      </trkpt>
      <trkpt lat="43.64574" lon="1.35149">
        <ele>130.2</ele>
        <time>2022-06-08T14:43:25Z</time>
      </trkpt>
      <trkpt lat="43.64569" lon="1.35195">
        <ele>130.2</ele>
        <time>2022-06-08T14:43:30Z</time>
      </trkpt>
      <trkpt lat="43.64564" lon="1.35256">
        <ele>129.2</ele>
        <time>2022-06-08T14:43:35Z</time>
      </trkpt>
      <trkpt lat="43.64563" lon="1.35268">
        <ele>129</ele>
        <time>2022-06-08T14:43:36Z</time>
      </trkpt>
      <trkpt lat="43.64561" lon="1.35293">
        <ele>128.2</ele>
        <time>2022-06-08T14:43:38Z</time>
      </trkpt>
      <trkpt lat="43.64559" lon="1.35328">
        <ele>127</ele>
        <time>2022-06-08T14:43:41Z</time>
      </trkpt>
      <trkpt lat="43.64557" lon="1.3535">
        <ele>126.2</ele>
        <time>2022-06-08T14:43:43Z</time>
      </trkpt>
      <trkpt lat="43.64556" lon="1.3537">
        <ele>125.6</ele>
        <time>2022-06-08T14:43:45Z</time>
      </trkpt>
      <trkpt lat="43.64554" lon="1.35381">
        <ele>125.6</ele>
        <time>2022-06-08T14:43:46Z</time>
      </trkpt>
      <trkpt lat="43.64549" lon="1.35428">
        <ele>125</ele>
        <time>2022-06-08T14:43:50Z</time>
      </trkpt>
      <trkpt lat="43.64543" lon="1.35493">
        <ele>124.8</ele>
        <time>2022-06-08T14:43:55Z</time>
      </trkpt>
      <trkpt lat="43.64537" lon="1.35538">
        <ele>124.6</ele>
        <time>2022-06-08T14:43:59Z</time>
      </trkpt>
      <trkpt lat="43.64529" lon="1.35581">
        <ele>124.4</ele>
        <time>2022-06-08T14:44:03Z</time>
      </trkpt>
      <trkpt lat="43.64515" lon="1.35656">
        <ele>124.2</ele>
        <time>2022-06-08T14:44:10Z</time>
      </trkpt>
      <trkpt lat="43.64506" lon="1.35699">
        <ele>124.2</ele>
        <time>2022-06-08T14:44:14Z</time>
      </trkpt>
      <trkpt lat="43.64493" lon="1.35763">
        <ele>124.4</ele>
        <time>2022-06-08T14:44:20Z</time>
      </trkpt>
      <trkpt lat="43.64476" lon="1.35836">
        <ele>124.8</ele>
        <time>2022-06-08T14:44:27Z</time>
      </trkpt>
      <trkpt lat="43.64475" lon="1.35869">
        <ele>125</ele>
        <time>2022-06-08T14:44:31Z</time>
      </trkpt>
      <trkpt lat="43.6446" lon="1.35932">
        <ele>125.6</ele>
        <time>2022-06-08T14:44:38Z</time>
      </trkpt>
      <trkpt lat="43.64458" lon="1.35949">
        <ele>125.6</ele>
        <time>2022-06-08T14:44:40Z</time>
      </trkpt>
      <trkpt lat="43.6445" lon="1.35986">
        <ele>126.8</ele>
        <time>2022-06-08T14:44:45Z</time>
      </trkpt>
      <trkpt lat="43.64449" lon="1.35993">
        <ele>127.2</ele>
        <time>2022-06-08T14:44:46Z</time>
      </trkpt>
      <trkpt lat="43.64445" lon="1.36022">
        <ele>128.2</ele>
        <time>2022-06-08T14:44:50Z</time>
      </trkpt>
      <trkpt lat="43.64444" lon="1.36037">
        <ele>128.6</ele>
        <time>2022-06-08T14:44:52Z</time>
      </trkpt>
      <trkpt lat="43.64442" lon="1.36067">
        <ele>129.2</ele>
        <time>2022-06-08T14:44:56Z</time>
      </trkpt>
      <trkpt lat="43.64441" lon="1.36099">
        <ele>129.8</ele>
        <time>2022-06-08T14:45:00Z</time>
      </trkpt>
      <trkpt lat="43.64442" lon="1.36133">
        <ele>130.2</ele>
        <time>2022-06-08T14:45:04Z</time>
      </trkpt>
      <trkpt lat="43.64446" lon="1.36166">
        <ele>130.4</ele>
        <time>2022-06-08T14:45:08Z</time>
      </trkpt>
      <trkpt lat="43.64452" lon="1.3619">
        <ele>130.6</ele>
        <time>2022-06-08T14:45:11Z</time>
      </trkpt>
      <trkpt lat="43.64459" lon="1.36202">
        <ele>130.6</ele>
        <time>2022-06-08T14:45:13Z</time>
      </trkpt>
      <trkpt lat="43.64467" lon="1.36211">
        <ele>130.6</ele>
        <time>2022-06-08T14:45:15Z</time>
      </trkpt>
      <trkpt lat="43.64475" lon="1.36221">
        <ele>130.8</ele>
        <time>2022-06-08T14:45:17Z</time>
      </trkpt>
      <trkpt lat="43.64479" lon="1.36225">
        <ele>130.8</ele>
        <time>2022-06-08T14:45:18Z</time>
      </trkpt>
      <trkpt lat="43.64483" lon="1.3623">
        <ele>130.8</ele>
        <time>2022-06-08T14:45:19Z</time>
      </trkpt>
      <trkpt lat="43.64485" lon="1.36236">
        <ele>130.8</ele>
        <time>2022-06-08T14:45:21Z</time>
      </trkpt>
      <trkpt lat="43.64488" lon="1.36238">
        <ele>130.8</ele>
        <time>2022-06-08T14:45:23Z</time>
      </trkpt>
      <trkpt lat="43.64489" lon="1.36239">
        <ele>130.8</ele>
        <time>2022-06-08T14:45:24Z</time>
      </trkpt>
      <trkpt lat="43.6449" lon="1.36242">
        <ele>130.6</ele>
        <time>2022-06-08T14:45:28Z</time>
      </trkpt>
      <trkpt lat="43.6449" lon="1.36242">
        <ele>130.6</ele>
        <time>2022-06-08T14:45:29Z</time>
      </trkpt>
      <trkpt lat="43.64492" lon="1.36248">
        <ele>130</ele>
        <time>2022-06-08T14:45:57Z</time>
      </trkpt>
      <trkpt lat="43.64494" lon="1.36256">
        <ele>130</ele>
        <time>2022-06-08T14:45:59Z</time>
      </trkpt>
      <trkpt lat="43.64497" lon="1.36279">
        <ele>130</ele>
        <time>2022-06-08T14:46:03Z</time>
      </trkpt>
      <trkpt lat="43.64504" lon="1.3632">
        <ele>130</ele>
        <time>2022-06-08T14:46:08Z</time>
      </trkpt>
      <trkpt lat="43.64519" lon="1.36395">
        <ele>129.8</ele>
        <time>2022-06-08T14:46:16Z</time>
      </trkpt>
      <trkpt lat="43.64522" lon="1.36402">
        <ele>129.8</ele>
        <time>2022-06-08T14:46:17Z</time>
      </trkpt>
      <trkpt lat="43.64537" lon="1.36439">
        <ele>129.8</ele>
        <time>2022-06-08T14:46:21Z</time>
      </trkpt>
      <trkpt lat="43.6454" lon="1.36445">
        <ele>129.8</ele>
        <time>2022-06-08T14:46:22Z</time>
      </trkpt>
      <trkpt lat="43.64551" lon="1.36458">
        <ele>129.8</ele>
        <time>2022-06-08T14:46:24Z</time>
      </trkpt>
      <trkpt lat="43.64563" lon="1.36462">
        <ele>129.8</ele>
        <time>2022-06-08T14:46:26Z</time>
      </trkpt>
      <trkpt lat="43.64572" lon="1.36462">
        <ele>129.8</ele>
        <time>2022-06-08T14:46:27Z</time>
      </trkpt>
      <trkpt lat="43.64629" lon="1.36457">
        <ele>130.2</ele>
        <time>2022-06-08T14:46:35Z</time>
      </trkpt>
      <trkpt lat="43.64635" lon="1.36458">
        <ele>130</ele>
        <time>2022-06-08T14:46:36Z</time>
      </trkpt>
      <trkpt lat="43.64695" lon="1.36471">
        <ele>130</ele>
        <time>2022-06-08T14:46:44Z</time>
      </trkpt>
      <trkpt lat="43.64708" lon="1.36474">
        <ele>130</ele>
        <time>2022-06-08T14:46:46Z</time>
      </trkpt>
      <trkpt lat="43.64766" lon="1.36486">
        <ele>129.8</ele>
        <time>2022-06-08T14:46:54Z</time>
      </trkpt>
      <trkpt lat="43.64817" lon="1.3648">
        <ele>129.8</ele>
        <time>2022-06-08T14:47:01Z</time>
      </trkpt>
      <trkpt lat="43.64872" lon="1.36465">
        <ele>129.6</ele>
        <time>2022-06-08T14:47:09Z</time>
      </trkpt>
      <trkpt lat="43.64928" lon="1.36435">
        <ele>129.6</ele>
        <time>2022-06-08T14:47:17Z</time>
      </trkpt>
      <trkpt lat="43.64962" lon="1.36416">
        <ele>129.6</ele>
        <time>2022-06-08T14:47:22Z</time>
      </trkpt>
      <trkpt lat="43.64991" lon="1.36405">
        <ele>129.6</ele>
        <time>2022-06-08T14:47:26Z</time>
      </trkpt>
      <trkpt lat="43.65004" lon="1.36405">
        <ele>129.6</ele>
        <time>2022-06-08T14:47:28Z</time>
      </trkpt>
      <trkpt lat="43.65015" lon="1.36408">
        <ele>129.4</ele>
        <time>2022-06-08T14:47:30Z</time>
      </trkpt>
      <trkpt lat="43.65039" lon="1.36415">
        <ele>129.4</ele>
        <time>2022-06-08T14:47:34Z</time>
      </trkpt>
      <trkpt lat="43.65058" lon="1.36418">
        <ele>129.4</ele>
        <time>2022-06-08T14:47:37Z</time>
      </trkpt>
      <trkpt lat="43.65077" lon="1.36419">
        <ele>129.8</ele>
        <time>2022-06-08T14:47:40Z</time>
      </trkpt>
      <trkpt lat="43.65091" lon="1.36419">
        <ele>130</ele>
        <time>2022-06-08T14:47:42Z</time>
      </trkpt>
      <trkpt lat="43.65125" lon="1.36417">
        <ele>130.6</ele>
        <time>2022-06-08T14:47:47Z</time>
      </trkpt>
      <trkpt lat="43.65145" lon="1.36416">
        <ele>130.6</ele>
        <time>2022-06-08T14:47:50Z</time>
      </trkpt>
      <trkpt lat="43.65151" lon="1.36416">
        <ele>131</ele>
        <time>2022-06-08T14:47:51Z</time>
      </trkpt>
      <trkpt lat="43.65184" lon="1.36417">
        <ele>131.2</ele>
        <time>2022-06-08T14:47:56Z</time>
      </trkpt>
      <trkpt lat="43.65245" lon="1.36419">
        <ele>131.4</ele>
        <time>2022-06-08T14:48:05Z</time>
      </trkpt>
      <trkpt lat="43.65252" lon="1.36419">
        <ele>131.6</ele>
        <time>2022-06-08T14:48:06Z</time>
      </trkpt>
      <trkpt lat="43.65286" lon="1.36421">
        <ele>131.8</ele>
        <time>2022-06-08T14:48:11Z</time>
      </trkpt>
      <trkpt lat="43.65314" lon="1.36419">
        <ele>131.6</ele>
        <time>2022-06-08T14:48:15Z</time>
      </trkpt>
      <trkpt lat="43.65363" lon="1.36406">
        <ele>131.4</ele>
        <time>2022-06-08T14:48:22Z</time>
      </trkpt>
      <trkpt lat="43.65417" lon="1.3638">
        <ele>131.6</ele>
        <time>2022-06-08T14:48:30Z</time>
      </trkpt>
      <trkpt lat="43.6547" lon="1.36355">
        <ele>131.6</ele>
        <time>2022-06-08T14:48:38Z</time>
      </trkpt>
      <trkpt lat="43.65476" lon="1.36352">
        <ele>131.6</ele>
        <time>2022-06-08T14:48:39Z</time>
      </trkpt>
      <trkpt lat="43.65482" lon="1.36347">
        <ele>131.6</ele>
        <time>2022-06-08T14:48:40Z</time>
      </trkpt>
      <trkpt lat="43.65485" lon="1.36341">
        <ele>131.6</ele>
        <time>2022-06-08T14:48:41Z</time>
      </trkpt>
      <trkpt lat="43.65487" lon="1.36332">
        <ele>131.6</ele>
        <time>2022-06-08T14:48:42Z</time>
      </trkpt>
      <trkpt lat="43.65488" lon="1.3632">
        <ele>131.6</ele>
        <time>2022-06-08T14:48:43Z</time>
      </trkpt>
      <trkpt lat="43.65486" lon="1.36302">
        <ele>131.6</ele>
        <time>2022-06-08T14:48:45Z</time>
      </trkpt>
      <trkpt lat="43.65481" lon="1.36228">
        <ele>131</ele>
        <time>2022-06-08T14:48:52Z</time>
      </trkpt>
      <trkpt lat="43.65479" lon="1.36203">
        <ele>130.8</ele>
        <time>2022-06-08T14:48:54Z</time>
      </trkpt>
      <trkpt lat="43.65478" lon="1.36194">
        <ele>130.6</ele>
        <time>2022-06-08T14:48:55Z</time>
      </trkpt>
      <trkpt lat="43.65472" lon="1.36119">
        <ele>129.6</ele>
        <time>2022-06-08T14:49:02Z</time>
      </trkpt>
      <trkpt lat="43.65472" lon="1.3611">
        <ele>129.6</ele>
        <time>2022-06-08T14:49:03Z</time>
      </trkpt>
      <trkpt lat="43.65472" lon="1.36103">
        <ele>129.6</ele>
        <time>2022-06-08T14:49:04Z</time>
      </trkpt>
      <trkpt lat="43.65473" lon="1.36093">
        <ele>129.4</ele>
        <time>2022-06-08T14:49:06Z</time>
      </trkpt>
      <trkpt lat="43.65476" lon="1.36088">
        <ele>129.4</ele>
        <time>2022-06-08T14:49:07Z</time>
      </trkpt>
      <trkpt lat="43.65484" lon="1.36085">
        <ele>129.2</ele>
        <time>2022-06-08T14:49:09Z</time>
      </trkpt>
      <trkpt lat="43.65499" lon="1.3608">
        <ele>129.2</ele>
        <time>2022-06-08T14:49:12Z</time>
      </trkpt>
      <trkpt lat="43.65509" lon="1.36077">
        <ele>129</ele>
        <time>2022-06-08T14:49:14Z</time>
      </trkpt>
      <trkpt lat="43.65515" lon="1.36064">
        <ele>129</ele>
        <time>2022-06-08T14:49:16Z</time>
      </trkpt>
      <trkpt lat="43.65519" lon="1.36051">
        <ele>129</ele>
        <time>2022-06-08T14:49:18Z</time>
      </trkpt>
      <trkpt lat="43.65522" lon="1.36046">
        <ele>129</ele>
        <time>2022-06-08T14:49:19Z</time>
      </trkpt>
      <trkpt lat="43.65564" lon="1.36006">
        <ele>128.8</ele>
        <time>2022-06-08T14:49:27Z</time>
      </trkpt>
      <trkpt lat="43.65601" lon="1.35967">
        <ele>128.6</ele>
        <time>2022-06-08T14:49:34Z</time>
      </trkpt>
      <trkpt lat="43.65647" lon="1.35922">
        <ele>128.4</ele>
        <time>2022-06-08T14:49:42Z</time>
      </trkpt>
      <trkpt lat="43.65666" lon="1.35904">
        <ele>128.4</ele>
        <time>2022-06-08T14:49:45Z</time>
      </trkpt>
      <trkpt lat="43.65702" lon="1.35879">
        <ele>128.2</ele>
        <time>2022-06-08T14:49:51Z</time>
      </trkpt>
      <trkpt lat="43.65744" lon="1.3587">
        <ele>128.2</ele>
        <time>2022-06-08T14:49:57Z</time>
      </trkpt>
      <trkpt lat="43.65802" lon="1.35863">
        <ele>128.2</ele>
        <time>2022-06-08T14:50:05Z</time>
      </trkpt>
      <trkpt lat="43.65823" lon="1.35861">
        <ele>128.4</ele>
        <time>2022-06-08T14:50:08Z</time>
      </trkpt>
      <trkpt lat="43.65879" lon="1.35855">
        <ele>128.6</ele>
        <time>2022-06-08T14:50:16Z</time>
      </trkpt>
      <trkpt lat="43.65887" lon="1.35854">
        <ele>128.6</ele>
        <time>2022-06-08T14:50:17Z</time>
      </trkpt>
      <trkpt lat="43.65942" lon="1.35847">
        <ele>128.4</ele>
        <time>2022-06-08T14:50:25Z</time>
      </trkpt>
      <trkpt lat="43.65964" lon="1.35844">
        <ele>128.4</ele>
        <time>2022-06-08T14:50:28Z</time>
      </trkpt>
      <trkpt lat="43.6602" lon="1.35836">
        <ele>128.4</ele>
        <time>2022-06-08T14:50:36Z</time>
      </trkpt>
      <trkpt lat="43.66056" lon="1.35831">
        <ele>128.4</ele>
        <time>2022-06-08T14:50:41Z</time>
      </trkpt>
      <trkpt lat="43.6611" lon="1.35821">
        <ele>128.6</ele>
        <time>2022-06-08T14:50:49Z</time>
      </trkpt>
      <trkpt lat="43.6612" lon="1.35811">
        <ele>128.6</ele>
        <time>2022-06-08T14:50:51Z</time>
      </trkpt>
      <trkpt lat="43.66123" lon="1.35804">
        <ele>128.2</ele>
        <time>2022-06-08T14:50:52Z</time>
      </trkpt>
      <trkpt lat="43.66125" lon="1.35797">
        <ele>128.2</ele>
        <time>2022-06-08T14:50:53Z</time>
      </trkpt>
      <trkpt lat="43.66132" lon="1.35771">
        <ele>128.4</ele>
        <time>2022-06-08T14:50:56Z</time>
      </trkpt>
      <trkpt lat="43.66141" lon="1.35746">
        <ele>128.2</ele>
        <time>2022-06-08T14:50:59Z</time>
      </trkpt>
      <trkpt lat="43.66151" lon="1.35725">
        <ele>128.2</ele>
        <time>2022-06-08T14:51:02Z</time>
      </trkpt>
      <trkpt lat="43.6616" lon="1.35709">
        <ele>128.2</ele>
        <time>2022-06-08T14:51:04Z</time>
      </trkpt>
      <trkpt lat="43.66162" lon="1.35696">
        <ele>128.2</ele>
        <time>2022-06-08T14:51:06Z</time>
      </trkpt>
      <trkpt lat="43.6616" lon="1.35683">
        <ele>128.2</ele>
        <time>2022-06-08T14:51:08Z</time>
      </trkpt>
      <trkpt lat="43.66162" lon="1.35678">
        <ele>128.2</ele>
        <time>2022-06-08T14:51:09Z</time>
      </trkpt>
      <trkpt lat="43.66165" lon="1.35674">
        <ele>128.2</ele>
        <time>2022-06-08T14:51:10Z</time>
      </trkpt>
      <trkpt lat="43.6618" lon="1.35657">
        <ele>128.4</ele>
        <time>2022-06-08T14:51:14Z</time>
      </trkpt>
      <trkpt lat="43.6619" lon="1.3564">
        <ele>128.6</ele>
        <time>2022-06-08T14:51:17Z</time>
      </trkpt>
      <trkpt lat="43.66192" lon="1.35632">
        <ele>128.6</ele>
        <time>2022-06-08T14:51:18Z</time>
      </trkpt>
      <trkpt lat="43.66194" lon="1.35625">
        <ele>128.6</ele>
        <time>2022-06-08T14:51:19Z</time>
      </trkpt>
      <trkpt lat="43.66194" lon="1.356">
        <ele>128.6</ele>
        <time>2022-06-08T14:51:22Z</time>
      </trkpt>
      <trkpt lat="43.66183" lon="1.35566">
        <ele>128.6</ele>
        <time>2022-06-08T14:51:26Z</time>
      </trkpt>
      <trkpt lat="43.66157" lon="1.355">
        <ele>128.2</ele>
        <time>2022-06-08T14:51:34Z</time>
      </trkpt>
      <trkpt lat="43.66136" lon="1.35428">
        <ele>128.2</ele>
        <time>2022-06-08T14:51:42Z</time>
      </trkpt>
      <trkpt lat="43.66118" lon="1.35353">
        <ele>128.4</ele>
        <time>2022-06-08T14:51:50Z</time>
      </trkpt>
      <trkpt lat="43.66116" lon="1.35343">
        <ele>128.4</ele>
        <time>2022-06-08T14:51:51Z</time>
      </trkpt>
      <trkpt lat="43.66104" lon="1.35262">
        <ele>128.2</ele>
        <time>2022-06-08T14:51:59Z</time>
      </trkpt>
      <trkpt lat="43.66095" lon="1.35184">
        <ele>128.6</ele>
        <time>2022-06-08T14:52:07Z</time>
      </trkpt>
      <trkpt lat="43.66091" lon="1.35152">
        <ele>128.8</ele>
        <time>2022-06-08T14:52:10Z</time>
      </trkpt>
      <trkpt lat="43.66082" lon="1.35077">
        <ele>129</ele>
        <time>2022-06-08T14:52:18Z</time>
      </trkpt>
      <trkpt lat="43.6608" lon="1.35056">
        <ele>129</ele>
        <time>2022-06-08T14:52:20Z</time>
      </trkpt>
      <trkpt lat="43.6607" lon="1.34972">
        <ele>129.2</ele>
        <time>2022-06-08T14:52:29Z</time>
      </trkpt>
      <trkpt lat="43.66068" lon="1.34954">
        <ele>129.2</ele>
        <time>2022-06-08T14:52:31Z</time>
      </trkpt>
      <trkpt lat="43.66058" lon="1.34873">
        <ele>129.2</ele>
        <time>2022-06-08T14:52:40Z</time>
      </trkpt>
      <trkpt lat="43.66054" lon="1.34849">
        <ele>129.4</ele>
        <time>2022-06-08T14:52:43Z</time>
      </trkpt>
      <trkpt lat="43.66048" lon="1.34838">
        <ele>129.6</ele>
        <time>2022-06-08T14:52:45Z</time>
      </trkpt>
      <trkpt lat="43.66045" lon="1.34835">
        <ele>129.6</ele>
        <time>2022-06-08T14:52:46Z</time>
      </trkpt>
      <trkpt lat="43.66042" lon="1.34831">
        <ele>129.8</ele>
        <time>2022-06-08T14:52:47Z</time>
      </trkpt>
      <trkpt lat="43.66036" lon="1.3482">
        <ele>130</ele>
        <time>2022-06-08T14:52:49Z</time>
      </trkpt>
      <trkpt lat="43.66034" lon="1.34814">
        <ele>130</ele>
        <time>2022-06-08T14:52:50Z</time>
      </trkpt>
      <trkpt lat="43.66031" lon="1.34802">
        <ele>130.2</ele>
        <time>2022-06-08T14:52:52Z</time>
      </trkpt>
      <trkpt lat="43.66027" lon="1.34791">
        <ele>130.2</ele>
        <time>2022-06-08T14:52:54Z</time>
      </trkpt>
      <trkpt lat="43.66026" lon="1.34785">
        <ele>130.4</ele>
        <time>2022-06-08T14:52:55Z</time>
      </trkpt>
      <trkpt lat="43.66027" lon="1.3478">
        <ele>130.4</ele>
        <time>2022-06-08T14:52:56Z</time>
      </trkpt>
      <trkpt lat="43.66033" lon="1.34761">
        <ele>130.6</ele>
        <time>2022-06-08T14:52:59Z</time>
      </trkpt>
      <trkpt lat="43.6604" lon="1.34732">
        <ele>131</ele>
        <time>2022-06-08T14:53:03Z</time>
      </trkpt>
      <trkpt lat="43.6604" lon="1.34725">
        <ele>131</ele>
        <time>2022-06-08T14:53:04Z</time>
      </trkpt>
      <trkpt lat="43.66039" lon="1.34711">
        <ele>131.2</ele>
        <time>2022-06-08T14:53:06Z</time>
      </trkpt>
      <trkpt lat="43.66034" lon="1.34686">
        <ele>131.4</ele>
        <time>2022-06-08T14:53:09Z</time>
      </trkpt>
      <trkpt lat="43.66029" lon="1.34637">
        <ele>131.8</ele>
        <time>2022-06-08T14:53:15Z</time>
      </trkpt>
      <trkpt lat="43.6602" lon="1.34597">
        <ele>132.2</ele>
        <time>2022-06-08T14:53:20Z</time>
      </trkpt>
      <trkpt lat="43.66013" lon="1.34572">
        <ele>132.2</ele>
        <time>2022-06-08T14:53:23Z</time>
      </trkpt>
      <trkpt lat="43.65983" lon="1.34502">
        <ele>132.2</ele>
        <time>2022-06-08T14:53:32Z</time>
      </trkpt>
      <trkpt lat="43.65949" lon="1.34456">
        <ele>132.2</ele>
        <time>2022-06-08T14:53:39Z</time>
      </trkpt>
      <trkpt lat="43.65908" lon="1.34419">
        <ele>131.8</ele>
        <time>2022-06-08T14:53:46Z</time>
      </trkpt>
      <trkpt lat="43.65862" lon="1.34379">
        <ele>131.8</ele>
        <time>2022-06-08T14:53:53Z</time>
      </trkpt>
      <trkpt lat="43.65854" lon="1.34372">
        <ele>131.6</ele>
        <time>2022-06-08T14:53:54Z</time>
      </trkpt>
      <trkpt lat="43.65842" lon="1.34357">
        <ele>131.4</ele>
        <time>2022-06-08T14:53:56Z</time>
      </trkpt>
      <trkpt lat="43.65838" lon="1.34351">
        <ele>131</ele>
        <time>2022-06-08T14:53:57Z</time>
      </trkpt>
      <trkpt lat="43.65833" lon="1.34341">
        <ele>130.8</ele>
        <time>2022-06-08T14:53:58Z</time>
      </trkpt>
      <trkpt lat="43.65807" lon="1.3428">
        <ele>130.2</ele>
        <time>2022-06-08T14:54:05Z</time>
      </trkpt>
      <trkpt lat="43.65802" lon="1.34264">
        <ele>130.2</ele>
        <time>2022-06-08T14:54:07Z</time>
      </trkpt>
      <trkpt lat="43.65798" lon="1.34237">
        <ele>130.2</ele>
        <time>2022-06-08T14:54:10Z</time>
      </trkpt>
      <trkpt lat="43.6579" lon="1.34166">
        <ele>131.2</ele>
        <time>2022-06-08T14:54:18Z</time>
      </trkpt>
      <trkpt lat="43.65782" lon="1.34082">
        <ele>131.4</ele>
        <time>2022-06-08T14:54:27Z</time>
      </trkpt>
      <trkpt lat="43.65779" lon="1.34065">
        <ele>131.4</ele>
        <time>2022-06-08T14:54:29Z</time>
      </trkpt>
      <trkpt lat="43.65772" lon="1.33984">
        <ele>131.2</ele>
        <time>2022-06-08T14:54:37Z</time>
      </trkpt>
      <trkpt lat="43.65772" lon="1.33975">
        <ele>131.2</ele>
        <time>2022-06-08T14:54:38Z</time>
      </trkpt>
      <trkpt lat="43.65765" lon="1.33894">
        <ele>131</ele>
        <time>2022-06-08T14:54:46Z</time>
      </trkpt>
      <trkpt lat="43.65761" lon="1.33833">
        <ele>131</ele>
        <time>2022-06-08T14:54:53Z</time>
      </trkpt>
      <trkpt lat="43.65762" lon="1.3376">
        <ele>131.8</ele>
        <time>2022-06-08T14:55:01Z</time>
      </trkpt>
      <trkpt lat="43.65772" lon="1.33698">
        <ele>132</ele>
        <time>2022-06-08T14:55:08Z</time>
      </trkpt>
      <trkpt lat="43.65791" lon="1.33647">
        <ele>132</ele>
        <time>2022-06-08T14:55:14Z</time>
      </trkpt>
      <trkpt lat="43.65824" lon="1.33586">
        <ele>131.8</ele>
        <time>2022-06-08T14:55:22Z</time>
      </trkpt>
      <trkpt lat="43.65853" lon="1.33527">
        <ele>131.6</ele>
        <time>2022-06-08T14:55:30Z</time>
      </trkpt>
      <trkpt lat="43.65856" lon="1.33514">
        <ele>131.6</ele>
        <time>2022-06-08T14:55:32Z</time>
      </trkpt>
      <trkpt lat="43.65856" lon="1.33509">
        <ele>131.6</ele>
        <time>2022-06-08T14:55:33Z</time>
      </trkpt>
      <trkpt lat="43.65854" lon="1.33506">
        <ele>131.6</ele>
        <time>2022-06-08T14:55:34Z</time>
      </trkpt>
      <trkpt lat="43.65845" lon="1.335">
        <ele>131.4</ele>
        <time>2022-06-08T14:55:36Z</time>
      </trkpt>
      <trkpt lat="43.65818" lon="1.33486">
        <ele>131.2</ele>
        <time>2022-06-08T14:55:41Z</time>
      </trkpt>
      <trkpt lat="43.65777" lon="1.33464">
        <ele>131.4</ele>
        <time>2022-06-08T14:55:48Z</time>
      </trkpt>
      <trkpt lat="43.65733" lon="1.33439">
        <ele>131.4</ele>
        <time>2022-06-08T14:55:55Z</time>
      </trkpt>
      <trkpt lat="43.65677" lon="1.33406">
        <ele>131.4</ele>
        <time>2022-06-08T14:56:04Z</time>
      </trkpt>
      <trkpt lat="43.65659" lon="1.33395">
        <ele>131.6</ele>
        <time>2022-06-08T14:56:07Z</time>
      </trkpt>
      <trkpt lat="43.65609" lon="1.33365">
        <ele>132</ele>
        <time>2022-06-08T14:56:15Z</time>
      </trkpt>
      <trkpt lat="43.65565" lon="1.33338">
        <ele>132.4</ele>
        <time>2022-06-08T14:56:22Z</time>
      </trkpt>
      <trkpt lat="43.65546" lon="1.33327">
        <ele>132.4</ele>
        <time>2022-06-08T14:56:25Z</time>
      </trkpt>
      <trkpt lat="43.65522" lon="1.33313">
        <ele>132.4</ele>
        <time>2022-06-08T14:56:29Z</time>
      </trkpt>
      <trkpt lat="43.6551" lon="1.33304">
        <ele>132.4</ele>
        <time>2022-06-08T14:56:31Z</time>
      </trkpt>
      <trkpt lat="43.65466" lon="1.33282">
        <ele>132.8</ele>
        <time>2022-06-08T14:56:38Z</time>
      </trkpt>
      <trkpt lat="43.65416" lon="1.33258">
        <ele>133.2</ele>
        <time>2022-06-08T14:56:46Z</time>
      </trkpt>
      <trkpt lat="43.6536" lon="1.33232">
        <ele>133.4</ele>
        <time>2022-06-08T14:56:55Z</time>
      </trkpt>
      <trkpt lat="43.65306" lon="1.33207">
        <ele>133.8</ele>
        <time>2022-06-08T14:57:04Z</time>
      </trkpt>
      <trkpt lat="43.65301" lon="1.33205">
        <ele>133.8</ele>
        <time>2022-06-08T14:57:05Z</time>
      </trkpt>
      <trkpt lat="43.65253" lon="1.33184">
        <ele>134.4</ele>
        <time>2022-06-08T14:57:14Z</time>
      </trkpt>
      <trkpt lat="43.65243" lon="1.3318">
        <ele>134.6</ele>
        <time>2022-06-08T14:57:16Z</time>
      </trkpt>
      <trkpt lat="43.65207" lon="1.33163">
        <ele>134.8</ele>
        <time>2022-06-08T14:57:23Z</time>
      </trkpt>
      <trkpt lat="43.65185" lon="1.33144">
        <ele>135.2</ele>
        <time>2022-06-08T14:57:28Z</time>
      </trkpt>
      <trkpt lat="43.65181" lon="1.3314">
        <ele>135.2</ele>
        <time>2022-06-08T14:57:29Z</time>
      </trkpt>
      <trkpt lat="43.65173" lon="1.33132">
        <ele>135.4</ele>
        <time>2022-06-08T14:57:31Z</time>
      </trkpt>
      <trkpt lat="43.65167" lon="1.33122">
        <ele>135.4</ele>
        <time>2022-06-08T14:57:33Z</time>
      </trkpt>
      <trkpt lat="43.65165" lon="1.33117">
        <ele>135.6</ele>
        <time>2022-06-08T14:57:34Z</time>
      </trkpt>
      <trkpt lat="43.65163" lon="1.33112">
        <ele>135.6</ele>
        <time>2022-06-08T14:57:35Z</time>
      </trkpt>
      <trkpt lat="43.6516" lon="1.33101">
        <ele>135.6</ele>
        <time>2022-06-08T14:57:37Z</time>
      </trkpt>
      <trkpt lat="43.65161" lon="1.33093">
        <ele>135.6</ele>
        <time>2022-06-08T14:57:38Z</time>
      </trkpt>
      <trkpt lat="43.65162" lon="1.33088">
        <ele>135.6</ele>
        <time>2022-06-08T14:57:39Z</time>
      </trkpt>
      <trkpt lat="43.65167" lon="1.33075">
        <ele>135.4</ele>
        <time>2022-06-08T14:57:42Z</time>
      </trkpt>
      <trkpt lat="43.65169" lon="1.33072">
        <ele>135.2</ele>
        <time>2022-06-08T14:57:45Z</time>
      </trkpt>
      <trkpt lat="43.65169" lon="1.33072">
        <ele>134.6</ele>
        <time>2022-06-08T14:57:48Z</time>
      </trkpt>
      <trkpt lat="43.65168" lon="1.33068">
        <ele>134</ele>
        <time>2022-06-08T14:57:53Z</time>
      </trkpt>
      <trkpt lat="43.65167" lon="1.33066">
        <ele>134</ele>
        <time>2022-06-08T14:57:54Z</time>
      </trkpt>
      <trkpt lat="43.65156" lon="1.33056">
        <ele>133.8</ele>
        <time>2022-06-08T14:57:58Z</time>
      </trkpt>
      <trkpt lat="43.65134" lon="1.33033">
        <ele>134</ele>
        <time>2022-06-08T14:58:04Z</time>
      </trkpt>
      <trkpt lat="43.651" lon="1.32995">
        <ele>134.8</ele>
        <time>2022-06-08T14:58:13Z</time>
      </trkpt>
      <trkpt lat="43.6507" lon="1.32963">
        <ele>134.8</ele>
        <time>2022-06-08T14:58:20Z</time>
      </trkpt>
      <trkpt lat="43.6505" lon="1.32942">
        <ele>134.8</ele>
        <time>2022-06-08T14:58:26Z</time>
      </trkpt>
      <trkpt lat="43.65046" lon="1.32938">
        <ele>134.8</ele>
        <time>2022-06-08T14:58:30Z</time>
      </trkpt>
      <trkpt lat="43.65046" lon="1.32938">
        <ele>134.8</ele>
        <time>2022-06-08T14:58:31Z</time>
      </trkpt>
      <trkpt lat="43.65042" lon="1.32934">
        <ele>134.6</ele>
        <time>2022-06-08T15:01:03Z</time>
      </trkpt>
      <trkpt lat="43.65037" lon="1.32929">
        <ele>134.6</ele>
        <time>2022-06-08T15:01:05Z</time>
      </trkpt>
      <trkpt lat="43.65018" lon="1.32906">
        <ele>134.6</ele>
        <time>2022-06-08T15:01:11Z</time>
      </trkpt>
      <trkpt lat="43.64997" lon="1.32884">
        <ele>134.8</ele>
        <time>2022-06-08T15:01:17Z</time>
      </trkpt>
      <trkpt lat="43.64994" lon="1.3288">
        <ele>134.8</ele>
        <time>2022-06-08T15:01:18Z</time>
      </trkpt>
      <trkpt lat="43.64989" lon="1.32872">
        <ele>135.4</ele>
        <time>2022-06-08T15:01:21Z</time>
      </trkpt>
      <trkpt lat="43.64989" lon="1.32871">
        <ele>135.4</ele>
        <time>2022-06-08T15:01:22Z</time>
      </trkpt>
      <trkpt lat="43.64989" lon="1.32871">
        <ele>135.4</ele>
        <time>2022-06-08T15:01:24Z</time>
      </trkpt>
      <trkpt lat="43.64983" lon="1.32866">
        <ele>135</ele>
        <time>2022-06-08T15:02:42Z</time>
      </trkpt>
      <trkpt lat="43.6498" lon="1.32864">
        <ele>135.2</ele>
        <time>2022-06-08T15:02:43Z</time>
      </trkpt>
      <trkpt lat="43.64969" lon="1.32849">
        <ele>135.6</ele>
        <time>2022-06-08T15:02:48Z</time>
      </trkpt>
      <trkpt lat="43.6496" lon="1.32839">
        <ele>135.8</ele>
        <time>2022-06-08T15:02:51Z</time>
      </trkpt>
      <trkpt lat="43.64953" lon="1.32831">
        <ele>136.2</ele>
        <time>2022-06-08T15:02:53Z</time>
      </trkpt>
      <trkpt lat="43.64947" lon="1.32823">
        <ele>136.6</ele>
        <time>2022-06-08T15:02:55Z</time>
      </trkpt>
      <trkpt lat="43.64933" lon="1.32803">
        <ele>137.4</ele>
        <time>2022-06-08T15:02:59Z</time>
      </trkpt>
      <trkpt lat="43.64927" lon="1.32791">
        <ele>137.4</ele>
        <time>2022-06-08T15:03:01Z</time>
      </trkpt>
      <trkpt lat="43.64901" lon="1.32743">
        <ele>138.2</ele>
        <time>2022-06-08T15:03:09Z</time>
      </trkpt>
      <trkpt lat="43.64892" lon="1.32723">
        <ele>138.4</ele>
        <time>2022-06-08T15:03:12Z</time>
      </trkpt>
      <trkpt lat="43.64889" lon="1.32712">
        <ele>138.2</ele>
        <time>2022-06-08T15:03:14Z</time>
      </trkpt>
      <trkpt lat="43.64893" lon="1.32694">
        <ele>138</ele>
        <time>2022-06-08T15:03:17Z</time>
      </trkpt>
      <trkpt lat="43.64898" lon="1.3268">
        <ele>137.6</ele>
        <time>2022-06-08T15:03:19Z</time>
      </trkpt>
      <trkpt lat="43.64918" lon="1.32653">
        <ele>135.8</ele>
        <time>2022-06-08T15:03:24Z</time>
      </trkpt>
      <trkpt lat="43.64934" lon="1.32636">
        <ele>134.6</ele>
        <time>2022-06-08T15:03:28Z</time>
      </trkpt>
      <trkpt lat="43.64944" lon="1.32628">
        <ele>133.8</ele>
        <time>2022-06-08T15:03:30Z</time>
      </trkpt>
      <trkpt lat="43.64949" lon="1.32623">
        <ele>133.2</ele>
        <time>2022-06-08T15:03:31Z</time>
      </trkpt>
      <trkpt lat="43.6497" lon="1.32605">
        <ele>131.8</ele>
        <time>2022-06-08T15:03:35Z</time>
      </trkpt>
      <trkpt lat="43.64979" lon="1.32595">
        <ele>131.2</ele>
        <time>2022-06-08T15:03:37Z</time>
      </trkpt>
      <trkpt lat="43.64989" lon="1.32585">
        <ele>130.8</ele>
        <time>2022-06-08T15:03:39Z</time>
      </trkpt>
      <trkpt lat="43.65009" lon="1.32564">
        <ele>129.8</ele>
        <time>2022-06-08T15:03:43Z</time>
      </trkpt>
      <trkpt lat="43.65014" lon="1.32558">
        <ele>129.2</ele>
        <time>2022-06-08T15:03:44Z</time>
      </trkpt>
      <trkpt lat="43.65022" lon="1.32549">
        <ele>128.6</ele>
        <time>2022-06-08T15:03:46Z</time>
      </trkpt>
      <trkpt lat="43.65028" lon="1.32544">
        <ele>128</ele>
        <time>2022-06-08T15:03:48Z</time>
      </trkpt>
      <trkpt lat="43.6503" lon="1.32541">
        <ele>127.6</ele>
        <time>2022-06-08T15:03:50Z</time>
      </trkpt>
      <trkpt lat="43.65032" lon="1.3254">
        <ele>127</ele>
        <time>2022-06-08T15:03:52Z</time>
      </trkpt>
      <trkpt lat="43.65034" lon="1.32539">
        <ele>126.6</ele>
        <time>2022-06-08T15:03:55Z</time>
      </trkpt>
      <trkpt lat="43.65034" lon="1.32539">
        <ele>126.4</ele>
        <time>2022-06-08T15:03:57Z</time>
      </trkpt>
      <trkpt lat="43.65032" lon="1.32532">
        <ele>126</ele>
        <time>2022-06-08T15:04:29Z</time>
      </trkpt>
      <trkpt lat="43.65019" lon="1.32514">
        <ele>126</ele>
        <time>2022-06-08T15:04:34Z</time>
      </trkpt>
      <trkpt lat="43.65011" lon="1.32497">
        <ele>126.2</ele>
        <time>2022-06-08T15:04:37Z</time>
      </trkpt>
      <trkpt lat="43.65011" lon="1.3249">
        <ele>126.2</ele>
        <time>2022-06-08T15:04:38Z</time>
      </trkpt>
      <trkpt lat="43.65017" lon="1.32447">
        <ele>126.6</ele>
        <time>2022-06-08T15:04:44Z</time>
      </trkpt>
      <trkpt lat="43.65015" lon="1.32431">
        <ele>126.6</ele>
        <time>2022-06-08T15:04:46Z</time>
      </trkpt>
      <trkpt lat="43.65012" lon="1.32417">
        <ele>126.8</ele>
        <time>2022-06-08T15:04:48Z</time>
      </trkpt>
      <trkpt lat="43.6501" lon="1.3241">
        <ele>126.8</ele>
        <time>2022-06-08T15:04:49Z</time>
      </trkpt>
      <trkpt lat="43.65008" lon="1.32403">
        <ele>126.8</ele>
        <time>2022-06-08T15:04:50Z</time>
      </trkpt>
      <trkpt lat="43.6499" lon="1.32362">
        <ele>126.8</ele>
        <time>2022-06-08T15:04:56Z</time>
      </trkpt>
      <trkpt lat="43.64977" lon="1.32329">
        <ele>126.6</ele>
        <time>2022-06-08T15:05:01Z</time>
      </trkpt>
      <trkpt lat="43.64975" lon="1.32324">
        <ele>126.6</ele>
        <time>2022-06-08T15:05:02Z</time>
      </trkpt>
      <trkpt lat="43.64956" lon="1.32289">
        <ele>126.6</ele>
        <time>2022-06-08T15:05:09Z</time>
      </trkpt>
      <trkpt lat="43.64954" lon="1.32284">
        <ele>126.6</ele>
        <time>2022-06-08T15:05:10Z</time>
      </trkpt>
      <trkpt lat="43.64952" lon="1.32273">
        <ele>126.8</ele>
        <time>2022-06-08T15:05:12Z</time>
      </trkpt>
      <trkpt lat="43.64952" lon="1.32267">
        <ele>126.8</ele>
        <time>2022-06-08T15:05:13Z</time>
      </trkpt>
      <trkpt lat="43.64953" lon="1.32262">
        <ele>126.8</ele>
        <time>2022-06-08T15:05:14Z</time>
      </trkpt>
      <trkpt lat="43.64958" lon="1.32257">
        <ele>126.8</ele>
        <time>2022-06-08T15:05:16Z</time>
      </trkpt>
      <trkpt lat="43.64976" lon="1.32243">
        <ele>126.8</ele>
        <time>2022-06-08T15:05:20Z</time>
      </trkpt>
      <trkpt lat="43.64987" lon="1.32241">
        <ele>126.8</ele>
        <time>2022-06-08T15:05:22Z</time>
      </trkpt>
      <trkpt lat="43.64992" lon="1.32242">
        <ele>126.8</ele>
        <time>2022-06-08T15:05:23Z</time>
      </trkpt>
      <trkpt lat="43.64998" lon="1.32247">
        <ele>126.8</ele>
        <time>2022-06-08T15:05:24Z</time>
      </trkpt>
      <trkpt lat="43.65006" lon="1.3226">
        <ele>126.6</ele>
        <time>2022-06-08T15:05:26Z</time>
      </trkpt>
      <trkpt lat="43.65031" lon="1.32314">
        <ele>126.6</ele>
        <time>2022-06-08T15:05:33Z</time>
      </trkpt>
      <trkpt lat="43.65058" lon="1.32388">
        <ele>127</ele>
        <time>2022-06-08T15:05:42Z</time>
      </trkpt>
      <trkpt lat="43.65064" lon="1.32404">
        <ele>127.2</ele>
        <time>2022-06-08T15:05:44Z</time>
      </trkpt>
      <trkpt lat="43.65074" lon="1.32416">
        <ele>127.2</ele>
        <time>2022-06-08T15:05:46Z</time>
      </trkpt>
      <trkpt lat="43.65093" lon="1.32429">
        <ele>127.2</ele>
        <time>2022-06-08T15:05:49Z</time>
      </trkpt>
      <trkpt lat="43.651" lon="1.32432">
        <ele>127.2</ele>
        <time>2022-06-08T15:05:50Z</time>
      </trkpt>
      <trkpt lat="43.65106" lon="1.32435">
        <ele>126.8</ele>
        <time>2022-06-08T15:05:51Z</time>
      </trkpt>
      <trkpt lat="43.65115" lon="1.32446">
        <ele>126.6</ele>
        <time>2022-06-08T15:05:53Z</time>
      </trkpt>
      <trkpt lat="43.65118" lon="1.32451">
        <ele>126.4</ele>
        <time>2022-06-08T15:05:54Z</time>
      </trkpt>
      <trkpt lat="43.65121" lon="1.32463">
        <ele>126</ele>
        <time>2022-06-08T15:05:56Z</time>
      </trkpt>
      <trkpt lat="43.65123" lon="1.32468">
        <ele>126</ele>
        <time>2022-06-08T15:05:57Z</time>
      </trkpt>
      <trkpt lat="43.6513" lon="1.32485">
        <ele>125.8</ele>
        <time>2022-06-08T15:06:00Z</time>
      </trkpt>
      <trkpt lat="43.65137" lon="1.32495">
        <ele>125.6</ele>
        <time>2022-06-08T15:06:02Z</time>
      </trkpt>
      <trkpt lat="43.65146" lon="1.32498">
        <ele>125.6</ele>
        <time>2022-06-08T15:06:04Z</time>
      </trkpt>
      <trkpt lat="43.65156" lon="1.32493">
        <ele>125.8</ele>
        <time>2022-06-08T15:06:07Z</time>
      </trkpt>
      <trkpt lat="43.65152" lon="1.32482">
        <ele>126.2</ele>
        <time>2022-06-08T15:06:10Z</time>
      </trkpt>
      <trkpt lat="43.65144" lon="1.32471">
        <ele>126.8</ele>
        <time>2022-06-08T15:06:13Z</time>
      </trkpt>
      <trkpt lat="43.65145" lon="1.32467">
        <ele>127</ele>
        <time>2022-06-08T15:06:14Z</time>
      </trkpt>
      <trkpt lat="43.65153" lon="1.32449">
        <ele>127.6</ele>
        <time>2022-06-08T15:06:18Z</time>
      </trkpt>
      <trkpt lat="43.65159" lon="1.3244">
        <ele>128</ele>
        <time>2022-06-08T15:06:20Z</time>
      </trkpt>
      <trkpt lat="43.65162" lon="1.32437">
        <ele>128</ele>
        <time>2022-06-08T15:06:21Z</time>
      </trkpt>
      <trkpt lat="43.65172" lon="1.32435">
        <ele>128.2</ele>
        <time>2022-06-08T15:06:23Z</time>
      </trkpt>
      <trkpt lat="43.6518" lon="1.32428">
        <ele>128.2</ele>
        <time>2022-06-08T15:06:25Z</time>
      </trkpt>
      <trkpt lat="43.65181" lon="1.32422">
        <ele>128</ele>
        <time>2022-06-08T15:06:26Z</time>
      </trkpt>
      <trkpt lat="43.65182" lon="1.32416">
        <ele>128</ele>
        <time>2022-06-08T15:06:27Z</time>
      </trkpt>
      <trkpt lat="43.65179" lon="1.32403">
        <ele>127.6</ele>
        <time>2022-06-08T15:06:29Z</time>
      </trkpt>
      <trkpt lat="43.65176" lon="1.32397">
        <ele>127.6</ele>
        <time>2022-06-08T15:06:30Z</time>
      </trkpt>
      <trkpt lat="43.65172" lon="1.3239">
        <ele>127.2</ele>
        <time>2022-06-08T15:06:31Z</time>
      </trkpt>
      <trkpt lat="43.65158" lon="1.32367">
        <ele>126.6</ele>
        <time>2022-06-08T15:06:35Z</time>
      </trkpt>
      <trkpt lat="43.65157" lon="1.32361">
        <ele>126.6</ele>
        <time>2022-06-08T15:06:36Z</time>
      </trkpt>
      <trkpt lat="43.65156" lon="1.32354">
        <ele>126.6</ele>
        <time>2022-06-08T15:06:37Z</time>
      </trkpt>
      <trkpt lat="43.65155" lon="1.32346">
        <ele>126.4</ele>
        <time>2022-06-08T15:06:38Z</time>
      </trkpt>
      <trkpt lat="43.65152" lon="1.32337">
        <ele>126.4</ele>
        <time>2022-06-08T15:06:39Z</time>
      </trkpt>
      <trkpt lat="43.65143" lon="1.3232">
        <ele>126.4</ele>
        <time>2022-06-08T15:06:41Z</time>
      </trkpt>
      <trkpt lat="43.65124" lon="1.3227">
        <ele>126.4</ele>
        <time>2022-06-08T15:06:47Z</time>
      </trkpt>
      <trkpt lat="43.65122" lon="1.32262">
        <ele>126.4</ele>
        <time>2022-06-08T15:06:48Z</time>
      </trkpt>
      <trkpt lat="43.65109" lon="1.32211">
        <ele>126.6</ele>
        <time>2022-06-08T15:06:54Z</time>
      </trkpt>
      <trkpt lat="43.65111" lon="1.32198">
        <ele>126.8</ele>
        <time>2022-06-08T15:06:56Z</time>
      </trkpt>
      <trkpt lat="43.65118" lon="1.32196">
        <ele>127</ele>
        <time>2022-06-08T15:06:58Z</time>
      </trkpt>
      <trkpt lat="43.6513" lon="1.32199">
        <ele>127.8</ele>
        <time>2022-06-08T15:07:02Z</time>
      </trkpt>
      <trkpt lat="43.65134" lon="1.32197">
        <ele>128.8</ele>
        <time>2022-06-08T15:07:05Z</time>
      </trkpt>
      <trkpt lat="43.65135" lon="1.32195">
        <ele>128.8</ele>
        <time>2022-06-08T15:07:06Z</time>
      </trkpt>
      <trkpt lat="43.65136" lon="1.32194">
        <ele>129</ele>
        <time>2022-06-08T15:07:07Z</time>
      </trkpt>
      <trkpt lat="43.65141" lon="1.32196">
        <ele>129.2</ele>
        <time>2022-06-08T15:07:10Z</time>
      </trkpt>
      <trkpt lat="43.65145" lon="1.32196">
        <ele>129.4</ele>
        <time>2022-06-08T15:07:12Z</time>
      </trkpt>
      <trkpt lat="43.65147" lon="1.32192">
        <ele>129.6</ele>
        <time>2022-06-08T15:07:14Z</time>
      </trkpt>
      <trkpt lat="43.65156" lon="1.32194">
        <ele>129.6</ele>
        <time>2022-06-08T15:07:18Z</time>
      </trkpt>
      <trkpt lat="43.6517" lon="1.32195">
        <ele>129.8</ele>
        <time>2022-06-08T15:07:22Z</time>
      </trkpt>
      <trkpt lat="43.65177" lon="1.32186">
        <ele>129.8</ele>
        <time>2022-06-08T15:07:24Z</time>
      </trkpt>
      <trkpt lat="43.65179" lon="1.3218">
        <ele>129.8</ele>
        <time>2022-06-08T15:07:25Z</time>
      </trkpt>
      <trkpt lat="43.65181" lon="1.32174">
        <ele>130</ele>
        <time>2022-06-08T15:07:26Z</time>
      </trkpt>
      <trkpt lat="43.65194" lon="1.32133">
        <ele>130.6</ele>
        <time>2022-06-08T15:07:32Z</time>
      </trkpt>
      <trkpt lat="43.65209" lon="1.32084">
        <ele>130.8</ele>
        <time>2022-06-08T15:07:39Z</time>
      </trkpt>
      <trkpt lat="43.65216" lon="1.32058">
        <ele>131.2</ele>
        <time>2022-06-08T15:07:43Z</time>
      </trkpt>
      <trkpt lat="43.65218" lon="1.32052">
        <ele>131.2</ele>
        <time>2022-06-08T15:07:44Z</time>
      </trkpt>
      <trkpt lat="43.65219" lon="1.32046">
        <ele>131.4</ele>
        <time>2022-06-08T15:07:45Z</time>
      </trkpt>
      <trkpt lat="43.65221" lon="1.32033">
        <ele>131.6</ele>
        <time>2022-06-08T15:07:47Z</time>
      </trkpt>
      <trkpt lat="43.65226" lon="1.32016">
        <ele>131.6</ele>
        <time>2022-06-08T15:07:50Z</time>
      </trkpt>
      <trkpt lat="43.65231" lon="1.32011">
        <ele>131.6</ele>
        <time>2022-06-08T15:07:51Z</time>
      </trkpt>
      <trkpt lat="43.65246" lon="1.31999">
        <ele>132</ele>
        <time>2022-06-08T15:07:55Z</time>
      </trkpt>
      <trkpt lat="43.65248" lon="1.31996">
        <ele>132</ele>
        <time>2022-06-08T15:07:56Z</time>
      </trkpt>
      <trkpt lat="43.6525" lon="1.31993">
        <ele>132.2</ele>
        <time>2022-06-08T15:07:57Z</time>
      </trkpt>
      <trkpt lat="43.65249" lon="1.31986">
        <ele>132.2</ele>
        <time>2022-06-08T15:07:59Z</time>
      </trkpt>
      <trkpt lat="43.65254" lon="1.31972">
        <ele>132.2</ele>
        <time>2022-06-08T15:08:03Z</time>
      </trkpt>
      <trkpt lat="43.65263" lon="1.31938">
        <ele>132.8</ele>
        <time>2022-06-08T15:08:09Z</time>
      </trkpt>
      <trkpt lat="43.65265" lon="1.31925">
        <ele>133</ele>
        <time>2022-06-08T15:08:11Z</time>
      </trkpt>
      <trkpt lat="43.65272" lon="1.31908">
        <ele>133.2</ele>
        <time>2022-06-08T15:08:14Z</time>
      </trkpt>
      <trkpt lat="43.65274" lon="1.31902">
        <ele>133.4</ele>
        <time>2022-06-08T15:08:15Z</time>
      </trkpt>
      <trkpt lat="43.65276" lon="1.31888">
        <ele>133.6</ele>
        <time>2022-06-08T15:08:17Z</time>
      </trkpt>
      <trkpt lat="43.65276" lon="1.31882">
        <ele>133.8</ele>
        <time>2022-06-08T15:08:18Z</time>
      </trkpt>
      <trkpt lat="43.65276" lon="1.31867">
        <ele>134.2</ele>
        <time>2022-06-08T15:08:20Z</time>
      </trkpt>
      <trkpt lat="43.65277" lon="1.31853">
        <ele>134.4</ele>
        <time>2022-06-08T15:08:22Z</time>
      </trkpt>
      <trkpt lat="43.65279" lon="1.31846">
        <ele>134.4</ele>
        <time>2022-06-08T15:08:23Z</time>
      </trkpt>
      <trkpt lat="43.6528" lon="1.31839">
        <ele>134.6</ele>
        <time>2022-06-08T15:08:24Z</time>
      </trkpt>
      <trkpt lat="43.65287" lon="1.31806">
        <ele>135.2</ele>
        <time>2022-06-08T15:08:29Z</time>
      </trkpt>
      <trkpt lat="43.65291" lon="1.31793">
        <ele>135.6</ele>
        <time>2022-06-08T15:08:31Z</time>
      </trkpt>
      <trkpt lat="43.65306" lon="1.31748">
        <ele>136.4</ele>
        <time>2022-06-08T15:08:38Z</time>
      </trkpt>
      <trkpt lat="43.65309" lon="1.31742">
        <ele>136.8</ele>
        <time>2022-06-08T15:08:39Z</time>
      </trkpt>
      <trkpt lat="43.65312" lon="1.31737">
        <ele>136.8</ele>
        <time>2022-06-08T15:08:40Z</time>
      </trkpt>
      <trkpt lat="43.65321" lon="1.31728">
        <ele>137</ele>
        <time>2022-06-08T15:08:42Z</time>
      </trkpt>
      <trkpt lat="43.65326" lon="1.31725">
        <ele>137.2</ele>
        <time>2022-06-08T15:08:43Z</time>
      </trkpt>
      <trkpt lat="43.65347" lon="1.31717">
        <ele>137.8</ele>
        <time>2022-06-08T15:08:47Z</time>
      </trkpt>
      <trkpt lat="43.65357" lon="1.31712">
        <ele>138</ele>
        <time>2022-06-08T15:08:49Z</time>
      </trkpt>
      <trkpt lat="43.65362" lon="1.31708">
        <ele>138</ele>
        <time>2022-06-08T15:08:50Z</time>
      </trkpt>
      <trkpt lat="43.6537" lon="1.317">
        <ele>138.2</ele>
        <time>2022-06-08T15:08:52Z</time>
      </trkpt>
      <trkpt lat="43.6538" lon="1.31684">
        <ele>138.4</ele>
        <time>2022-06-08T15:08:55Z</time>
      </trkpt>
      <trkpt lat="43.65383" lon="1.31678">
        <ele>138.4</ele>
        <time>2022-06-08T15:08:56Z</time>
      </trkpt>
      <trkpt lat="43.65392" lon="1.31653">
        <ele>139</ele>
        <time>2022-06-08T15:09:00Z</time>
      </trkpt>
      <trkpt lat="43.65406" lon="1.31603">
        <ele>140</ele>
        <time>2022-06-08T15:09:08Z</time>
      </trkpt>
      <trkpt lat="43.65407" lon="1.31597">
        <ele>140.2</ele>
        <time>2022-06-08T15:09:09Z</time>
      </trkpt>
      <trkpt lat="43.65418" lon="1.31551">
        <ele>140.8</ele>
        <time>2022-06-08T15:09:17Z</time>
      </trkpt>
      <trkpt lat="43.65419" lon="1.31546">
        <ele>141</ele>
        <time>2022-06-08T15:09:18Z</time>
      </trkpt>
      <trkpt lat="43.65422" lon="1.3152">
        <ele>142.2</ele>
        <time>2022-06-08T15:09:23Z</time>
      </trkpt>
      <trkpt lat="43.65423" lon="1.3151">
        <ele>142.6</ele>
        <time>2022-06-08T15:09:25Z</time>
      </trkpt>
      <trkpt lat="43.6542" lon="1.31501">
        <ele>143.2</ele>
        <time>2022-06-08T15:09:27Z</time>
      </trkpt>
      <trkpt lat="43.65415" lon="1.31495">
        <ele>143.6</ele>
        <time>2022-06-08T15:09:29Z</time>
      </trkpt>
      <trkpt lat="43.65403" lon="1.31487">
        <ele>144.2</ele>
        <time>2022-06-08T15:09:32Z</time>
      </trkpt>
      <trkpt lat="43.65389" lon="1.3148">
        <ele>144.6</ele>
        <time>2022-06-08T15:09:36Z</time>
      </trkpt>
      <trkpt lat="43.65388" lon="1.31478">
        <ele>144.6</ele>
        <time>2022-06-08T15:09:37Z</time>
      </trkpt>
      <trkpt lat="43.65388" lon="1.31475">
        <ele>144.6</ele>
        <time>2022-06-08T15:09:39Z</time>
      </trkpt>
      <trkpt lat="43.65392" lon="1.3146">
        <ele>145.2</ele>
        <time>2022-06-08T15:09:46Z</time>
      </trkpt>
      <trkpt lat="43.65393" lon="1.31457">
        <ele>145.4</ele>
        <time>2022-06-08T15:09:47Z</time>
      </trkpt>
      <trkpt lat="43.65397" lon="1.31435">
        <ele>146.4</ele>
        <time>2022-06-08T15:09:53Z</time>
      </trkpt>
      <trkpt lat="43.65398" lon="1.31431">
        <ele>147</ele>
        <time>2022-06-08T15:09:54Z</time>
      </trkpt>
      <trkpt lat="43.65399" lon="1.31424">
        <ele>147.6</ele>
        <time>2022-06-08T15:09:56Z</time>
      </trkpt>
      <trkpt lat="43.65402" lon="1.3141">
        <ele>149</ele>
        <time>2022-06-08T15:10:00Z</time>
      </trkpt>
      <trkpt lat="43.65402" lon="1.31407">
        <ele>149.2</ele>
        <time>2022-06-08T15:10:01Z</time>
      </trkpt>
      <trkpt lat="43.65401" lon="1.3139">
        <ele>150</ele>
        <time>2022-06-08T15:10:06Z</time>
      </trkpt>
      <trkpt lat="43.65398" lon="1.31386">
        <ele>150</ele>
        <time>2022-06-08T15:10:07Z</time>
      </trkpt>
      <trkpt lat="43.65388" lon="1.31372">
        <ele>150.2</ele>
        <time>2022-06-08T15:10:11Z</time>
      </trkpt>
      <trkpt lat="43.65363" lon="1.31347">
        <ele>150.2</ele>
        <time>2022-06-08T15:10:18Z</time>
      </trkpt>
      <trkpt lat="43.65331" lon="1.3133">
        <ele>150.8</ele>
        <time>2022-06-08T15:10:25Z</time>
      </trkpt>
      <trkpt lat="43.65327" lon="1.31326">
        <ele>151</ele>
        <time>2022-06-08T15:10:26Z</time>
      </trkpt>
      <trkpt lat="43.65324" lon="1.31322">
        <ele>151</ele>
        <time>2022-06-08T15:10:27Z</time>
      </trkpt>
      <trkpt lat="43.65322" lon="1.31316">
        <ele>151.2</ele>
        <time>2022-06-08T15:10:28Z</time>
      </trkpt>
      <trkpt lat="43.65323" lon="1.31301">
        <ele>151.4</ele>
        <time>2022-06-08T15:10:31Z</time>
      </trkpt>
      <trkpt lat="43.65327" lon="1.3129">
        <ele>151.8</ele>
        <time>2022-06-08T15:10:34Z</time>
      </trkpt>
      <trkpt lat="43.65329" lon="1.31288">
        <ele>152</ele>
        <time>2022-06-08T15:10:35Z</time>
      </trkpt>
      <trkpt lat="43.6534" lon="1.31291">
        <ele>153.2</ele>
        <time>2022-06-08T15:10:39Z</time>
      </trkpt>
      <trkpt lat="43.65344" lon="1.31292">
        <ele>153.8</ele>
        <time>2022-06-08T15:10:41Z</time>
      </trkpt>
      <trkpt lat="43.65348" lon="1.31289">
        <ele>154.6</ele>
        <time>2022-06-08T15:10:43Z</time>
      </trkpt>
      <trkpt lat="43.65351" lon="1.31272">
        <ele>155.8</ele>
        <time>2022-06-08T15:10:47Z</time>
      </trkpt>
      <trkpt lat="43.65352" lon="1.31267">
        <ele>156</ele>
        <time>2022-06-08T15:10:48Z</time>
      </trkpt>
      <trkpt lat="43.65361" lon="1.3124">
        <ele>157</ele>
        <time>2022-06-08T15:10:53Z</time>
      </trkpt>
      <trkpt lat="43.65371" lon="1.3121">
        <ele>157.8</ele>
        <time>2022-06-08T15:10:58Z</time>
      </trkpt>
      <trkpt lat="43.65375" lon="1.31197">
        <ele>158</ele>
        <time>2022-06-08T15:11:00Z</time>
      </trkpt>
      <trkpt lat="43.65377" lon="1.31191">
        <ele>158</ele>
        <time>2022-06-08T15:11:01Z</time>
      </trkpt>
      <trkpt lat="43.65383" lon="1.3118">
        <ele>158.2</ele>
        <time>2022-06-08T15:11:03Z</time>
      </trkpt>
      <trkpt lat="43.65391" lon="1.31171">
        <ele>158.2</ele>
        <time>2022-06-08T15:11:05Z</time>
      </trkpt>
      <trkpt lat="43.65397" lon="1.3116">
        <ele>158.4</ele>
        <time>2022-06-08T15:11:07Z</time>
      </trkpt>
      <trkpt lat="43.65398" lon="1.31148">
        <ele>158.4</ele>
        <time>2022-06-08T15:11:09Z</time>
      </trkpt>
      <trkpt lat="43.65394" lon="1.31137">
        <ele>158.4</ele>
        <time>2022-06-08T15:11:11Z</time>
      </trkpt>
      <trkpt lat="43.65391" lon="1.31133">
        <ele>158.6</ele>
        <time>2022-06-08T15:11:12Z</time>
      </trkpt>
      <trkpt lat="43.65385" lon="1.31126">
        <ele>158.6</ele>
        <time>2022-06-08T15:11:14Z</time>
      </trkpt>
      <trkpt lat="43.65375" lon="1.31113">
        <ele>158.8</ele>
        <time>2022-06-08T15:11:17Z</time>
      </trkpt>
      <trkpt lat="43.65372" lon="1.311">
        <ele>158.8</ele>
        <time>2022-06-08T15:11:19Z</time>
      </trkpt>
      <trkpt lat="43.65374" lon="1.31089">
        <ele>159</ele>
        <time>2022-06-08T15:11:21Z</time>
      </trkpt>
      <trkpt lat="43.65376" lon="1.31084">
        <ele>159.2</ele>
        <time>2022-06-08T15:11:22Z</time>
      </trkpt>
      <trkpt lat="43.65383" lon="1.31054">
        <ele>160.2</ele>
        <time>2022-06-08T15:11:27Z</time>
      </trkpt>
      <trkpt lat="43.65383" lon="1.31042">
        <ele>160.6</ele>
        <time>2022-06-08T15:11:29Z</time>
      </trkpt>
      <trkpt lat="43.65376" lon="1.31029">
        <ele>161.4</ele>
        <time>2022-06-08T15:11:32Z</time>
      </trkpt>
      <trkpt lat="43.65373" lon="1.31026">
        <ele>161.6</ele>
        <time>2022-06-08T15:11:33Z</time>
      </trkpt>
      <trkpt lat="43.65366" lon="1.31015">
        <ele>162.4</ele>
        <time>2022-06-08T15:11:36Z</time>
      </trkpt>
      <trkpt lat="43.65358" lon="1.31004">
        <ele>163.2</ele>
        <time>2022-06-08T15:11:39Z</time>
      </trkpt>
      <trkpt lat="43.65352" lon="1.30997">
        <ele>163.6</ele>
        <time>2022-06-08T15:11:41Z</time>
      </trkpt>
      <trkpt lat="43.65331" lon="1.30975">
        <ele>164.6</ele>
        <time>2022-06-08T15:11:47Z</time>
      </trkpt>
      <trkpt lat="43.65327" lon="1.30972">
        <ele>164.8</ele>
        <time>2022-06-08T15:11:48Z</time>
      </trkpt>
      <trkpt lat="43.65304" lon="1.30959">
        <ele>165.4</ele>
        <time>2022-06-08T15:11:53Z</time>
      </trkpt>
      <trkpt lat="43.65283" lon="1.30941">
        <ele>165.8</ele>
        <time>2022-06-08T15:11:58Z</time>
      </trkpt>
      <trkpt lat="43.65279" lon="1.30936">
        <ele>165.8</ele>
        <time>2022-06-08T15:11:59Z</time>
      </trkpt>
      <trkpt lat="43.65268" lon="1.30921">
        <ele>166</ele>
        <time>2022-06-08T15:12:02Z</time>
      </trkpt>
      <trkpt lat="43.65264" lon="1.3091">
        <ele>166.2</ele>
        <time>2022-06-08T15:12:04Z</time>
      </trkpt>
      <trkpt lat="43.65264" lon="1.30903">
        <ele>166.2</ele>
        <time>2022-06-08T15:12:05Z</time>
      </trkpt>
      <trkpt lat="43.65266" lon="1.30897">
        <ele>166.2</ele>
        <time>2022-06-08T15:12:06Z</time>
      </trkpt>
      <trkpt lat="43.65271" lon="1.30885">
        <ele>166.4</ele>
        <time>2022-06-08T15:12:08Z</time>
      </trkpt>
      <trkpt lat="43.65303" lon="1.30827">
        <ele>166.8</ele>
        <time>2022-06-08T15:12:17Z</time>
      </trkpt>
      <trkpt lat="43.65336" lon="1.30765">
        <ele>166.6</ele>
        <time>2022-06-08T15:12:26Z</time>
      </trkpt>
      <trkpt lat="43.65364" lon="1.30699">
        <ele>166.6</ele>
        <time>2022-06-08T15:12:35Z</time>
      </trkpt>
      <trkpt lat="43.65393" lon="1.30632">
        <ele>166.6</ele>
        <time>2022-06-08T15:12:44Z</time>
      </trkpt>
      <trkpt lat="43.6542" lon="1.3057">
        <ele>166.6</ele>
        <time>2022-06-08T15:12:52Z</time>
      </trkpt>
      <trkpt lat="43.65449" lon="1.30504">
        <ele>166.2</ele>
        <time>2022-06-08T15:13:00Z</time>
      </trkpt>
      <trkpt lat="43.6546" lon="1.30479">
        <ele>166</ele>
        <time>2022-06-08T15:13:03Z</time>
      </trkpt>
      <trkpt lat="43.65489" lon="1.30414">
        <ele>165.6</ele>
        <time>2022-06-08T15:13:11Z</time>
      </trkpt>
      <trkpt lat="43.65492" lon="1.30405">
        <ele>165.6</ele>
        <time>2022-06-08T15:13:12Z</time>
      </trkpt>
      <trkpt lat="43.65518" lon="1.30349">
        <ele>165.6</ele>
        <time>2022-06-08T15:13:19Z</time>
      </trkpt>
      <trkpt lat="43.6555" lon="1.3028">
        <ele>165.8</ele>
        <time>2022-06-08T15:13:28Z</time>
      </trkpt>
      <trkpt lat="43.65554" lon="1.30273">
        <ele>166</ele>
        <time>2022-06-08T15:13:29Z</time>
      </trkpt>
      <trkpt lat="43.65587" lon="1.30214">
        <ele>166.4</ele>
        <time>2022-06-08T15:13:37Z</time>
      </trkpt>
      <trkpt lat="43.65604" lon="1.30186">
        <ele>166.4</ele>
        <time>2022-06-08T15:13:41Z</time>
      </trkpt>
      <trkpt lat="43.65616" lon="1.30166">
        <ele>166.8</ele>
        <time>2022-06-08T15:13:44Z</time>
      </trkpt>
      <trkpt lat="43.65628" lon="1.30145">
        <ele>166.8</ele>
        <time>2022-06-08T15:13:47Z</time>
      </trkpt>
      <trkpt lat="43.65655" lon="1.30095">
        <ele>167</ele>
        <time>2022-06-08T15:13:54Z</time>
      </trkpt>
      <trkpt lat="43.65682" lon="1.30032">
        <ele>167</ele>
        <time>2022-06-08T15:14:02Z</time>
      </trkpt>
      <trkpt lat="43.65698" lon="1.3">
        <ele>166.8</ele>
        <time>2022-06-08T15:14:06Z</time>
      </trkpt>
      <trkpt lat="43.6571" lon="1.29979">
        <ele>166.6</ele>
        <time>2022-06-08T15:14:09Z</time>
      </trkpt>
      <trkpt lat="43.65741" lon="1.29922">
        <ele>166.6</ele>
        <time>2022-06-08T15:14:17Z</time>
      </trkpt>
      <trkpt lat="43.65743" lon="1.29914">
        <ele>166.6</ele>
        <time>2022-06-08T15:14:18Z</time>
      </trkpt>
      <trkpt lat="43.65744" lon="1.29896">
        <ele>166.6</ele>
        <time>2022-06-08T15:14:20Z</time>
      </trkpt>
      <trkpt lat="43.65733" lon="1.29853">
        <ele>166.4</ele>
        <time>2022-06-08T15:14:25Z</time>
      </trkpt>
      <trkpt lat="43.65711" lon="1.29776">
        <ele>166.4</ele>
        <time>2022-06-08T15:14:34Z</time>
      </trkpt>
      <trkpt lat="43.65691" lon="1.29703">
        <ele>166.2</ele>
        <time>2022-06-08T15:14:42Z</time>
      </trkpt>
      <trkpt lat="43.65685" lon="1.29675">
        <ele>166</ele>
        <time>2022-06-08T15:14:45Z</time>
      </trkpt>
      <trkpt lat="43.65669" lon="1.29599">
        <ele>165.4</ele>
        <time>2022-06-08T15:14:53Z</time>
      </trkpt>
      <trkpt lat="43.65672" lon="1.2958">
        <ele>165</ele>
        <time>2022-06-08T15:14:55Z</time>
      </trkpt>
      <trkpt lat="43.65676" lon="1.2957">
        <ele>165</ele>
        <time>2022-06-08T15:14:56Z</time>
      </trkpt>
      <trkpt lat="43.6568" lon="1.29565">
        <ele>164.8</ele>
        <time>2022-06-08T15:14:57Z</time>
      </trkpt>
      <trkpt lat="43.65691" lon="1.29556">
        <ele>164.6</ele>
        <time>2022-06-08T15:14:59Z</time>
      </trkpt>
      <trkpt lat="43.65741" lon="1.29524">
        <ele>164.6</ele>
        <time>2022-06-08T15:15:07Z</time>
      </trkpt>
      <trkpt lat="43.65791" lon="1.29494">
        <ele>164.6</ele>
        <time>2022-06-08T15:15:15Z</time>
      </trkpt>
      <trkpt lat="43.65799" lon="1.29482">
        <ele>164.4</ele>
        <time>2022-06-08T15:15:17Z</time>
      </trkpt>
      <trkpt lat="43.65802" lon="1.29473">
        <ele>164.4</ele>
        <time>2022-06-08T15:15:18Z</time>
      </trkpt>
      <trkpt lat="43.65803" lon="1.29464">
        <ele>164.4</ele>
        <time>2022-06-08T15:15:19Z</time>
      </trkpt>
      <trkpt lat="43.658" lon="1.29445">
        <ele>164.4</ele>
        <time>2022-06-08T15:15:21Z</time>
      </trkpt>
      <trkpt lat="43.65788" lon="1.29364">
        <ele>164</ele>
        <time>2022-06-08T15:15:30Z</time>
      </trkpt>
      <trkpt lat="43.65786" lon="1.29355">
        <ele>164</ele>
        <time>2022-06-08T15:15:31Z</time>
      </trkpt>
      <trkpt lat="43.65776" lon="1.29277">
        <ele>164.8</ele>
        <time>2022-06-08T15:15:40Z</time>
      </trkpt>
      <trkpt lat="43.65776" lon="1.29268">
        <ele>165</ele>
        <time>2022-06-08T15:15:41Z</time>
      </trkpt>
      <trkpt lat="43.65779" lon="1.29232">
        <ele>165</ele>
        <time>2022-06-08T15:15:45Z</time>
      </trkpt>
      <trkpt lat="43.65778" lon="1.29168">
        <ele>165.6</ele>
        <time>2022-06-08T15:15:52Z</time>
      </trkpt>
      <trkpt lat="43.6577" lon="1.29117">
        <ele>166</ele>
        <time>2022-06-08T15:15:58Z</time>
      </trkpt>
      <trkpt lat="43.65766" lon="1.29101">
        <ele>166</ele>
        <time>2022-06-08T15:16:00Z</time>
      </trkpt>
      <trkpt lat="43.65757" lon="1.29046">
        <ele>166.2</ele>
        <time>2022-06-08T15:16:06Z</time>
      </trkpt>
      <trkpt lat="43.65748" lon="1.2899">
        <ele>165.8</ele>
        <time>2022-06-08T15:16:12Z</time>
      </trkpt>
      <trkpt lat="43.65745" lon="1.28966">
        <ele>164.8</ele>
        <time>2022-06-08T15:16:15Z</time>
      </trkpt>
      <trkpt lat="43.6574" lon="1.28942">
        <ele>164.6</ele>
        <time>2022-06-08T15:16:18Z</time>
      </trkpt>
      <trkpt lat="43.65738" lon="1.28935">
        <ele>164.6</ele>
        <time>2022-06-08T15:16:19Z</time>
      </trkpt>
      <trkpt lat="43.65731" lon="1.28899">
        <ele>164.6</ele>
        <time>2022-06-08T15:16:23Z</time>
      </trkpt>
      <trkpt lat="43.65727" lon="1.28879">
        <ele>164.8</ele>
        <time>2022-06-08T15:16:25Z</time>
      </trkpt>
      <trkpt lat="43.65724" lon="1.28852">
        <ele>165</ele>
        <time>2022-06-08T15:16:28Z</time>
      </trkpt>
      <trkpt lat="43.65718" lon="1.28818">
        <ele>165.2</ele>
        <time>2022-06-08T15:16:32Z</time>
      </trkpt>
      <trkpt lat="43.65716" lon="1.28801">
        <ele>165.4</ele>
        <time>2022-06-08T15:16:34Z</time>
      </trkpt>
      <trkpt lat="43.65714" lon="1.28791">
        <ele>165.6</ele>
        <time>2022-06-08T15:16:35Z</time>
      </trkpt>
      <trkpt lat="43.65712" lon="1.28776">
        <ele>165.8</ele>
        <time>2022-06-08T15:16:37Z</time>
      </trkpt>
      <trkpt lat="43.65712" lon="1.2877">
        <ele>165.8</ele>
        <time>2022-06-08T15:16:38Z</time>
      </trkpt>
      <trkpt lat="43.65712" lon="1.28764">
        <ele>166</ele>
        <time>2022-06-08T15:16:39Z</time>
      </trkpt>
      <trkpt lat="43.65705" lon="1.28748">
        <ele>166</ele>
        <time>2022-06-08T15:16:42Z</time>
      </trkpt>
      <trkpt lat="43.65699" lon="1.28739">
        <ele>166.2</ele>
        <time>2022-06-08T15:16:44Z</time>
      </trkpt>
      <trkpt lat="43.65686" lon="1.28715">
        <ele>166.2</ele>
        <time>2022-06-08T15:16:48Z</time>
      </trkpt>
      <trkpt lat="43.65665" lon="1.28671">
        <ele>166.8</ele>
        <time>2022-06-08T15:16:55Z</time>
      </trkpt>
      <trkpt lat="43.65662" lon="1.28664">
        <ele>167</ele>
        <time>2022-06-08T15:16:56Z</time>
      </trkpt>
      <trkpt lat="43.65634" lon="1.28611">
        <ele>167.2</ele>
        <time>2022-06-08T15:17:04Z</time>
      </trkpt>
      <trkpt lat="43.65602" lon="1.28549">
        <ele>167.2</ele>
        <time>2022-06-08T15:17:13Z</time>
      </trkpt>
      <trkpt lat="43.6557" lon="1.28486">
        <ele>167.2</ele>
        <time>2022-06-08T15:17:22Z</time>
      </trkpt>
      <trkpt lat="43.65558" lon="1.28465">
        <ele>167</ele>
        <time>2022-06-08T15:17:25Z</time>
      </trkpt>
      <trkpt lat="43.65525" lon="1.28403">
        <ele>167.2</ele>
        <time>2022-06-08T15:17:34Z</time>
      </trkpt>
      <trkpt lat="43.65518" lon="1.28389">
        <ele>167.4</ele>
        <time>2022-06-08T15:17:36Z</time>
      </trkpt>
      <trkpt lat="43.65492" lon="1.2834">
        <ele>167.6</ele>
        <time>2022-06-08T15:17:43Z</time>
      </trkpt>
      <trkpt lat="43.65468" lon="1.28293">
        <ele>167.8</ele>
        <time>2022-06-08T15:17:50Z</time>
      </trkpt>
      <trkpt lat="43.65462" lon="1.28271">
        <ele>167.8</ele>
        <time>2022-06-08T15:17:53Z</time>
      </trkpt>
      <trkpt lat="43.65456" lon="1.28258">
        <ele>167.6</ele>
        <time>2022-06-08T15:17:55Z</time>
      </trkpt>
      <trkpt lat="43.65427" lon="1.28209">
        <ele>167.4</ele>
        <time>2022-06-08T15:18:03Z</time>
      </trkpt>
      <trkpt lat="43.65393" lon="1.2815">
        <ele>167.6</ele>
        <time>2022-06-08T15:18:12Z</time>
      </trkpt>
      <trkpt lat="43.65386" lon="1.28138">
        <ele>167.6</ele>
        <time>2022-06-08T15:18:14Z</time>
      </trkpt>
      <trkpt lat="43.65379" lon="1.28127">
        <ele>167.6</ele>
        <time>2022-06-08T15:18:16Z</time>
      </trkpt>
      <trkpt lat="43.6537" lon="1.28121">
        <ele>167.8</ele>
        <time>2022-06-08T15:18:18Z</time>
      </trkpt>
      <trkpt lat="43.65362" lon="1.28123">
        <ele>167.8</ele>
        <time>2022-06-08T15:18:20Z</time>
      </trkpt>
      <trkpt lat="43.65359" lon="1.28126">
        <ele>167.8</ele>
        <time>2022-06-08T15:18:21Z</time>
      </trkpt>
      <trkpt lat="43.65354" lon="1.28131">
        <ele>167.8</ele>
        <time>2022-06-08T15:18:22Z</time>
      </trkpt>
      <trkpt lat="43.65342" lon="1.28143">
        <ele>168</ele>
        <time>2022-06-08T15:18:25Z</time>
      </trkpt>
      <trkpt lat="43.65337" lon="1.28149">
        <ele>168</ele>
        <time>2022-06-08T15:18:26Z</time>
      </trkpt>
      <trkpt lat="43.65328" lon="1.28158">
        <ele>168</ele>
        <time>2022-06-08T15:18:28Z</time>
      </trkpt>
      <trkpt lat="43.65314" lon="1.28175">
        <ele>168.2</ele>
        <time>2022-06-08T15:18:31Z</time>
      </trkpt>
      <trkpt lat="43.65301" lon="1.28189">
        <ele>168.2</ele>
        <time>2022-06-08T15:18:34Z</time>
      </trkpt>
      <trkpt lat="43.65279" lon="1.2821">
        <ele>168.2</ele>
        <time>2022-06-08T15:18:38Z</time>
      </trkpt>
      <trkpt lat="43.65263" lon="1.28224">
        <ele>168</ele>
        <time>2022-06-08T15:18:41Z</time>
      </trkpt>
      <trkpt lat="43.65246" lon="1.28238">
        <ele>168</ele>
        <time>2022-06-08T15:18:44Z</time>
      </trkpt>
      <trkpt lat="43.65217" lon="1.28272">
        <ele>168</ele>
        <time>2022-06-08T15:18:50Z</time>
      </trkpt>
      <trkpt lat="43.65185" lon="1.28319">
        <ele>168.2</ele>
        <time>2022-06-08T15:18:57Z</time>
      </trkpt>
      <trkpt lat="43.6515" lon="1.28381">
        <ele>168.2</ele>
        <time>2022-06-08T15:19:05Z</time>
      </trkpt>
      <trkpt lat="43.65145" lon="1.28389">
        <ele>168.2</ele>
        <time>2022-06-08T15:19:06Z</time>
      </trkpt>
      <trkpt lat="43.6511" lon="1.28454">
        <ele>167.8</ele>
        <time>2022-06-08T15:19:14Z</time>
      </trkpt>
      <trkpt lat="43.65106" lon="1.28462">
        <ele>167.8</ele>
        <time>2022-06-08T15:19:15Z</time>
      </trkpt>
      <trkpt lat="43.65074" lon="1.28526">
        <ele>167.6</ele>
        <time>2022-06-08T15:19:23Z</time>
      </trkpt>
      <trkpt lat="43.65062" lon="1.28549">
        <ele>167.6</ele>
        <time>2022-06-08T15:19:26Z</time>
      </trkpt>
      <trkpt lat="43.65053" lon="1.28562">
        <ele>167.4</ele>
        <time>2022-06-08T15:19:28Z</time>
      </trkpt>
      <trkpt lat="43.65043" lon="1.28569">
        <ele>167.2</ele>
        <time>2022-06-08T15:19:30Z</time>
      </trkpt>
      <trkpt lat="43.65014" lon="1.2858">
        <ele>167.2</ele>
        <time>2022-06-08T15:19:35Z</time>
      </trkpt>
      <trkpt lat="43.65002" lon="1.28584">
        <ele>167.2</ele>
        <time>2022-06-08T15:19:37Z</time>
      </trkpt>
      <trkpt lat="43.64966" lon="1.28599">
        <ele>167.2</ele>
        <time>2022-06-08T15:19:43Z</time>
      </trkpt>
      <trkpt lat="43.64917" lon="1.28619">
        <ele>167.2</ele>
        <time>2022-06-08T15:19:51Z</time>
      </trkpt>
      <trkpt lat="43.64911" lon="1.28621">
        <ele>167.2</ele>
        <time>2022-06-08T15:19:52Z</time>
      </trkpt>
      <trkpt lat="43.64872" lon="1.28641">
        <ele>167.6</ele>
        <time>2022-06-08T15:19:59Z</time>
      </trkpt>
      <trkpt lat="43.64831" lon="1.28665">
        <ele>167.6</ele>
        <time>2022-06-08T15:20:07Z</time>
      </trkpt>
      <trkpt lat="43.64827" lon="1.28666">
        <ele>167.6</ele>
        <time>2022-06-08T15:20:08Z</time>
      </trkpt>
      <trkpt lat="43.64822" lon="1.28664">
        <ele>167.6</ele>
        <time>2022-06-08T15:20:10Z</time>
      </trkpt>
      <trkpt lat="43.64821" lon="1.28649">
        <ele>167.4</ele>
        <time>2022-06-08T15:20:13Z</time>
      </trkpt>
      <trkpt lat="43.64817" lon="1.28603">
        <ele>167.4</ele>
        <time>2022-06-08T15:20:20Z</time>
      </trkpt>
      <trkpt lat="43.64809" lon="1.28551">
        <ele>167.8</ele>
        <time>2022-06-08T15:20:27Z</time>
      </trkpt>
      <trkpt lat="43.64799" lon="1.28497">
        <ele>168.2</ele>
        <time>2022-06-08T15:20:34Z</time>
      </trkpt>
      <trkpt lat="43.64797" lon="1.28489">
        <ele>168.2</ele>
        <time>2022-06-08T15:20:35Z</time>
      </trkpt>
      <trkpt lat="43.64786" lon="1.28433">
        <ele>168.4</ele>
        <time>2022-06-08T15:20:42Z</time>
      </trkpt>
      <trkpt lat="43.64779" lon="1.28363">
        <ele>168.4</ele>
        <time>2022-06-08T15:20:50Z</time>
      </trkpt>
      <trkpt lat="43.64772" lon="1.28301">
        <ele>168.4</ele>
        <time>2022-06-08T15:20:57Z</time>
      </trkpt>
      <trkpt lat="43.64766" lon="1.28228">
        <ele>168.4</ele>
        <time>2022-06-08T15:21:05Z</time>
      </trkpt>
      <trkpt lat="43.6477" lon="1.28162">
        <ele>168.6</ele>
        <time>2022-06-08T15:21:12Z</time>
      </trkpt>
      <trkpt lat="43.64768" lon="1.28098">
        <ele>168.6</ele>
        <time>2022-06-08T15:21:19Z</time>
      </trkpt>
      <trkpt lat="43.64763" lon="1.28061">
        <ele>168.6</ele>
        <time>2022-06-08T15:21:24Z</time>
      </trkpt>
      <trkpt lat="43.64757" lon="1.28056">
        <ele>168.6</ele>
        <time>2022-06-08T15:21:26Z</time>
      </trkpt>
      <trkpt lat="43.64753" lon="1.28057">
        <ele>168.6</ele>
        <time>2022-06-08T15:21:27Z</time>
      </trkpt>
      <trkpt lat="43.64751" lon="1.2806">
        <ele>168.6</ele>
        <time>2022-06-08T15:21:28Z</time>
      </trkpt>
      <trkpt lat="43.64746" lon="1.2807">
        <ele>168.6</ele>
        <time>2022-06-08T15:21:30Z</time>
      </trkpt>
      <trkpt lat="43.64736" lon="1.28093">
        <ele>168.6</ele>
        <time>2022-06-08T15:21:34Z</time>
      </trkpt>
      <trkpt lat="43.64728" lon="1.28105">
        <ele>168.6</ele>
        <time>2022-06-08T15:21:36Z</time>
      </trkpt>
      <trkpt lat="43.64707" lon="1.28144">
        <ele>168.6</ele>
        <time>2022-06-08T15:21:42Z</time>
      </trkpt>
      <trkpt lat="43.64684" lon="1.28184">
        <ele>168.4</ele>
        <time>2022-06-08T15:21:48Z</time>
      </trkpt>
      <trkpt lat="43.64653" lon="1.28226">
        <ele>168</ele>
        <time>2022-06-08T15:21:55Z</time>
      </trkpt>
      <trkpt lat="43.64646" lon="1.28238">
        <ele>167.8</ele>
        <time>2022-06-08T15:21:57Z</time>
      </trkpt>
      <trkpt lat="43.64633" lon="1.28254">
        <ele>167.8</ele>
        <time>2022-06-08T15:22:00Z</time>
      </trkpt>
      <trkpt lat="43.64606" lon="1.28283">
        <ele>167.8</ele>
        <time>2022-06-08T15:22:06Z</time>
      </trkpt>
      <trkpt lat="43.64563" lon="1.28326">
        <ele>168.4</ele>
        <time>2022-06-08T15:22:15Z</time>
      </trkpt>
      <trkpt lat="43.64532" lon="1.2837">
        <ele>168.6</ele>
        <time>2022-06-08T15:22:22Z</time>
      </trkpt>
      <trkpt lat="43.64496" lon="1.28421">
        <ele>168.2</ele>
        <time>2022-06-08T15:22:30Z</time>
      </trkpt>
      <trkpt lat="43.64464" lon="1.2845">
        <ele>168</ele>
        <time>2022-06-08T15:22:36Z</time>
      </trkpt>
      <trkpt lat="43.6443" lon="1.28478">
        <ele>168.2</ele>
        <time>2022-06-08T15:22:43Z</time>
      </trkpt>
      <trkpt lat="43.6441" lon="1.28493">
        <ele>168.2</ele>
        <time>2022-06-08T15:22:47Z</time>
      </trkpt>
      <trkpt lat="43.64399" lon="1.28502">
        <ele>168.4</ele>
        <time>2022-06-08T15:22:49Z</time>
      </trkpt>
      <trkpt lat="43.64348" lon="1.28534">
        <ele>168.2</ele>
        <time>2022-06-08T15:22:58Z</time>
      </trkpt>
      <trkpt lat="43.64343" lon="1.28537">
        <ele>168.2</ele>
        <time>2022-06-08T15:22:59Z</time>
      </trkpt>
      <trkpt lat="43.64292" lon="1.28569">
        <ele>168</ele>
        <time>2022-06-08T15:23:08Z</time>
      </trkpt>
      <trkpt lat="43.64286" lon="1.28571">
        <ele>168</ele>
        <time>2022-06-08T15:23:09Z</time>
      </trkpt>
      <trkpt lat="43.64247" lon="1.28583">
        <ele>167.8</ele>
        <time>2022-06-08T15:23:15Z</time>
      </trkpt>
      <trkpt lat="43.64235" lon="1.28586">
        <ele>167.8</ele>
        <time>2022-06-08T15:23:17Z</time>
      </trkpt>
      <trkpt lat="43.64217" lon="1.28589">
        <ele>167.4</ele>
        <time>2022-06-08T15:23:20Z</time>
      </trkpt>
      <trkpt lat="43.6419" lon="1.28594">
        <ele>167.2</ele>
        <time>2022-06-08T15:23:24Z</time>
      </trkpt>
      <trkpt lat="43.64166" lon="1.28599">
        <ele>167</ele>
        <time>2022-06-08T15:23:28Z</time>
      </trkpt>
      <trkpt lat="43.64123" lon="1.28609">
        <ele>166.2</ele>
        <time>2022-06-08T15:23:35Z</time>
      </trkpt>
      <trkpt lat="43.64111" lon="1.28611">
        <ele>166</ele>
        <time>2022-06-08T15:23:37Z</time>
      </trkpt>
      <trkpt lat="43.64103" lon="1.28611">
        <ele>165.6</ele>
        <time>2022-06-08T15:23:39Z</time>
      </trkpt>
      <trkpt lat="43.64101" lon="1.2861">
        <ele>165.4</ele>
        <time>2022-06-08T15:23:40Z</time>
      </trkpt>
      <trkpt lat="43.64099" lon="1.2861">
        <ele>165</ele>
        <time>2022-06-08T15:23:42Z</time>
      </trkpt>
      <trkpt lat="43.64099" lon="1.28609">
        <ele>164</ele>
        <time>2022-06-08T15:23:45Z</time>
      </trkpt>
      <trkpt lat="43.64099" lon="1.28609">
        <ele>163.8</ele>
        <time>2022-06-08T15:23:46Z</time>
      </trkpt>
      <trkpt lat="43.64099" lon="1.28609">
        <ele>163.8</ele>
        <time>2022-06-08T15:23:48Z</time>
      </trkpt>
      <trkpt lat="43.64093" lon="1.28609">
        <ele>163.4</ele>
        <time>2022-06-08T15:23:54Z</time>
      </trkpt>
      <trkpt lat="43.6409" lon="1.28609">
        <ele>163.4</ele>
        <time>2022-06-08T15:23:55Z</time>
      </trkpt>
      <trkpt lat="43.64072" lon="1.28606">
        <ele>163.2</ele>
        <time>2022-06-08T15:24:00Z</time>
      </trkpt>
      <trkpt lat="43.64062" lon="1.28604">
        <ele>162.8</ele>
        <time>2022-06-08T15:24:03Z</time>
      </trkpt>
      <trkpt lat="43.64056" lon="1.28604">
        <ele>162.8</ele>
        <time>2022-06-08T15:24:05Z</time>
      </trkpt>
      <trkpt lat="43.64036" lon="1.28615">
        <ele>162.4</ele>
        <time>2022-06-08T15:24:11Z</time>
      </trkpt>
      <trkpt lat="43.64022" lon="1.28621">
        <ele>162.8</ele>
        <time>2022-06-08T15:24:15Z</time>
      </trkpt>
      <trkpt lat="43.63998" lon="1.28628">
        <ele>163.8</ele>
        <time>2022-06-08T15:24:22Z</time>
      </trkpt>
      <trkpt lat="43.63994" lon="1.2863">
        <ele>164</ele>
        <time>2022-06-08T15:24:23Z</time>
      </trkpt>
      <trkpt lat="43.63972" lon="1.28638">
        <ele>165.4</ele>
        <time>2022-06-08T15:24:29Z</time>
      </trkpt>
      <trkpt lat="43.6395" lon="1.28648">
        <ele>166.4</ele>
        <time>2022-06-08T15:24:35Z</time>
      </trkpt>
      <trkpt lat="43.63947" lon="1.28649">
        <ele>166.4</ele>
        <time>2022-06-08T15:24:36Z</time>
      </trkpt>
      <trkpt lat="43.6393" lon="1.28659">
        <ele>167.2</ele>
        <time>2022-06-08T15:24:41Z</time>
      </trkpt>
      <trkpt lat="43.6391" lon="1.28678">
        <ele>167.8</ele>
        <time>2022-06-08T15:24:47Z</time>
      </trkpt>
      <trkpt lat="43.63888" lon="1.28702">
        <ele>168.4</ele>
        <time>2022-06-08T15:24:54Z</time>
      </trkpt>
      <trkpt lat="43.63875" lon="1.28723">
        <ele>168.6</ele>
        <time>2022-06-08T15:24:59Z</time>
      </trkpt>
      <trkpt lat="43.63872" lon="1.28734">
        <ele>168.8</ele>
        <time>2022-06-08T15:25:01Z</time>
      </trkpt>
      <trkpt lat="43.63868" lon="1.28758">
        <ele>168.8</ele>
        <time>2022-06-08T15:25:05Z</time>
      </trkpt>
      <trkpt lat="43.63864" lon="1.2878">
        <ele>168.8</ele>
        <time>2022-06-08T15:25:09Z</time>
      </trkpt>
      <trkpt lat="43.6386" lon="1.28789">
        <ele>168.8</ele>
        <time>2022-06-08T15:25:11Z</time>
      </trkpt>
      <trkpt lat="43.63858" lon="1.28793">
        <ele>168.8</ele>
        <time>2022-06-08T15:25:12Z</time>
      </trkpt>
      <trkpt lat="43.63853" lon="1.28803">
        <ele>169</ele>
        <time>2022-06-08T15:25:15Z</time>
      </trkpt>
      <trkpt lat="43.63848" lon="1.28804">
        <ele>169</ele>
        <time>2022-06-08T15:25:17Z</time>
      </trkpt>
      <trkpt lat="43.63847" lon="1.28792">
        <ele>169</ele>
        <time>2022-06-08T15:25:20Z</time>
      </trkpt>
      <trkpt lat="43.63845" lon="1.28763">
        <ele>168.8</ele>
        <time>2022-06-08T15:25:25Z</time>
      </trkpt>
      <trkpt lat="43.6384" lon="1.28707">
        <ele>168.8</ele>
        <time>2022-06-08T15:25:33Z</time>
      </trkpt>
      <trkpt lat="43.63838" lon="1.28642">
        <ele>168.6</ele>
        <time>2022-06-08T15:25:41Z</time>
      </trkpt>
      <trkpt lat="43.63835" lon="1.28565">
        <ele>168.8</ele>
        <time>2022-06-08T15:25:50Z</time>
      </trkpt>
      <trkpt lat="43.63834" lon="1.28556">
        <ele>168.8</ele>
        <time>2022-06-08T15:25:51Z</time>
      </trkpt>
      <trkpt lat="43.63832" lon="1.28475">
        <ele>168.4</ele>
        <time>2022-06-08T15:26:00Z</time>
      </trkpt>
      <trkpt lat="43.63828" lon="1.28398">
        <ele>168.4</ele>
        <time>2022-06-08T15:26:08Z</time>
      </trkpt>
      <trkpt lat="43.63828" lon="1.28389">
        <ele>168.6</ele>
        <time>2022-06-08T15:26:09Z</time>
      </trkpt>
      <trkpt lat="43.63827" lon="1.28359">
        <ele>168.6</ele>
        <time>2022-06-08T15:26:12Z</time>
      </trkpt>
      <trkpt lat="43.63822" lon="1.28321">
        <ele>168.6</ele>
        <time>2022-06-08T15:26:16Z</time>
      </trkpt>
      <trkpt lat="43.63807" lon="1.28242">
        <ele>168.2</ele>
        <time>2022-06-08T15:26:24Z</time>
      </trkpt>
      <trkpt lat="43.63796" lon="1.28168">
        <ele>167.8</ele>
        <time>2022-06-08T15:26:32Z</time>
      </trkpt>
      <trkpt lat="43.63796" lon="1.2816">
        <ele>167.6</ele>
        <time>2022-06-08T15:26:33Z</time>
      </trkpt>
      <trkpt lat="43.63794" lon="1.28148">
        <ele>167.6</ele>
        <time>2022-06-08T15:26:35Z</time>
      </trkpt>
      <trkpt lat="43.63794" lon="1.28138">
        <ele>167.4</ele>
        <time>2022-06-08T15:26:37Z</time>
      </trkpt>
      <trkpt lat="43.63794" lon="1.28105">
        <ele>167.2</ele>
        <time>2022-06-08T15:26:42Z</time>
      </trkpt>
      <trkpt lat="43.63795" lon="1.28044">
        <ele>167.4</ele>
        <time>2022-06-08T15:26:51Z</time>
      </trkpt>
      <trkpt lat="43.63795" lon="1.2802">
        <ele>167.4</ele>
        <time>2022-06-08T15:26:54Z</time>
      </trkpt>
      <trkpt lat="43.63797" lon="1.27995">
        <ele>167.4</ele>
        <time>2022-06-08T15:26:57Z</time>
      </trkpt>
      <trkpt lat="43.63798" lon="1.27987">
        <ele>167.4</ele>
        <time>2022-06-08T15:26:58Z</time>
      </trkpt>
      <trkpt lat="43.63804" lon="1.27957">
        <ele>167.2</ele>
        <time>2022-06-08T15:27:02Z</time>
      </trkpt>
      <trkpt lat="43.63804" lon="1.27947">
        <ele>167.2</ele>
        <time>2022-06-08T15:27:03Z</time>
      </trkpt>
      <trkpt lat="43.63802" lon="1.27921">
        <ele>167.2</ele>
        <time>2022-06-08T15:27:06Z</time>
      </trkpt>
      <trkpt lat="43.63801" lon="1.27912">
        <ele>167.2</ele>
        <time>2022-06-08T15:27:07Z</time>
      </trkpt>
      <trkpt lat="43.63796" lon="1.27881">
        <ele>167.4</ele>
        <time>2022-06-08T15:27:11Z</time>
      </trkpt>
      <trkpt lat="43.63789" lon="1.2782">
        <ele>167.4</ele>
        <time>2022-06-08T15:27:19Z</time>
      </trkpt>
      <trkpt lat="43.63782" lon="1.27752">
        <ele>168.4</ele>
        <time>2022-06-08T15:27:28Z</time>
      </trkpt>
      <trkpt lat="43.63776" lon="1.2769">
        <ele>168.8</ele>
        <time>2022-06-08T15:27:36Z</time>
      </trkpt>
      <trkpt lat="43.63774" lon="1.27666">
        <ele>168.8</ele>
        <time>2022-06-08T15:27:39Z</time>
      </trkpt>
      <trkpt lat="43.63766" lon="1.27591">
        <ele>168.2</ele>
        <time>2022-06-08T15:27:49Z</time>
      </trkpt>
      <trkpt lat="43.63766" lon="1.27584">
        <ele>168.2</ele>
        <time>2022-06-08T15:27:50Z</time>
      </trkpt>
      <trkpt lat="43.6376" lon="1.2752">
        <ele>169</ele>
        <time>2022-06-08T15:27:59Z</time>
      </trkpt>
      <trkpt lat="43.63753" lon="1.27445">
        <ele>169.2</ele>
        <time>2022-06-08T15:28:09Z</time>
      </trkpt>
      <trkpt lat="43.63751" lon="1.27422">
        <ele>169</ele>
        <time>2022-06-08T15:28:12Z</time>
      </trkpt>
      <trkpt lat="43.63748" lon="1.27354">
        <ele>168.8</ele>
        <time>2022-06-08T15:28:21Z</time>
      </trkpt>
      <trkpt lat="43.63749" lon="1.27292">
        <ele>168.6</ele>
        <time>2022-06-08T15:28:29Z</time>
      </trkpt>
      <trkpt lat="43.63748" lon="1.27236">
        <ele>169.2</ele>
        <time>2022-06-08T15:28:37Z</time>
      </trkpt>
      <trkpt lat="43.63747" lon="1.27222">
        <ele>169.4</ele>
        <time>2022-06-08T15:28:39Z</time>
      </trkpt>
      <trkpt lat="43.63746" lon="1.27216">
        <ele>169.4</ele>
        <time>2022-06-08T15:28:40Z</time>
      </trkpt>
      <trkpt lat="43.63744" lon="1.27203">
        <ele>169.4</ele>
        <time>2022-06-08T15:28:42Z</time>
      </trkpt>
      <trkpt lat="43.63744" lon="1.27197">
        <ele>169.6</ele>
        <time>2022-06-08T15:28:43Z</time>
      </trkpt>
      <trkpt lat="43.63744" lon="1.27151">
        <ele>169.6</ele>
        <time>2022-06-08T15:28:50Z</time>
      </trkpt>
      <trkpt lat="43.63748" lon="1.27095">
        <ele>169.8</ele>
        <time>2022-06-08T15:28:58Z</time>
      </trkpt>
      <trkpt lat="43.63749" lon="1.27081">
        <ele>169.8</ele>
        <time>2022-06-08T15:29:00Z</time>
      </trkpt>
      <trkpt lat="43.63763" lon="1.27026">
        <ele>170.2</ele>
        <time>2022-06-08T15:29:08Z</time>
      </trkpt>
      <trkpt lat="43.63781" lon="1.26965">
        <ele>170.2</ele>
        <time>2022-06-08T15:29:17Z</time>
      </trkpt>
      <trkpt lat="43.63805" lon="1.26904">
        <ele>170.2</ele>
        <time>2022-06-08T15:29:27Z</time>
      </trkpt>
      <trkpt lat="43.63816" lon="1.26879">
        <ele>170.8</ele>
        <time>2022-06-08T15:29:31Z</time>
      </trkpt>
      <trkpt lat="43.63824" lon="1.26858">
        <ele>171.2</ele>
        <time>2022-06-08T15:29:34Z</time>
      </trkpt>
      <trkpt lat="43.63826" lon="1.26852">
        <ele>171.4</ele>
        <time>2022-06-08T15:29:35Z</time>
      </trkpt>
      <trkpt lat="43.63846" lon="1.268">
        <ele>170.8</ele>
        <time>2022-06-08T15:29:43Z</time>
      </trkpt>
      <trkpt lat="43.63846" lon="1.26787">
        <ele>170.6</ele>
        <time>2022-06-08T15:29:47Z</time>
      </trkpt>
      <trkpt lat="43.63846" lon="1.26786">
        <ele>170.4</ele>
        <time>2022-06-08T15:29:49Z</time>
      </trkpt>
      <trkpt lat="43.63846" lon="1.26786">
        <ele>170.4</ele>
        <time>2022-06-08T15:29:50Z</time>
      </trkpt>
      <trkpt lat="43.63843" lon="1.26784">
        <ele>170</ele>
        <time>2022-06-08T15:30:12Z</time>
      </trkpt>
      <trkpt lat="43.63832" lon="1.26779">
        <ele>170</ele>
        <time>2022-06-08T15:30:16Z</time>
      </trkpt>
      <trkpt lat="43.63829" lon="1.26777">
        <ele>170</ele>
        <time>2022-06-08T15:30:17Z</time>
      </trkpt>
      <trkpt lat="43.63806" lon="1.26764">
        <ele>170.4</ele>
        <time>2022-06-08T15:30:24Z</time>
      </trkpt>
      <trkpt lat="43.63782" lon="1.2675">
        <ele>170.6</ele>
        <time>2022-06-08T15:30:32Z</time>
      </trkpt>
      <trkpt lat="43.63757" lon="1.26739">
        <ele>170.8</ele>
        <time>2022-06-08T15:30:39Z</time>
      </trkpt>
      <trkpt lat="43.63728" lon="1.26724">
        <ele>171</ele>
        <time>2022-06-08T15:30:45Z</time>
      </trkpt>
      <trkpt lat="43.63688" lon="1.26702">
        <ele>171.2</ele>
        <time>2022-06-08T15:30:52Z</time>
      </trkpt>
      <trkpt lat="43.63635" lon="1.26671">
        <ele>171.4</ele>
        <time>2022-06-08T15:31:01Z</time>
      </trkpt>
      <trkpt lat="43.63629" lon="1.26667">
        <ele>171.4</ele>
        <time>2022-06-08T15:31:02Z</time>
      </trkpt>
      <trkpt lat="43.63624" lon="1.26664">
        <ele>171.4</ele>
        <time>2022-06-08T15:31:03Z</time>
      </trkpt>
      <trkpt lat="43.636" lon="1.26651">
        <ele>171</ele>
        <time>2022-06-08T15:31:07Z</time>
      </trkpt>
      <trkpt lat="43.63546" lon="1.26623">
        <ele>171</ele>
        <time>2022-06-08T15:31:16Z</time>
      </trkpt>
      <trkpt lat="43.63539" lon="1.26619">
        <ele>171</ele>
        <time>2022-06-08T15:31:17Z</time>
      </trkpt>
      <trkpt lat="43.63485" lon="1.26589">
        <ele>171.4</ele>
        <time>2022-06-08T15:31:26Z</time>
      </trkpt>
      <trkpt lat="43.6346" lon="1.26576">
        <ele>171.4</ele>
        <time>2022-06-08T15:31:30Z</time>
      </trkpt>
      <trkpt lat="43.63407" lon="1.26546">
        <ele>171.6</ele>
        <time>2022-06-08T15:31:39Z</time>
      </trkpt>
      <trkpt lat="43.63373" lon="1.2652">
        <ele>171.8</ele>
        <time>2022-06-08T15:31:45Z</time>
      </trkpt>
      <trkpt lat="43.63331" lon="1.26467">
        <ele>171.6</ele>
        <time>2022-06-08T15:31:54Z</time>
      </trkpt>
      <trkpt lat="43.63317" lon="1.26449">
        <ele>171.8</ele>
        <time>2022-06-08T15:31:57Z</time>
      </trkpt>
      <trkpt lat="43.63313" lon="1.26444">
        <ele>171.8</ele>
        <time>2022-06-08T15:31:58Z</time>
      </trkpt>
      <trkpt lat="43.6327" lon="1.26389">
        <ele>172</ele>
        <time>2022-06-08T15:32:07Z</time>
      </trkpt>
      <trkpt lat="43.63255" lon="1.26369">
        <ele>171.8</ele>
        <time>2022-06-08T15:32:10Z</time>
      </trkpt>
      <trkpt lat="43.63214" lon="1.26317">
        <ele>171.8</ele>
        <time>2022-06-08T15:32:19Z</time>
      </trkpt>
      <trkpt lat="43.63182" lon="1.26277">
        <ele>171.8</ele>
        <time>2022-06-08T15:32:26Z</time>
      </trkpt>
      <trkpt lat="43.63148" lon="1.26235">
        <ele>171.6</ele>
        <time>2022-06-08T15:32:34Z</time>
      </trkpt>
      <trkpt lat="43.63139" lon="1.26224">
        <ele>171.6</ele>
        <time>2022-06-08T15:32:38Z</time>
      </trkpt>
      <trkpt lat="43.63122" lon="1.26213">
        <ele>171.6</ele>
        <time>2022-06-08T15:32:43Z</time>
      </trkpt>
      <trkpt lat="43.63098" lon="1.26189">
        <ele>171.8</ele>
        <time>2022-06-08T15:32:49Z</time>
      </trkpt>
      <trkpt lat="43.63057" lon="1.2615">
        <ele>172.4</ele>
        <time>2022-06-08T15:32:57Z</time>
      </trkpt>
      <trkpt lat="43.6301" lon="1.26104">
        <ele>172.2</ele>
        <time>2022-06-08T15:33:06Z</time>
      </trkpt>
      <trkpt lat="43.62962" lon="1.26058">
        <ele>172</ele>
        <time>2022-06-08T15:33:15Z</time>
      </trkpt>
      <trkpt lat="43.62947" lon="1.26043">
        <ele>172.2</ele>
        <time>2022-06-08T15:33:18Z</time>
      </trkpt>
      <trkpt lat="43.62916" lon="1.26016">
        <ele>172.2</ele>
        <time>2022-06-08T15:33:24Z</time>
      </trkpt>
      <trkpt lat="43.62911" lon="1.26014">
        <ele>172.2</ele>
        <time>2022-06-08T15:33:25Z</time>
      </trkpt>
      <trkpt lat="43.62905" lon="1.26014">
        <ele>172.2</ele>
        <time>2022-06-08T15:33:26Z</time>
      </trkpt>
      <trkpt lat="43.62892" lon="1.26018">
        <ele>172.2</ele>
        <time>2022-06-08T15:33:28Z</time>
      </trkpt>
      <trkpt lat="43.62884" lon="1.26027">
        <ele>172.2</ele>
        <time>2022-06-08T15:33:30Z</time>
      </trkpt>
      <trkpt lat="43.62875" lon="1.2604">
        <ele>172</ele>
        <time>2022-06-08T15:33:32Z</time>
      </trkpt>
      <trkpt lat="43.62853" lon="1.26071">
        <ele>172</ele>
        <time>2022-06-08T15:33:37Z</time>
      </trkpt>
      <trkpt lat="43.62842" lon="1.2608">
        <ele>172</ele>
        <time>2022-06-08T15:33:39Z</time>
      </trkpt>
      <trkpt lat="43.62829" lon="1.26084">
        <ele>172</ele>
        <time>2022-06-08T15:33:41Z</time>
      </trkpt>
      <trkpt lat="43.62816" lon="1.26084">
        <ele>172</ele>
        <time>2022-06-08T15:33:43Z</time>
      </trkpt>
      <trkpt lat="43.6279" lon="1.26083">
        <ele>172.2</ele>
        <time>2022-06-08T15:33:47Z</time>
      </trkpt>
      <trkpt lat="43.62778" lon="1.26084">
        <ele>172.2</ele>
        <time>2022-06-08T15:33:49Z</time>
      </trkpt>
      <trkpt lat="43.62721" lon="1.26084">
        <ele>172.4</ele>
        <time>2022-06-08T15:33:58Z</time>
      </trkpt>
      <trkpt lat="43.62714" lon="1.26084">
        <ele>172.4</ele>
        <time>2022-06-08T15:33:59Z</time>
      </trkpt>
      <trkpt lat="43.62663" lon="1.26083">
        <ele>172.6</ele>
        <time>2022-06-08T15:34:07Z</time>
      </trkpt>
      <trkpt lat="43.62612" lon="1.26067">
        <ele>172.4</ele>
        <time>2022-06-08T15:34:15Z</time>
      </trkpt>
      <trkpt lat="43.62575" lon="1.26052">
        <ele>172.2</ele>
        <time>2022-06-08T15:34:21Z</time>
      </trkpt>
      <trkpt lat="43.62545" lon="1.26039">
        <ele>172.4</ele>
        <time>2022-06-08T15:34:26Z</time>
      </trkpt>
      <trkpt lat="43.6249" lon="1.26015">
        <ele>171.8</ele>
        <time>2022-06-08T15:34:35Z</time>
      </trkpt>
      <trkpt lat="43.62477" lon="1.2601">
        <ele>171.6</ele>
        <time>2022-06-08T15:34:37Z</time>
      </trkpt>
      <trkpt lat="43.62425" lon="1.25988">
        <ele>171.6</ele>
        <time>2022-06-08T15:34:46Z</time>
      </trkpt>
      <trkpt lat="43.62401" lon="1.25979">
        <ele>171.2</ele>
        <time>2022-06-08T15:34:51Z</time>
      </trkpt>
      <trkpt lat="43.62393" lon="1.25975">
        <ele>171</ele>
        <time>2022-06-08T15:34:55Z</time>
      </trkpt>
      <trkpt lat="43.62381" lon="1.2596">
        <ele>171</ele>
        <time>2022-06-08T15:35:00Z</time>
      </trkpt>
      <trkpt lat="43.62364" lon="1.25938">
        <ele>171.2</ele>
        <time>2022-06-08T15:35:05Z</time>
      </trkpt>
      <trkpt lat="43.62357" lon="1.25931">
        <ele>171.2</ele>
        <time>2022-06-08T15:35:07Z</time>
      </trkpt>
      <trkpt lat="43.62344" lon="1.25923">
        <ele>171</ele>
        <time>2022-06-08T15:35:10Z</time>
      </trkpt>
      <trkpt lat="43.6234" lon="1.25921">
        <ele>171</ele>
        <time>2022-06-08T15:35:11Z</time>
      </trkpt>
      <trkpt lat="43.62332" lon="1.25917">
        <ele>171</ele>
        <time>2022-06-08T15:35:13Z</time>
      </trkpt>
      <trkpt lat="43.62329" lon="1.25915">
        <ele>171</ele>
        <time>2022-06-08T15:35:14Z</time>
      </trkpt>
      <trkpt lat="43.6232" lon="1.25912">
        <ele>170.8</ele>
        <time>2022-06-08T15:35:16Z</time>
      </trkpt>
      <trkpt lat="43.62312" lon="1.25908">
        <ele>170.8</ele>
        <time>2022-06-08T15:35:18Z</time>
      </trkpt>
      <trkpt lat="43.62298" lon="1.25899">
        <ele>170.4</ele>
        <time>2022-06-08T15:35:21Z</time>
      </trkpt>
      <trkpt lat="43.62289" lon="1.25889">
        <ele>170.2</ele>
        <time>2022-06-08T15:35:23Z</time>
      </trkpt>
      <trkpt lat="43.62282" lon="1.25875">
        <ele>170</ele>
        <time>2022-06-08T15:35:25Z</time>
      </trkpt>
      <trkpt lat="43.62279" lon="1.25867">
        <ele>169.8</ele>
        <time>2022-06-08T15:35:26Z</time>
      </trkpt>
      <trkpt lat="43.62266" lon="1.25829">
        <ele>169.2</ele>
        <time>2022-06-08T15:35:31Z</time>
      </trkpt>
      <trkpt lat="43.62261" lon="1.25813">
        <ele>168.6</ele>
        <time>2022-06-08T15:35:33Z</time>
      </trkpt>
      <trkpt lat="43.62249" lon="1.25781">
        <ele>167.8</ele>
        <time>2022-06-08T15:35:37Z</time>
      </trkpt>
      <trkpt lat="43.6224" lon="1.25764">
        <ele>167.6</ele>
        <time>2022-06-08T15:35:39Z</time>
      </trkpt>
      <trkpt lat="43.62224" lon="1.25733">
        <ele>167</ele>
        <time>2022-06-08T15:35:43Z</time>
      </trkpt>
      <trkpt lat="43.62213" lon="1.25719">
        <ele>166.6</ele>
        <time>2022-06-08T15:35:45Z</time>
      </trkpt>
      <trkpt lat="43.62205" lon="1.25703">
        <ele>166.4</ele>
        <time>2022-06-08T15:35:47Z</time>
      </trkpt>
      <trkpt lat="43.62201" lon="1.25696">
        <ele>166.4</ele>
        <time>2022-06-08T15:35:48Z</time>
      </trkpt>
      <trkpt lat="43.62189" lon="1.25679">
        <ele>166</ele>
        <time>2022-06-08T15:35:51Z</time>
      </trkpt>
      <trkpt lat="43.62177" lon="1.2567">
        <ele>165.4</ele>
        <time>2022-06-08T15:35:53Z</time>
      </trkpt>
      <trkpt lat="43.62164" lon="1.25665">
        <ele>164.8</ele>
        <time>2022-06-08T15:35:55Z</time>
      </trkpt>
      <trkpt lat="43.62151" lon="1.25664">
        <ele>164.4</ele>
        <time>2022-06-08T15:35:57Z</time>
      </trkpt>
      <trkpt lat="43.62144" lon="1.25663">
        <ele>164.4</ele>
        <time>2022-06-08T15:35:58Z</time>
      </trkpt>
      <trkpt lat="43.62137" lon="1.25663">
        <ele>164.2</ele>
        <time>2022-06-08T15:35:59Z</time>
      </trkpt>
      <trkpt lat="43.62113" lon="1.25665">
        <ele>163.6</ele>
        <time>2022-06-08T15:36:03Z</time>
      </trkpt>
      <trkpt lat="43.62108" lon="1.25666">
        <ele>163.6</ele>
        <time>2022-06-08T15:36:04Z</time>
      </trkpt>
      <trkpt lat="43.62089" lon="1.25666">
        <ele>163.2</ele>
        <time>2022-06-08T15:36:07Z</time>
      </trkpt>
      <trkpt lat="43.62082" lon="1.25665">
        <ele>162.8</ele>
        <time>2022-06-08T15:36:08Z</time>
      </trkpt>
      <trkpt lat="43.62075" lon="1.25664">
        <ele>163</ele>
        <time>2022-06-08T15:36:09Z</time>
      </trkpt>
      <trkpt lat="43.62063" lon="1.25663">
        <ele>162.4</ele>
        <time>2022-06-08T15:36:11Z</time>
      </trkpt>
      <trkpt lat="43.62035" lon="1.25655">
        <ele>161.8</ele>
        <time>2022-06-08T15:36:15Z</time>
      </trkpt>
      <trkpt lat="43.62028" lon="1.25654">
        <ele>161.6</ele>
        <time>2022-06-08T15:36:16Z</time>
      </trkpt>
      <trkpt lat="43.62014" lon="1.25654">
        <ele>161.4</ele>
        <time>2022-06-08T15:36:18Z</time>
      </trkpt>
      <trkpt lat="43.62001" lon="1.25656">
        <ele>161.4</ele>
        <time>2022-06-08T15:36:20Z</time>
      </trkpt>
      <trkpt lat="43.61995" lon="1.25658">
        <ele>161.2</ele>
        <time>2022-06-08T15:36:21Z</time>
      </trkpt>
      <trkpt lat="43.61968" lon="1.25667">
        <ele>160.6</ele>
        <time>2022-06-08T15:36:25Z</time>
      </trkpt>
      <trkpt lat="43.61962" lon="1.25669">
        <ele>160.6</ele>
        <time>2022-06-08T15:36:26Z</time>
      </trkpt>
      <trkpt lat="43.61949" lon="1.25675">
        <ele>160.4</ele>
        <time>2022-06-08T15:36:28Z</time>
      </trkpt>
      <trkpt lat="43.61941" lon="1.25678">
        <ele>160.2</ele>
        <time>2022-06-08T15:36:29Z</time>
      </trkpt>
      <trkpt lat="43.61922" lon="1.25683">
        <ele>159.6</ele>
        <time>2022-06-08T15:36:32Z</time>
      </trkpt>
      <trkpt lat="43.61917" lon="1.25686">
        <ele>159.6</ele>
        <time>2022-06-08T15:36:33Z</time>
      </trkpt>
      <trkpt lat="43.61905" lon="1.25696">
        <ele>159.2</ele>
        <time>2022-06-08T15:36:35Z</time>
      </trkpt>
      <trkpt lat="43.61886" lon="1.25716">
        <ele>158.4</ele>
        <time>2022-06-08T15:36:38Z</time>
      </trkpt>
      <trkpt lat="43.61867" lon="1.25736">
        <ele>157.6</ele>
        <time>2022-06-08T15:36:41Z</time>
      </trkpt>
      <trkpt lat="43.61861" lon="1.2574">
        <ele>157.4</ele>
        <time>2022-06-08T15:36:42Z</time>
      </trkpt>
      <trkpt lat="43.61854" lon="1.25744">
        <ele>157.2</ele>
        <time>2022-06-08T15:36:43Z</time>
      </trkpt>
      <trkpt lat="43.61843" lon="1.25749">
        <ele>156.8</ele>
        <time>2022-06-08T15:36:45Z</time>
      </trkpt>
      <trkpt lat="43.6184" lon="1.25752">
        <ele>156.4</ele>
        <time>2022-06-08T15:36:46Z</time>
      </trkpt>
      <trkpt lat="43.61837" lon="1.25759">
        <ele>156.2</ele>
        <time>2022-06-08T15:36:47Z</time>
      </trkpt>
      <trkpt lat="43.61836" lon="1.25766">
        <ele>155.8</ele>
        <time>2022-06-08T15:36:48Z</time>
      </trkpt>
      <trkpt lat="43.61837" lon="1.25774">
        <ele>155.6</ele>
        <time>2022-06-08T15:36:49Z</time>
      </trkpt>
      <trkpt lat="43.61841" lon="1.25791">
        <ele>155</ele>
        <time>2022-06-08T15:36:51Z</time>
      </trkpt>
      <trkpt lat="43.61845" lon="1.25809">
        <ele>154.8</ele>
        <time>2022-06-08T15:36:53Z</time>
      </trkpt>
      <trkpt lat="43.61852" lon="1.25825">
        <ele>154.8</ele>
        <time>2022-06-08T15:36:55Z</time>
      </trkpt>
      <trkpt lat="43.61866" lon="1.25854">
        <ele>154.6</ele>
        <time>2022-06-08T15:36:59Z</time>
      </trkpt>
      <trkpt lat="43.61872" lon="1.25867">
        <ele>154.6</ele>
        <time>2022-06-08T15:37:01Z</time>
      </trkpt>
      <trkpt lat="43.6188" lon="1.2588">
        <ele>154.8</ele>
        <time>2022-06-08T15:37:03Z</time>
      </trkpt>
      <trkpt lat="43.61882" lon="1.25887">
        <ele>155</ele>
        <time>2022-06-08T15:37:04Z</time>
      </trkpt>
      <trkpt lat="43.61888" lon="1.25905">
        <ele>155.2</ele>
        <time>2022-06-08T15:37:06Z</time>
      </trkpt>
      <trkpt lat="43.61892" lon="1.25923">
        <ele>155.2</ele>
        <time>2022-06-08T15:37:08Z</time>
      </trkpt>
      <trkpt lat="43.61905" lon="1.25972">
        <ele>154.8</ele>
        <time>2022-06-08T15:37:14Z</time>
      </trkpt>
      <trkpt lat="43.61906" lon="1.2598">
        <ele>154.8</ele>
        <time>2022-06-08T15:37:15Z</time>
      </trkpt>
      <trkpt lat="43.6191" lon="1.2601">
        <ele>154.4</ele>
        <time>2022-06-08T15:37:18Z</time>
      </trkpt>
      <trkpt lat="43.61916" lon="1.26068">
        <ele>153.6</ele>
        <time>2022-06-08T15:37:24Z</time>
      </trkpt>
      <trkpt lat="43.61919" lon="1.26088">
        <ele>152.6</ele>
        <time>2022-06-08T15:37:26Z</time>
      </trkpt>
      <trkpt lat="43.6192" lon="1.26109">
        <ele>152.2</ele>
        <time>2022-06-08T15:37:28Z</time>
      </trkpt>
      <trkpt lat="43.61921" lon="1.26162">
        <ele>151.8</ele>
        <time>2022-06-08T15:37:33Z</time>
      </trkpt>
      <trkpt lat="43.61924" lon="1.26172">
        <ele>151.8</ele>
        <time>2022-06-08T15:37:34Z</time>
      </trkpt>
      <trkpt lat="43.61929" lon="1.26211">
        <ele>151.6</ele>
        <time>2022-06-08T15:37:38Z</time>
      </trkpt>
      <trkpt lat="43.61937" lon="1.26241">
        <ele>151.4</ele>
        <time>2022-06-08T15:37:41Z</time>
      </trkpt>
      <trkpt lat="43.6194" lon="1.26251">
        <ele>151.4</ele>
        <time>2022-06-08T15:37:42Z</time>
      </trkpt>
      <trkpt lat="43.61941" lon="1.26272">
        <ele>151.2</ele>
        <time>2022-06-08T15:37:44Z</time>
      </trkpt>
      <trkpt lat="43.61938" lon="1.26293">
        <ele>151</ele>
        <time>2022-06-08T15:37:46Z</time>
      </trkpt>
      <trkpt lat="43.61936" lon="1.26301">
        <ele>151</ele>
        <time>2022-06-08T15:37:47Z</time>
      </trkpt>
      <trkpt lat="43.6193" lon="1.26313">
        <ele>151</ele>
        <time>2022-06-08T15:37:49Z</time>
      </trkpt>
      <trkpt lat="43.61926" lon="1.26318">
        <ele>151</ele>
        <time>2022-06-08T15:37:50Z</time>
      </trkpt>
      <trkpt lat="43.61887" lon="1.26353">
        <ele>150.2</ele>
        <time>2022-06-08T15:37:57Z</time>
      </trkpt>
      <trkpt lat="43.61882" lon="1.2636">
        <ele>150.2</ele>
        <time>2022-06-08T15:37:58Z</time>
      </trkpt>
      <trkpt lat="43.61879" lon="1.26367">
        <ele>150</ele>
        <time>2022-06-08T15:37:59Z</time>
      </trkpt>
      <trkpt lat="43.61876" lon="1.26374">
        <ele>150</ele>
        <time>2022-06-08T15:38:00Z</time>
      </trkpt>
      <trkpt lat="43.6187" lon="1.26408">
        <ele>149.4</ele>
        <time>2022-06-08T15:38:04Z</time>
      </trkpt>
      <trkpt lat="43.61868" lon="1.26434">
        <ele>149.4</ele>
        <time>2022-06-08T15:38:07Z</time>
      </trkpt>
      <trkpt lat="43.61866" lon="1.26442">
        <ele>149.6</ele>
        <time>2022-06-08T15:38:09Z</time>
      </trkpt>
      <trkpt lat="43.61862" lon="1.26452">
        <ele>149.6</ele>
        <time>2022-06-08T15:38:13Z</time>
      </trkpt>
      <trkpt lat="43.61859" lon="1.2648">
        <ele>149.4</ele>
        <time>2022-06-08T15:38:18Z</time>
      </trkpt>
      <trkpt lat="43.6185" lon="1.26505">
        <ele>149.2</ele>
        <time>2022-06-08T15:38:23Z</time>
      </trkpt>
      <trkpt lat="43.61834" lon="1.26538">
        <ele>149.6</ele>
        <time>2022-06-08T15:38:29Z</time>
      </trkpt>
      <trkpt lat="43.61837" lon="1.26565">
        <ele>149.8</ele>
        <time>2022-06-08T15:38:33Z</time>
      </trkpt>
      <trkpt lat="43.61849" lon="1.26611">
        <ele>150.2</ele>
        <time>2022-06-08T15:38:40Z</time>
      </trkpt>
      <trkpt lat="43.61856" lon="1.26661">
        <ele>150</ele>
        <time>2022-06-08T15:38:46Z</time>
      </trkpt>
      <trkpt lat="43.61868" lon="1.26727">
        <ele>149.8</ele>
        <time>2022-06-08T15:38:54Z</time>
      </trkpt>
      <trkpt lat="43.61873" lon="1.2675">
        <ele>149.6</ele>
        <time>2022-06-08T15:38:57Z</time>
      </trkpt>
      <trkpt lat="43.61878" lon="1.26772">
        <ele>149.6</ele>
        <time>2022-06-08T15:39:00Z</time>
      </trkpt>
      <trkpt lat="43.61884" lon="1.26812">
        <ele>149.4</ele>
        <time>2022-06-08T15:39:05Z</time>
      </trkpt>
      <trkpt lat="43.61886" lon="1.2683">
        <ele>149.4</ele>
        <time>2022-06-08T15:39:07Z</time>
      </trkpt>
      <trkpt lat="43.61891" lon="1.26878">
        <ele>149</ele>
        <time>2022-06-08T15:39:12Z</time>
      </trkpt>
      <trkpt lat="43.61898" lon="1.26915">
        <ele>148.8</ele>
        <time>2022-06-08T15:39:16Z</time>
      </trkpt>
      <trkpt lat="43.61904" lon="1.26942">
        <ele>148.8</ele>
        <time>2022-06-08T15:39:19Z</time>
      </trkpt>
      <trkpt lat="43.61922" lon="1.27016">
        <ele>149</ele>
        <time>2022-06-08T15:39:27Z</time>
      </trkpt>
      <trkpt lat="43.61924" lon="1.27025">
        <ele>149</ele>
        <time>2022-06-08T15:39:28Z</time>
      </trkpt>
      <trkpt lat="43.61933" lon="1.27093">
        <ele>148.6</ele>
        <time>2022-06-08T15:39:35Z</time>
      </trkpt>
      <trkpt lat="43.61936" lon="1.27146">
        <ele>148.2</ele>
        <time>2022-06-08T15:39:41Z</time>
      </trkpt>
      <trkpt lat="43.61939" lon="1.27185">
        <ele>147.8</ele>
        <time>2022-06-08T15:39:45Z</time>
      </trkpt>
      <trkpt lat="43.6194" lon="1.27204">
        <ele>147.6</ele>
        <time>2022-06-08T15:39:47Z</time>
      </trkpt>
      <trkpt lat="43.6195" lon="1.27273">
        <ele>147.2</ele>
        <time>2022-06-08T15:39:54Z</time>
      </trkpt>
      <trkpt lat="43.61958" lon="1.2734">
        <ele>147</ele>
        <time>2022-06-08T15:40:01Z</time>
      </trkpt>
      <trkpt lat="43.61961" lon="1.27377">
        <ele>146.8</ele>
        <time>2022-06-08T15:40:05Z</time>
      </trkpt>
      <trkpt lat="43.61965" lon="1.27414">
        <ele>146.8</ele>
        <time>2022-06-08T15:40:09Z</time>
      </trkpt>
      <trkpt lat="43.61973" lon="1.27491">
        <ele>146.8</ele>
        <time>2022-06-08T15:40:17Z</time>
      </trkpt>
      <trkpt lat="43.61975" lon="1.27552">
        <ele>147</ele>
        <time>2022-06-08T15:40:23Z</time>
      </trkpt>
      <trkpt lat="43.61974" lon="1.27563">
        <ele>146.8</ele>
        <time>2022-06-08T15:40:24Z</time>
      </trkpt>
      <trkpt lat="43.61975" lon="1.27606">
        <ele>147.2</ele>
        <time>2022-06-08T15:40:29Z</time>
      </trkpt>
      <trkpt lat="43.61976" lon="1.27646">
        <ele>147.8</ele>
        <time>2022-06-08T15:40:34Z</time>
      </trkpt>
      <trkpt lat="43.61981" lon="1.27662">
        <ele>148</ele>
        <time>2022-06-08T15:40:36Z</time>
      </trkpt>
      <trkpt lat="43.61992" lon="1.2768">
        <ele>148</ele>
        <time>2022-06-08T15:40:39Z</time>
      </trkpt>
      <trkpt lat="43.61995" lon="1.27689">
        <ele>148</ele>
        <time>2022-06-08T15:40:40Z</time>
      </trkpt>
      <trkpt lat="43.61996" lon="1.27699">
        <ele>148</ele>
        <time>2022-06-08T15:40:41Z</time>
      </trkpt>
      <trkpt lat="43.61995" lon="1.27729">
        <ele>147.6</ele>
        <time>2022-06-08T15:40:44Z</time>
      </trkpt>
      <trkpt lat="43.61989" lon="1.27776">
        <ele>147</ele>
        <time>2022-06-08T15:40:49Z</time>
      </trkpt>
      <trkpt lat="43.6199" lon="1.27785">
        <ele>147</ele>
        <time>2022-06-08T15:40:50Z</time>
      </trkpt>
      <trkpt lat="43.61997" lon="1.27846">
        <ele>147.8</ele>
        <time>2022-06-08T15:40:57Z</time>
      </trkpt>
      <trkpt lat="43.62007" lon="1.27927">
        <ele>148</ele>
        <time>2022-06-08T15:41:06Z</time>
      </trkpt>
      <trkpt lat="43.62016" lon="1.28004">
        <ele>147.6</ele>
        <time>2022-06-08T15:41:14Z</time>
      </trkpt>
      <trkpt lat="43.62019" lon="1.28024">
        <ele>147.4</ele>
        <time>2022-06-08T15:41:16Z</time>
      </trkpt>
      <trkpt lat="43.62025" lon="1.28071">
        <ele>147.4</ele>
        <time>2022-06-08T15:41:21Z</time>
      </trkpt>
      <trkpt lat="43.62029" lon="1.28098">
        <ele>147.2</ele>
        <time>2022-06-08T15:41:24Z</time>
      </trkpt>
      <trkpt lat="43.62031" lon="1.28104">
        <ele>147.2</ele>
        <time>2022-06-08T15:41:25Z</time>
      </trkpt>
      <trkpt lat="43.62035" lon="1.28109">
        <ele>147.2</ele>
        <time>2022-06-08T15:41:26Z</time>
      </trkpt>
      <trkpt lat="43.6204" lon="1.28111">
        <ele>147.2</ele>
        <time>2022-06-08T15:41:27Z</time>
      </trkpt>
      <trkpt lat="43.62047" lon="1.2811">
        <ele>147.2</ele>
        <time>2022-06-08T15:41:28Z</time>
      </trkpt>
      <trkpt lat="43.62068" lon="1.28107">
        <ele>146.6</ele>
        <time>2022-06-08T15:41:31Z</time>
      </trkpt>
      <trkpt lat="43.62082" lon="1.28105">
        <ele>145.4</ele>
        <time>2022-06-08T15:41:33Z</time>
      </trkpt>
      <trkpt lat="43.6209" lon="1.28104">
        <ele>145.2</ele>
        <time>2022-06-08T15:41:34Z</time>
      </trkpt>
      <trkpt lat="43.62104" lon="1.28097">
        <ele>145</ele>
        <time>2022-06-08T15:41:36Z</time>
      </trkpt>
      <trkpt lat="43.6211" lon="1.28094">
        <ele>144.6</ele>
        <time>2022-06-08T15:41:37Z</time>
      </trkpt>
      <trkpt lat="43.62117" lon="1.28092">
        <ele>144.4</ele>
        <time>2022-06-08T15:41:38Z</time>
      </trkpt>
      <trkpt lat="43.62133" lon="1.28088">
        <ele>143.8</ele>
        <time>2022-06-08T15:41:40Z</time>
      </trkpt>
      <trkpt lat="43.62148" lon="1.28087">
        <ele>143.4</ele>
        <time>2022-06-08T15:41:42Z</time>
      </trkpt>
      <trkpt lat="43.62178" lon="1.28085">
        <ele>142.8</ele>
        <time>2022-06-08T15:41:46Z</time>
      </trkpt>
      <trkpt lat="43.62189" lon="1.2809">
        <ele>142.8</ele>
        <time>2022-06-08T15:41:48Z</time>
      </trkpt>
      <trkpt lat="43.62198" lon="1.28095">
        <ele>142.8</ele>
        <time>2022-06-08T15:41:50Z</time>
      </trkpt>
      <trkpt lat="43.6221" lon="1.28101">
        <ele>142.8</ele>
        <time>2022-06-08T15:41:53Z</time>
      </trkpt>
      <trkpt lat="43.62214" lon="1.28103">
        <ele>142.8</ele>
        <time>2022-06-08T15:41:54Z</time>
      </trkpt>
      <trkpt lat="43.62218" lon="1.28107">
        <ele>142.8</ele>
        <time>2022-06-08T15:41:55Z</time>
      </trkpt>
      <trkpt lat="43.62224" lon="1.2812">
        <ele>142.8</ele>
        <time>2022-06-08T15:41:57Z</time>
      </trkpt>
      <trkpt lat="43.62227" lon="1.28146">
        <ele>142.8</ele>
        <time>2022-06-08T15:42:00Z</time>
      </trkpt>
      <trkpt lat="43.62227" lon="1.28155">
        <ele>142.6</ele>
        <time>2022-06-08T15:42:01Z</time>
      </trkpt>
      <trkpt lat="43.62226" lon="1.28165">
        <ele>142.2</ele>
        <time>2022-06-08T15:42:02Z</time>
      </trkpt>
      <trkpt lat="43.6222" lon="1.28214">
        <ele>142</ele>
        <time>2022-06-08T15:42:07Z</time>
      </trkpt>
      <trkpt lat="43.62213" lon="1.28298">
        <ele>141.4</ele>
        <time>2022-06-08T15:42:15Z</time>
      </trkpt>
      <trkpt lat="43.6221" lon="1.28337">
        <ele>141.2</ele>
        <time>2022-06-08T15:42:19Z</time>
      </trkpt>
      <trkpt lat="43.62207" lon="1.28385">
        <ele>140.8</ele>
        <time>2022-06-08T15:42:24Z</time>
      </trkpt>
      <trkpt lat="43.62206" lon="1.284">
        <ele>140.6</ele>
        <time>2022-06-08T15:42:26Z</time>
      </trkpt>
      <trkpt lat="43.62206" lon="1.28427">
        <ele>140.6</ele>
        <time>2022-06-08T15:42:29Z</time>
      </trkpt>
      <trkpt lat="43.62207" lon="1.28461">
        <ele>140</ele>
        <time>2022-06-08T15:42:33Z</time>
      </trkpt>
      <trkpt lat="43.62211" lon="1.28497">
        <ele>140.2</ele>
        <time>2022-06-08T15:42:37Z</time>
      </trkpt>
      <trkpt lat="43.62213" lon="1.28506">
        <ele>140.2</ele>
        <time>2022-06-08T15:42:38Z</time>
      </trkpt>
      <trkpt lat="43.62228" lon="1.28547">
        <ele>140.2</ele>
        <time>2022-06-08T15:42:43Z</time>
      </trkpt>
      <trkpt lat="43.62245" lon="1.28578">
        <ele>140.6</ele>
        <time>2022-06-08T15:42:48Z</time>
      </trkpt>
      <trkpt lat="43.62266" lon="1.2861">
        <ele>140.8</ele>
        <time>2022-06-08T15:42:54Z</time>
      </trkpt>
      <trkpt lat="43.6227" lon="1.28624">
        <ele>140.8</ele>
        <time>2022-06-08T15:42:56Z</time>
      </trkpt>
      <trkpt lat="43.6227" lon="1.28631">
        <ele>140.8</ele>
        <time>2022-06-08T15:42:57Z</time>
      </trkpt>
      <trkpt lat="43.62268" lon="1.28646">
        <ele>140.8</ele>
        <time>2022-06-08T15:42:59Z</time>
      </trkpt>
      <trkpt lat="43.62265" lon="1.28661">
        <ele>140.8</ele>
        <time>2022-06-08T15:43:01Z</time>
      </trkpt>
      <trkpt lat="43.62263" lon="1.28667">
        <ele>140.8</ele>
        <time>2022-06-08T15:43:02Z</time>
      </trkpt>
      <trkpt lat="43.62258" lon="1.28681">
        <ele>140.6</ele>
        <time>2022-06-08T15:43:04Z</time>
      </trkpt>
      <trkpt lat="43.62256" lon="1.28697">
        <ele>140.4</ele>
        <time>2022-06-08T15:43:06Z</time>
      </trkpt>
      <trkpt lat="43.62257" lon="1.28729">
        <ele>139.6</ele>
        <time>2022-06-08T15:43:10Z</time>
      </trkpt>
      <trkpt lat="43.62254" lon="1.28783">
        <ele>139.4</ele>
        <time>2022-06-08T15:43:17Z</time>
      </trkpt>
      <trkpt lat="43.62251" lon="1.28817">
        <ele>139.4</ele>
        <time>2022-06-08T15:43:21Z</time>
      </trkpt>
      <trkpt lat="43.62251" lon="1.28826">
        <ele>139.4</ele>
        <time>2022-06-08T15:43:22Z</time>
      </trkpt>
      <trkpt lat="43.62248" lon="1.28883">
        <ele>139</ele>
        <time>2022-06-08T15:43:28Z</time>
      </trkpt>
      <trkpt lat="43.62248" lon="1.28911">
        <ele>139</ele>
        <time>2022-06-08T15:43:31Z</time>
      </trkpt>
      <trkpt lat="43.62247" lon="1.28957">
        <ele>138.6</ele>
        <time>2022-06-08T15:43:36Z</time>
      </trkpt>
      <trkpt lat="43.62247" lon="1.28965">
        <ele>138.6</ele>
        <time>2022-06-08T15:43:37Z</time>
      </trkpt>
      <trkpt lat="43.62245" lon="1.28983">
        <ele>138.6</ele>
        <time>2022-06-08T15:43:39Z</time>
      </trkpt>
      <trkpt lat="43.62248" lon="1.28999">
        <ele>138.8</ele>
        <time>2022-06-08T15:43:41Z</time>
      </trkpt>
      <trkpt lat="43.62254" lon="1.29014">
        <ele>139</ele>
        <time>2022-06-08T15:43:43Z</time>
      </trkpt>
      <trkpt lat="43.6226" lon="1.29025">
        <ele>139.4</ele>
        <time>2022-06-08T15:43:45Z</time>
      </trkpt>
      <trkpt lat="43.62263" lon="1.29032">
        <ele>139.4</ele>
        <time>2022-06-08T15:43:46Z</time>
      </trkpt>
      <trkpt lat="43.62268" lon="1.29044">
        <ele>139.6</ele>
        <time>2022-06-08T15:43:48Z</time>
      </trkpt>
      <trkpt lat="43.6227" lon="1.29051">
        <ele>139.6</ele>
        <time>2022-06-08T15:43:49Z</time>
      </trkpt>
      <trkpt lat="43.62291" lon="1.29091">
        <ele>139.8</ele>
        <time>2022-06-08T15:43:55Z</time>
      </trkpt>
      <trkpt lat="43.62322" lon="1.29145">
        <ele>139.6</ele>
        <time>2022-06-08T15:44:02Z</time>
      </trkpt>
      <trkpt lat="43.62348" lon="1.29202">
        <ele>139.4</ele>
        <time>2022-06-08T15:44:09Z</time>
      </trkpt>
      <trkpt lat="43.62362" lon="1.29242">
        <ele>139.6</ele>
        <time>2022-06-08T15:44:14Z</time>
      </trkpt>
      <trkpt lat="43.62365" lon="1.2926">
        <ele>139.8</ele>
        <time>2022-06-08T15:44:16Z</time>
      </trkpt>
      <trkpt lat="43.62372" lon="1.2932">
        <ele>140</ele>
        <time>2022-06-08T15:44:23Z</time>
      </trkpt>
      <trkpt lat="43.6238" lon="1.29366">
        <ele>141</ele>
        <time>2022-06-08T15:44:29Z</time>
      </trkpt>
      <trkpt lat="43.62383" lon="1.2938">
        <ele>141</ele>
        <time>2022-06-08T15:44:31Z</time>
      </trkpt>
      <trkpt lat="43.62387" lon="1.29409">
        <ele>141.8</ele>
        <time>2022-06-08T15:44:35Z</time>
      </trkpt>
      <trkpt lat="43.62389" lon="1.29423">
        <ele>142.2</ele>
        <time>2022-06-08T15:44:37Z</time>
      </trkpt>
      <trkpt lat="43.62391" lon="1.2944">
        <ele>142.4</ele>
        <time>2022-06-08T15:44:39Z</time>
      </trkpt>
      <trkpt lat="43.62396" lon="1.29459">
        <ele>142.6</ele>
        <time>2022-06-08T15:44:41Z</time>
      </trkpt>
      <trkpt lat="43.62409" lon="1.29499">
        <ele>142.8</ele>
        <time>2022-06-08T15:44:44Z</time>
      </trkpt>
      <trkpt lat="43.62413" lon="1.29508">
        <ele>142.6</ele>
        <time>2022-06-08T15:44:46Z</time>
      </trkpt>
      <trkpt lat="43.62439" lon="1.29564">
        <ele>141.6</ele>
        <time>2022-06-08T15:44:52Z</time>
      </trkpt>
      <trkpt lat="43.62454" lon="1.29591">
        <ele>141</ele>
        <time>2022-06-08T15:44:55Z</time>
      </trkpt>
      <trkpt lat="43.62483" lon="1.29635">
        <ele>140.4</ele>
        <time>2022-06-08T15:45:00Z</time>
      </trkpt>
      <trkpt lat="43.62489" lon="1.29643">
        <ele>140</ele>
        <time>2022-06-08T15:45:01Z</time>
      </trkpt>
      <trkpt lat="43.62533" lon="1.29695">
        <ele>139.2</ele>
        <time>2022-06-08T15:45:07Z</time>
      </trkpt>
      <trkpt lat="43.62553" lon="1.29716">
        <ele>139</ele>
        <time>2022-06-08T15:45:10Z</time>
      </trkpt>
      <trkpt lat="43.62591" lon="1.29755">
        <ele>138.6</ele>
        <time>2022-06-08T15:45:16Z</time>
      </trkpt>
      <trkpt lat="43.62645" lon="1.29805">
        <ele>138.4</ele>
        <time>2022-06-08T15:45:24Z</time>
      </trkpt>
      <trkpt lat="43.62668" lon="1.29823">
        <ele>138.2</ele>
        <time>2022-06-08T15:45:27Z</time>
      </trkpt>
      <trkpt lat="43.62692" lon="1.2985">
        <ele>137.8</ele>
        <time>2022-06-08T15:45:31Z</time>
      </trkpt>
      <trkpt lat="43.62704" lon="1.29865">
        <ele>137.6</ele>
        <time>2022-06-08T15:45:33Z</time>
      </trkpt>
      <trkpt lat="43.62747" lon="1.29929">
        <ele>136.8</ele>
        <time>2022-06-08T15:45:41Z</time>
      </trkpt>
      <trkpt lat="43.62752" lon="1.29936">
        <ele>136.6</ele>
        <time>2022-06-08T15:45:42Z</time>
      </trkpt>
      <trkpt lat="43.62786" lon="1.29986">
        <ele>135.8</ele>
        <time>2022-06-08T15:45:49Z</time>
      </trkpt>
      <trkpt lat="43.62815" lon="1.30024">
        <ele>135.6</ele>
        <time>2022-06-08T15:45:55Z</time>
      </trkpt>
      <trkpt lat="43.62817" lon="1.30036">
        <ele>135.6</ele>
        <time>2022-06-08T15:45:57Z</time>
      </trkpt>
      <trkpt lat="43.62815" lon="1.30045">
        <ele>135.6</ele>
        <time>2022-06-08T15:45:58Z</time>
      </trkpt>
      <trkpt lat="43.62812" lon="1.30052">
        <ele>135.6</ele>
        <time>2022-06-08T15:45:59Z</time>
      </trkpt>
      <trkpt lat="43.62802" lon="1.30072">
        <ele>135.2</ele>
        <time>2022-06-08T15:46:03Z</time>
      </trkpt>
      <trkpt lat="43.62789" lon="1.30105">
        <ele>135</ele>
        <time>2022-06-08T15:46:06Z</time>
      </trkpt>
      <trkpt lat="43.62775" lon="1.30136">
        <ele>134.6</ele>
        <time>2022-06-08T15:46:10Z</time>
      </trkpt>
      <trkpt lat="43.62772" lon="1.30142">
        <ele>134.6</ele>
        <time>2022-06-08T15:46:11Z</time>
      </trkpt>
      <trkpt lat="43.62765" lon="1.30153">
        <ele>134.4</ele>
        <time>2022-06-08T15:46:13Z</time>
      </trkpt>
      <trkpt lat="43.62763" lon="1.30158">
        <ele>134.4</ele>
        <time>2022-06-08T15:46:14Z</time>
      </trkpt>
      <trkpt lat="43.62754" lon="1.3017">
        <ele>134.6</ele>
        <time>2022-06-08T15:46:18Z</time>
      </trkpt>
      <trkpt lat="43.62746" lon="1.30179">
        <ele>135.2</ele>
        <time>2022-06-08T15:46:20Z</time>
      </trkpt>
      <trkpt lat="43.62743" lon="1.30184">
        <ele>135.2</ele>
        <time>2022-06-08T15:46:22Z</time>
      </trkpt>
      <trkpt lat="43.62722" lon="1.30223">
        <ele>135.2</ele>
        <time>2022-06-08T15:46:27Z</time>
      </trkpt>
      <trkpt lat="43.62711" lon="1.30239">
        <ele>135.2</ele>
        <time>2022-06-08T15:46:32Z</time>
      </trkpt>
      <trkpt lat="43.62702" lon="1.3025">
        <ele>135.8</ele>
        <time>2022-06-08T15:46:36Z</time>
      </trkpt>
      <trkpt lat="43.627" lon="1.30252">
        <ele>136</ele>
        <time>2022-06-08T15:46:37Z</time>
      </trkpt>
      <trkpt lat="43.62691" lon="1.30262">
        <ele>137.6</ele>
        <time>2022-06-08T15:46:41Z</time>
      </trkpt>
      <trkpt lat="43.62688" lon="1.30266">
        <ele>137.6</ele>
        <time>2022-06-08T15:46:42Z</time>
      </trkpt>
      <trkpt lat="43.62674" lon="1.30284">
        <ele>138.8</ele>
        <time>2022-06-08T15:46:48Z</time>
      </trkpt>
      <trkpt lat="43.62666" lon="1.30293">
        <ele>139.2</ele>
        <time>2022-06-08T15:46:50Z</time>
      </trkpt>
      <trkpt lat="43.6266" lon="1.30301">
        <ele>139.8</ele>
        <time>2022-06-08T15:46:54Z</time>
      </trkpt>
      <trkpt lat="43.62649" lon="1.30313">
        <ele>140.4</ele>
        <time>2022-06-08T15:46:58Z</time>
      </trkpt>
      <trkpt lat="43.62647" lon="1.30314">
        <ele>140.6</ele>
        <time>2022-06-08T15:46:59Z</time>
      </trkpt>
      <trkpt lat="43.62644" lon="1.30313">
        <ele>140.8</ele>
        <time>2022-06-08T15:47:00Z</time>
      </trkpt>
      <trkpt lat="43.62641" lon="1.30311">
        <ele>141</ele>
        <time>2022-06-08T15:47:01Z</time>
      </trkpt>
      <trkpt lat="43.6263" lon="1.30313">
        <ele>141.6</ele>
        <time>2022-06-08T15:47:05Z</time>
      </trkpt>
      <trkpt lat="43.62625" lon="1.30312">
        <ele>141.8</ele>
        <time>2022-06-08T15:47:07Z</time>
      </trkpt>
      <trkpt lat="43.62608" lon="1.30312">
        <ele>143</ele>
        <time>2022-06-08T15:47:13Z</time>
      </trkpt>
      <trkpt lat="43.62608" lon="1.30312">
        <ele>143.2</ele>
        <time>2022-06-08T15:47:14Z</time>
      </trkpt>
      <trkpt lat="43.6259" lon="1.30312">
        <ele>144</ele>
        <time>2022-06-08T15:47:19Z</time>
      </trkpt>
      <trkpt lat="43.62582" lon="1.30311">
        <ele>145</ele>
        <time>2022-06-08T15:47:23Z</time>
      </trkpt>
      <trkpt lat="43.62567" lon="1.3031">
        <ele>146.2</ele>
        <time>2022-06-08T15:47:29Z</time>
      </trkpt>
      <trkpt lat="43.62565" lon="1.3031">
        <ele>146.4</ele>
        <time>2022-06-08T15:47:30Z</time>
      </trkpt>
      <trkpt lat="43.62558" lon="1.30309">
        <ele>147.2</ele>
        <time>2022-06-08T15:47:34Z</time>
      </trkpt>
      <trkpt lat="43.62548" lon="1.30307">
        <ele>148.4</ele>
        <time>2022-06-08T15:47:38Z</time>
      </trkpt>
      <trkpt lat="43.62546" lon="1.30307">
        <ele>148.6</ele>
        <time>2022-06-08T15:47:39Z</time>
      </trkpt>
      <trkpt lat="43.62537" lon="1.30308">
        <ele>149.8</ele>
        <time>2022-06-08T15:47:43Z</time>
      </trkpt>
      <trkpt lat="43.62532" lon="1.30309">
        <ele>150.8</ele>
        <time>2022-06-08T15:47:46Z</time>
      </trkpt>
      <trkpt lat="43.62523" lon="1.30312">
        <ele>152.4</ele>
        <time>2022-06-08T15:47:50Z</time>
      </trkpt>
      <trkpt lat="43.62517" lon="1.30312">
        <ele>153.4</ele>
        <time>2022-06-08T15:47:53Z</time>
      </trkpt>
      <trkpt lat="43.6251" lon="1.30312">
        <ele>154.8</ele>
        <time>2022-06-08T15:47:57Z</time>
      </trkpt>
      <trkpt lat="43.62507" lon="1.30311">
        <ele>155.2</ele>
        <time>2022-06-08T15:47:58Z</time>
      </trkpt>
      <trkpt lat="43.625" lon="1.30307">
        <ele>155.8</ele>
        <time>2022-06-08T15:48:01Z</time>
      </trkpt>
      <trkpt lat="43.6249" lon="1.303">
        <ele>157</ele>
        <time>2022-06-08T15:48:06Z</time>
      </trkpt>
      <trkpt lat="43.62488" lon="1.303">
        <ele>157.2</ele>
        <time>2022-06-08T15:48:07Z</time>
      </trkpt>
      <trkpt lat="43.62482" lon="1.30299">
        <ele>157.8</ele>
        <time>2022-06-08T15:48:09Z</time>
      </trkpt>
      <trkpt lat="43.62477" lon="1.30301">
        <ele>158</ele>
        <time>2022-06-08T15:48:11Z</time>
      </trkpt>
      <trkpt lat="43.62475" lon="1.30303">
        <ele>158.2</ele>
        <time>2022-06-08T15:48:12Z</time>
      </trkpt>
      <trkpt lat="43.62468" lon="1.30312">
        <ele>159.2</ele>
        <time>2022-06-08T15:48:17Z</time>
      </trkpt>
      <trkpt lat="43.62467" lon="1.30318">
        <ele>159.4</ele>
        <time>2022-06-08T15:48:18Z</time>
      </trkpt>
      <trkpt lat="43.62462" lon="1.30324">
        <ele>159.8</ele>
        <time>2022-06-08T15:48:21Z</time>
      </trkpt>
      <trkpt lat="43.6246" lon="1.30324">
        <ele>159.8</ele>
        <time>2022-06-08T15:48:22Z</time>
      </trkpt>
      <trkpt lat="43.62455" lon="1.30319">
        <ele>160.2</ele>
        <time>2022-06-08T15:48:25Z</time>
      </trkpt>
      <trkpt lat="43.62451" lon="1.30314">
        <ele>160.4</ele>
        <time>2022-06-08T15:48:27Z</time>
      </trkpt>
      <trkpt lat="43.62438" lon="1.30297">
        <ele>161</ele>
        <time>2022-06-08T15:48:32Z</time>
      </trkpt>
      <trkpt lat="43.6242" lon="1.30275">
        <ele>161.2</ele>
        <time>2022-06-08T15:48:38Z</time>
      </trkpt>
      <trkpt lat="43.62407" lon="1.30255">
        <ele>161.4</ele>
        <time>2022-06-08T15:48:43Z</time>
      </trkpt>
      <trkpt lat="43.62396" lon="1.30239">
        <ele>161.8</ele>
        <time>2022-06-08T15:48:46Z</time>
      </trkpt>
      <trkpt lat="43.62378" lon="1.30216">
        <ele>162.2</ele>
        <time>2022-06-08T15:48:51Z</time>
      </trkpt>
      <trkpt lat="43.62374" lon="1.30213">
        <ele>162.2</ele>
        <time>2022-06-08T15:48:52Z</time>
      </trkpt>
      <trkpt lat="43.62367" lon="1.30207">
        <ele>162.4</ele>
        <time>2022-06-08T15:48:54Z</time>
      </trkpt>
      <trkpt lat="43.62343" lon="1.30182">
        <ele>162.6</ele>
        <time>2022-06-08T15:49:00Z</time>
      </trkpt>
      <trkpt lat="43.62339" lon="1.30179">
        <ele>162.6</ele>
        <time>2022-06-08T15:49:01Z</time>
      </trkpt>
      <trkpt lat="43.62336" lon="1.30175">
        <ele>162.6</ele>
        <time>2022-06-08T15:49:02Z</time>
      </trkpt>
      <trkpt lat="43.62322" lon="1.30156">
        <ele>162.2</ele>
        <time>2022-06-08T15:49:06Z</time>
      </trkpt>
      <trkpt lat="43.62309" lon="1.30137">
        <ele>161.4</ele>
        <time>2022-06-08T15:49:09Z</time>
      </trkpt>
      <trkpt lat="43.62307" lon="1.3013">
        <ele>161.2</ele>
        <time>2022-06-08T15:49:10Z</time>
      </trkpt>
      <trkpt lat="43.62305" lon="1.30125">
        <ele>161.2</ele>
        <time>2022-06-08T15:49:11Z</time>
      </trkpt>
      <trkpt lat="43.62304" lon="1.30114">
        <ele>160.8</ele>
        <time>2022-06-08T15:49:13Z</time>
      </trkpt>
      <trkpt lat="43.62301" lon="1.30105">
        <ele>160.2</ele>
        <time>2022-06-08T15:49:15Z</time>
      </trkpt>
      <trkpt lat="43.62298" lon="1.30091">
        <ele>159.2</ele>
        <time>2022-06-08T15:49:16Z</time>
      </trkpt>
      <trkpt lat="43.62296" lon="1.30086">
        <ele>158.4</ele>
        <time>2022-06-08T15:49:17Z</time>
      </trkpt>
      <trkpt lat="43.62294" lon="1.30082">
        <ele>158</ele>
        <time>2022-06-08T15:49:18Z</time>
      </trkpt>
      <trkpt lat="43.62287" lon="1.30067">
        <ele>157.4</ele>
        <time>2022-06-08T15:49:22Z</time>
      </trkpt>
      <trkpt lat="43.62273" lon="1.30048">
        <ele>159.2</ele>
        <time>2022-06-08T15:49:28Z</time>
      </trkpt>
      <trkpt lat="43.62263" lon="1.30018">
        <ele>159.8</ele>
        <time>2022-06-08T15:49:33Z</time>
      </trkpt>
      <trkpt lat="43.62249" lon="1.29996">
        <ele>160.2</ele>
        <time>2022-06-08T15:49:37Z</time>
      </trkpt>
      <trkpt lat="43.62245" lon="1.29994">
        <ele>160.2</ele>
        <time>2022-06-08T15:49:38Z</time>
      </trkpt>
      <trkpt lat="43.62236" lon="1.29981">
        <ele>160.6</ele>
        <time>2022-06-08T15:49:42Z</time>
      </trkpt>
      <trkpt lat="43.62227" lon="1.2997">
        <ele>161.4</ele>
        <time>2022-06-08T15:49:47Z</time>
      </trkpt>
      <trkpt lat="43.62223" lon="1.2997">
        <ele>161.6</ele>
        <time>2022-06-08T15:49:49Z</time>
      </trkpt>
      <trkpt lat="43.62219" lon="1.29974">
        <ele>161.8</ele>
        <time>2022-06-08T15:49:51Z</time>
      </trkpt>
      <trkpt lat="43.62209" lon="1.29991">
        <ele>162.8</ele>
        <time>2022-06-08T15:49:56Z</time>
      </trkpt>
      <trkpt lat="43.62203" lon="1.29995">
        <ele>163</ele>
        <time>2022-06-08T15:49:58Z</time>
      </trkpt>
      <trkpt lat="43.62199" lon="1.29994">
        <ele>163</ele>
        <time>2022-06-08T15:50:00Z</time>
      </trkpt>
      <trkpt lat="43.62193" lon="1.29995">
        <ele>163</ele>
        <time>2022-06-08T15:50:02Z</time>
      </trkpt>
      <trkpt lat="43.62174" lon="1.30009">
        <ele>162.6</ele>
        <time>2022-06-08T15:50:09Z</time>
      </trkpt>
      <trkpt lat="43.62147" lon="1.30031">
        <ele>162.2</ele>
        <time>2022-06-08T15:50:17Z</time>
      </trkpt>
      <trkpt lat="43.62137" lon="1.30043">
        <ele>162.4</ele>
        <time>2022-06-08T15:50:21Z</time>
      </trkpt>
      <trkpt lat="43.62135" lon="1.30044">
        <ele>162.4</ele>
        <time>2022-06-08T15:50:22Z</time>
      </trkpt>
      <trkpt lat="43.62118" lon="1.30057">
        <ele>163</ele>
        <time>2022-06-08T15:50:27Z</time>
      </trkpt>
      <trkpt lat="43.62096" lon="1.3006">
        <ele>163</ele>
        <time>2022-06-08T15:50:31Z</time>
      </trkpt>
      <trkpt lat="43.62078" lon="1.30059">
        <ele>161</ele>
        <time>2022-06-08T15:50:35Z</time>
      </trkpt>
      <trkpt lat="43.62071" lon="1.30059">
        <ele>160</ele>
        <time>2022-06-08T15:50:37Z</time>
      </trkpt>
      <trkpt lat="43.62062" lon="1.30059">
        <ele>158.8</ele>
        <time>2022-06-08T15:50:40Z</time>
      </trkpt>
      <trkpt lat="43.62054" lon="1.30058">
        <ele>158</ele>
        <time>2022-06-08T15:50:42Z</time>
      </trkpt>
      <trkpt lat="43.62052" lon="1.30058">
        <ele>156.2</ele>
        <time>2022-06-08T15:50:43Z</time>
      </trkpt>
      <trkpt lat="43.6205" lon="1.30059">
        <ele>155.6</ele>
        <time>2022-06-08T15:50:44Z</time>
      </trkpt>
      <trkpt lat="43.6205" lon="1.30061">
        <ele>154.6</ele>
        <time>2022-06-08T15:50:45Z</time>
      </trkpt>
      <trkpt lat="43.62049" lon="1.30062">
        <ele>154</ele>
        <time>2022-06-08T15:50:46Z</time>
      </trkpt>
      <trkpt lat="43.62047" lon="1.30065">
        <ele>153.2</ele>
        <time>2022-06-08T15:50:47Z</time>
      </trkpt>
      <trkpt lat="43.62045" lon="1.30069">
        <ele>152.4</ele>
        <time>2022-06-08T15:50:51Z</time>
      </trkpt>
      <trkpt lat="43.62042" lon="1.30071">
        <ele>152.4</ele>
        <time>2022-06-08T15:50:54Z</time>
      </trkpt>
      <trkpt lat="43.62037" lon="1.30077">
        <ele>154.2</ele>
        <time>2022-06-08T15:50:58Z</time>
      </trkpt>
      <trkpt lat="43.62036" lon="1.30078">
        <ele>154.8</ele>
        <time>2022-06-08T15:50:59Z</time>
      </trkpt>
      <trkpt lat="43.62034" lon="1.30081">
        <ele>155.2</ele>
        <time>2022-06-08T15:51:01Z</time>
      </trkpt>
      <trkpt lat="43.6203" lon="1.30087">
        <ele>156.8</ele>
        <time>2022-06-08T15:51:04Z</time>
      </trkpt>
      <trkpt lat="43.62029" lon="1.30089">
        <ele>157.2</ele>
        <time>2022-06-08T15:51:05Z</time>
      </trkpt>
      <trkpt lat="43.62028" lon="1.30091">
        <ele>158.2</ele>
        <time>2022-06-08T15:51:06Z</time>
      </trkpt>
      <trkpt lat="43.62026" lon="1.30099">
        <ele>159.2</ele>
        <time>2022-06-08T15:51:09Z</time>
      </trkpt>
      <trkpt lat="43.62024" lon="1.30108">
        <ele>160.8</ele>
        <time>2022-06-08T15:51:12Z</time>
      </trkpt>
      <trkpt lat="43.62025" lon="1.3011">
        <ele>161.4</ele>
        <time>2022-06-08T15:51:13Z</time>
      </trkpt>
      <trkpt lat="43.62027" lon="1.3012">
        <ele>162.2</ele>
        <time>2022-06-08T15:51:16Z</time>
      </trkpt>
      <trkpt lat="43.62025" lon="1.3013">
        <ele>163.6</ele>
        <time>2022-06-08T15:51:19Z</time>
      </trkpt>
      <trkpt lat="43.62026" lon="1.30154">
        <ele>164.6</ele>
        <time>2022-06-08T15:51:24Z</time>
      </trkpt>
      <trkpt lat="43.62027" lon="1.30165">
        <ele>164.8</ele>
        <time>2022-06-08T15:51:26Z</time>
      </trkpt>
      <trkpt lat="43.62029" lon="1.30182">
        <ele>165</ele>
        <time>2022-06-08T15:51:30Z</time>
      </trkpt>
      <trkpt lat="43.62026" lon="1.30186">
        <ele>165.2</ele>
        <time>2022-06-08T15:51:31Z</time>
      </trkpt>
      <trkpt lat="43.62018" lon="1.30215">
        <ele>165.2</ele>
        <time>2022-06-08T15:51:37Z</time>
      </trkpt>
      <trkpt lat="43.62025" lon="1.30248">
        <ele>164.8</ele>
        <time>2022-06-08T15:51:43Z</time>
      </trkpt>
      <trkpt lat="43.62039" lon="1.30304">
        <ele>164.4</ele>
        <time>2022-06-08T15:51:52Z</time>
      </trkpt>
      <trkpt lat="43.62045" lon="1.30354">
        <ele>164.2</ele>
        <time>2022-06-08T15:51:59Z</time>
      </trkpt>
      <trkpt lat="43.62049" lon="1.30389">
        <ele>164</ele>
        <time>2022-06-08T15:52:04Z</time>
      </trkpt>
      <trkpt lat="43.62052" lon="1.30401">
        <ele>164</ele>
        <time>2022-06-08T15:52:06Z</time>
      </trkpt>
      <trkpt lat="43.62053" lon="1.30406">
        <ele>164</ele>
        <time>2022-06-08T15:52:07Z</time>
      </trkpt>
      <trkpt lat="43.62052" lon="1.30414">
        <ele>164</ele>
        <time>2022-06-08T15:52:09Z</time>
      </trkpt>
      <trkpt lat="43.62042" lon="1.30416">
        <ele>164</ele>
        <time>2022-06-08T15:52:12Z</time>
      </trkpt>
      <trkpt lat="43.62026" lon="1.30406">
        <ele>164</ele>
        <time>2022-06-08T15:52:16Z</time>
      </trkpt>
      <trkpt lat="43.62004" lon="1.3039">
        <ele>164</ele>
        <time>2022-06-08T15:52:21Z</time>
      </trkpt>
      <trkpt lat="43.62" lon="1.30388">
        <ele>164</ele>
        <time>2022-06-08T15:52:22Z</time>
      </trkpt>
      <trkpt lat="43.61993" lon="1.30388">
        <ele>164</ele>
        <time>2022-06-08T15:52:24Z</time>
      </trkpt>
      <trkpt lat="43.61991" lon="1.30391">
        <ele>164</ele>
        <time>2022-06-08T15:52:25Z</time>
      </trkpt>
      <trkpt lat="43.61992" lon="1.30407">
        <ele>164</ele>
        <time>2022-06-08T15:52:28Z</time>
      </trkpt>
      <trkpt lat="43.61986" lon="1.3044">
        <ele>163.8</ele>
        <time>2022-06-08T15:52:33Z</time>
      </trkpt>
      <trkpt lat="43.61969" lon="1.30497">
        <ele>163.8</ele>
        <time>2022-06-08T15:52:41Z</time>
      </trkpt>
      <trkpt lat="43.61945" lon="1.30553">
        <ele>164.2</ele>
        <time>2022-06-08T15:52:49Z</time>
      </trkpt>
      <trkpt lat="43.61919" lon="1.30595">
        <ele>164.4</ele>
        <time>2022-06-08T15:52:56Z</time>
      </trkpt>
      <trkpt lat="43.61895" lon="1.30639">
        <ele>164.6</ele>
        <time>2022-06-08T15:53:03Z</time>
      </trkpt>
      <trkpt lat="43.61891" lon="1.30644">
        <ele>164.6</ele>
        <time>2022-06-08T15:53:04Z</time>
      </trkpt>
      <trkpt lat="43.61886" lon="1.30653">
        <ele>164.8</ele>
        <time>2022-06-08T15:53:06Z</time>
      </trkpt>
      <trkpt lat="43.61881" lon="1.30664">
        <ele>164.8</ele>
        <time>2022-06-08T15:53:08Z</time>
      </trkpt>
      <trkpt lat="43.61864" lon="1.30703">
        <ele>164.8</ele>
        <time>2022-06-08T15:53:14Z</time>
      </trkpt>
      <trkpt lat="43.61846" lon="1.3076">
        <ele>164.4</ele>
        <time>2022-06-08T15:53:21Z</time>
      </trkpt>
      <trkpt lat="43.61844" lon="1.30768">
        <ele>164.4</ele>
        <time>2022-06-08T15:53:22Z</time>
      </trkpt>
      <trkpt lat="43.61837" lon="1.30808">
        <ele>164.4</ele>
        <time>2022-06-08T15:53:27Z</time>
      </trkpt>
      <trkpt lat="43.61829" lon="1.30868">
        <ele>164.4</ele>
        <time>2022-06-08T15:53:34Z</time>
      </trkpt>
      <trkpt lat="43.61826" lon="1.30892">
        <ele>164.6</ele>
        <time>2022-06-08T15:53:37Z</time>
      </trkpt>
      <trkpt lat="43.6182" lon="1.30902">
        <ele>164.6</ele>
        <time>2022-06-08T15:53:39Z</time>
      </trkpt>
      <trkpt lat="43.61808" lon="1.309">
        <ele>164.8</ele>
        <time>2022-06-08T15:53:41Z</time>
      </trkpt>
      <trkpt lat="43.61802" lon="1.30897">
        <ele>164.8</ele>
        <time>2022-06-08T15:53:42Z</time>
      </trkpt>
      <trkpt lat="43.61749" lon="1.3087">
        <ele>165.2</ele>
        <time>2022-06-08T15:53:51Z</time>
      </trkpt>
      <trkpt lat="43.61743" lon="1.30867">
        <ele>165.2</ele>
        <time>2022-06-08T15:53:52Z</time>
      </trkpt>
      <trkpt lat="43.61729" lon="1.30859">
        <ele>165.2</ele>
        <time>2022-06-08T15:53:55Z</time>
      </trkpt>
      <trkpt lat="43.61723" lon="1.30852">
        <ele>165.2</ele>
        <time>2022-06-08T15:53:57Z</time>
      </trkpt>
      <trkpt lat="43.61713" lon="1.30845">
        <ele>165.2</ele>
        <time>2022-06-08T15:54:00Z</time>
      </trkpt>
      <trkpt lat="43.61709" lon="1.30847">
        <ele>165.2</ele>
        <time>2022-06-08T15:54:01Z</time>
      </trkpt>
      <trkpt lat="43.61705" lon="1.30851">
        <ele>165.2</ele>
        <time>2022-06-08T15:54:02Z</time>
      </trkpt>
      <trkpt lat="43.617" lon="1.30864">
        <ele>165.4</ele>
        <time>2022-06-08T15:54:04Z</time>
      </trkpt>
      <trkpt lat="43.61692" lon="1.30904">
        <ele>165.6</ele>
        <time>2022-06-08T15:54:09Z</time>
      </trkpt>
      <trkpt lat="43.61679" lon="1.30954">
        <ele>165.6</ele>
        <time>2022-06-08T15:54:16Z</time>
      </trkpt>
      <trkpt lat="43.6167" lon="1.30982">
        <ele>165.6</ele>
        <time>2022-06-08T15:54:21Z</time>
      </trkpt>
      <trkpt lat="43.61669" lon="1.30986">
        <ele>165.6</ele>
        <time>2022-06-08T15:54:24Z</time>
      </trkpt>
      <trkpt lat="43.61669" lon="1.30986">
        <ele>165.6</ele>
        <time>2022-06-08T15:54:25Z</time>
      </trkpt>
      <trkpt lat="43.61667" lon="1.30992">
        <ele>165.6</ele>
        <time>2022-06-08T15:54:34Z</time>
      </trkpt>
      <trkpt lat="43.61667" lon="1.30999">
        <ele>165.6</ele>
        <time>2022-06-08T15:54:36Z</time>
      </trkpt>
      <trkpt lat="43.61664" lon="1.31018">
        <ele>165.4</ele>
        <time>2022-06-08T15:54:40Z</time>
      </trkpt>
      <trkpt lat="43.61663" lon="1.31023">
        <ele>165.4</ele>
        <time>2022-06-08T15:54:41Z</time>
      </trkpt>
      <trkpt lat="43.6166" lon="1.31033">
        <ele>165.4</ele>
        <time>2022-06-08T15:54:43Z</time>
      </trkpt>
      <trkpt lat="43.61658" lon="1.31038">
        <ele>165.4</ele>
        <time>2022-06-08T15:54:44Z</time>
      </trkpt>
      <trkpt lat="43.61651" lon="1.3106">
        <ele>165.4</ele>
        <time>2022-06-08T15:54:47Z</time>
      </trkpt>
      <trkpt lat="43.61649" lon="1.31065">
        <ele>165.4</ele>
        <time>2022-06-08T15:54:48Z</time>
      </trkpt>
      <trkpt lat="43.61639" lon="1.31085">
        <ele>165.4</ele>
        <time>2022-06-08T15:54:51Z</time>
      </trkpt>
      <trkpt lat="43.61631" lon="1.31093">
        <ele>165.4</ele>
        <time>2022-06-08T15:54:53Z</time>
      </trkpt>
      <trkpt lat="43.61619" lon="1.31094">
        <ele>165.4</ele>
        <time>2022-06-08T15:54:57Z</time>
      </trkpt>
      <trkpt lat="43.61616" lon="1.311">
        <ele>165.4</ele>
        <time>2022-06-08T15:55:00Z</time>
      </trkpt>
      <trkpt lat="43.61614" lon="1.31106">
        <ele>165.2</ele>
        <time>2022-06-08T15:55:02Z</time>
      </trkpt>
      <trkpt lat="43.61605" lon="1.31104">
        <ele>165</ele>
        <time>2022-06-08T15:55:05Z</time>
      </trkpt>
      <trkpt lat="43.61596" lon="1.311">
        <ele>165</ele>
        <time>2022-06-08T15:55:07Z</time>
      </trkpt>
      <trkpt lat="43.61588" lon="1.31095">
        <ele>165</ele>
        <time>2022-06-08T15:55:09Z</time>
      </trkpt>
      <trkpt lat="43.61558" lon="1.31079">
        <ele>165.4</ele>
        <time>2022-06-08T15:55:15Z</time>
      </trkpt>
      <trkpt lat="43.61548" lon="1.31074">
        <ele>165.6</ele>
        <time>2022-06-08T15:55:17Z</time>
      </trkpt>
      <trkpt lat="43.61536" lon="1.31067">
        <ele>165.6</ele>
        <time>2022-06-08T15:55:19Z</time>
      </trkpt>
      <trkpt lat="43.6153" lon="1.31063">
        <ele>165.6</ele>
        <time>2022-06-08T15:55:20Z</time>
      </trkpt>
      <trkpt lat="43.61487" lon="1.31039">
        <ele>165.8</ele>
        <time>2022-06-08T15:55:27Z</time>
      </trkpt>
      <trkpt lat="43.61468" lon="1.31029">
        <ele>165.8</ele>
        <time>2022-06-08T15:55:30Z</time>
      </trkpt>
      <trkpt lat="43.61455" lon="1.31021">
        <ele>165.8</ele>
        <time>2022-06-08T15:55:32Z</time>
      </trkpt>
      <trkpt lat="43.61446" lon="1.31017">
        <ele>165.8</ele>
        <time>2022-06-08T15:55:34Z</time>
      </trkpt>
      <trkpt lat="43.61436" lon="1.3102">
        <ele>165.8</ele>
        <time>2022-06-08T15:55:36Z</time>
      </trkpt>
      <trkpt lat="43.61427" lon="1.31022">
        <ele>165.6</ele>
        <time>2022-06-08T15:55:38Z</time>
      </trkpt>
      <trkpt lat="43.6142" lon="1.31019">
        <ele>165.6</ele>
        <time>2022-06-08T15:55:40Z</time>
      </trkpt>
      <trkpt lat="43.61417" lon="1.31013">
        <ele>165.6</ele>
        <time>2022-06-08T15:55:41Z</time>
      </trkpt>
      <trkpt lat="43.61409" lon="1.31003">
        <ele>165.6</ele>
        <time>2022-06-08T15:55:43Z</time>
      </trkpt>
      <trkpt lat="43.614" lon="1.30995">
        <ele>165.6</ele>
        <time>2022-06-08T15:55:45Z</time>
      </trkpt>
      <trkpt lat="43.61391" lon="1.30989">
        <ele>165.8</ele>
        <time>2022-06-08T15:55:47Z</time>
      </trkpt>
      <trkpt lat="43.61382" lon="1.30984">
        <ele>165.8</ele>
        <time>2022-06-08T15:55:49Z</time>
      </trkpt>
      <trkpt lat="43.61375" lon="1.30982">
        <ele>165.8</ele>
        <time>2022-06-08T15:55:50Z</time>
      </trkpt>
      <trkpt lat="43.61365" lon="1.30982">
        <ele>165.8</ele>
        <time>2022-06-08T15:55:52Z</time>
      </trkpt>
      <trkpt lat="43.61352" lon="1.30984">
        <ele>165.8</ele>
        <time>2022-06-08T15:55:56Z</time>
      </trkpt>
      <trkpt lat="43.61341" lon="1.30993">
        <ele>165.6</ele>
        <time>2022-06-08T15:56:00Z</time>
      </trkpt>
      <trkpt lat="43.61315" lon="1.3101">
        <ele>165.4</ele>
        <time>2022-06-08T15:56:06Z</time>
      </trkpt>
      <trkpt lat="43.61309" lon="1.31013">
        <ele>165.4</ele>
        <time>2022-06-08T15:56:07Z</time>
      </trkpt>
      <trkpt lat="43.61297" lon="1.31016">
        <ele>165.4</ele>
        <time>2022-06-08T15:56:09Z</time>
      </trkpt>
      <trkpt lat="43.61266" lon="1.31025">
        <ele>165</ele>
        <time>2022-06-08T15:56:14Z</time>
      </trkpt>
      <trkpt lat="43.6126" lon="1.31029">
        <ele>164.6</ele>
        <time>2022-06-08T15:56:15Z</time>
      </trkpt>
      <trkpt lat="43.61251" lon="1.31039">
        <ele>163.8</ele>
        <time>2022-06-08T15:56:17Z</time>
      </trkpt>
      <trkpt lat="43.61246" lon="1.31055">
        <ele>163.4</ele>
        <time>2022-06-08T15:56:19Z</time>
      </trkpt>
      <trkpt lat="43.61243" lon="1.31073">
        <ele>163.4</ele>
        <time>2022-06-08T15:56:21Z</time>
      </trkpt>
      <trkpt lat="43.61241" lon="1.311">
        <ele>163.2</ele>
        <time>2022-06-08T15:56:24Z</time>
      </trkpt>
      <trkpt lat="43.61242" lon="1.31144">
        <ele>163</ele>
        <time>2022-06-08T15:56:29Z</time>
      </trkpt>
      <trkpt lat="43.61243" lon="1.31152">
        <ele>163</ele>
        <time>2022-06-08T15:56:30Z</time>
      </trkpt>
      <trkpt lat="43.61242" lon="1.31159">
        <ele>163</ele>
        <time>2022-06-08T15:56:31Z</time>
      </trkpt>
      <trkpt lat="43.61236" lon="1.31164">
        <ele>163</ele>
        <time>2022-06-08T15:56:33Z</time>
      </trkpt>
      <trkpt lat="43.61225" lon="1.31161">
        <ele>163</ele>
        <time>2022-06-08T15:56:37Z</time>
      </trkpt>
      <trkpt lat="43.61206" lon="1.31154">
        <ele>163.8</ele>
        <time>2022-06-08T15:56:42Z</time>
      </trkpt>
      <trkpt lat="43.61197" lon="1.31147">
        <ele>164.6</ele>
        <time>2022-06-08T15:56:45Z</time>
      </trkpt>
      <trkpt lat="43.61188" lon="1.31143">
        <ele>165.2</ele>
        <time>2022-06-08T15:56:48Z</time>
      </trkpt>
      <trkpt lat="43.61177" lon="1.31142">
        <ele>165.6</ele>
        <time>2022-06-08T15:56:51Z</time>
      </trkpt>
      <trkpt lat="43.61164" lon="1.31143">
        <ele>166.4</ele>
        <time>2022-06-08T15:56:55Z</time>
      </trkpt>
      <trkpt lat="43.6116" lon="1.31145">
        <ele>166.6</ele>
        <time>2022-06-08T15:56:56Z</time>
      </trkpt>
      <trkpt lat="43.61146" lon="1.31151">
        <ele>167.8</ele>
        <time>2022-06-08T15:57:01Z</time>
      </trkpt>
      <trkpt lat="43.61134" lon="1.31152">
        <ele>169.2</ele>
        <time>2022-06-08T15:57:05Z</time>
      </trkpt>
      <trkpt lat="43.61128" lon="1.31151">
        <ele>170.4</ele>
        <time>2022-06-08T15:57:07Z</time>
      </trkpt>
      <trkpt lat="43.61124" lon="1.3115">
        <ele>171</ele>
        <time>2022-06-08T15:57:08Z</time>
      </trkpt>
      <trkpt lat="43.61109" lon="1.31145">
        <ele>171.4</ele>
        <time>2022-06-08T15:57:12Z</time>
      </trkpt>
      <trkpt lat="43.61085" lon="1.31138">
        <ele>171.8</ele>
        <time>2022-06-08T15:57:17Z</time>
      </trkpt>
      <trkpt lat="43.6108" lon="1.31139">
        <ele>171.8</ele>
        <time>2022-06-08T15:57:18Z</time>
      </trkpt>
      <trkpt lat="43.6107" lon="1.31143">
        <ele>171.8</ele>
        <time>2022-06-08T15:57:20Z</time>
      </trkpt>
      <trkpt lat="43.61062" lon="1.3115">
        <ele>171.8</ele>
        <time>2022-06-08T15:57:22Z</time>
      </trkpt>
      <trkpt lat="43.61058" lon="1.31155">
        <ele>171.8</ele>
        <time>2022-06-08T15:57:23Z</time>
      </trkpt>
      <trkpt lat="43.61029" lon="1.31199">
        <ele>172</ele>
        <time>2022-06-08T15:57:31Z</time>
      </trkpt>
      <trkpt lat="43.61008" lon="1.3123">
        <ele>172</ele>
        <time>2022-06-08T15:57:37Z</time>
      </trkpt>
      <trkpt lat="43.61003" lon="1.31238">
        <ele>172</ele>
        <time>2022-06-08T15:57:40Z</time>
      </trkpt>
      <trkpt lat="43.60994" lon="1.31255">
        <ele>172.2</ele>
        <time>2022-06-08T15:57:45Z</time>
      </trkpt>
      <trkpt lat="43.60979" lon="1.31275">
        <ele>172</ele>
        <time>2022-06-08T15:57:49Z</time>
      </trkpt>
      <trkpt lat="43.60957" lon="1.31301">
        <ele>171.6</ele>
        <time>2022-06-08T15:57:55Z</time>
      </trkpt>
      <trkpt lat="43.60941" lon="1.31307">
        <ele>171.4</ele>
        <time>2022-06-08T15:57:59Z</time>
      </trkpt>
      <trkpt lat="43.60925" lon="1.31306">
        <ele>171</ele>
        <time>2022-06-08T15:58:02Z</time>
      </trkpt>
      <trkpt lat="43.6092" lon="1.31308">
        <ele>170.8</ele>
        <time>2022-06-08T15:58:03Z</time>
      </trkpt>
      <trkpt lat="43.60906" lon="1.31312">
        <ele>170.6</ele>
        <time>2022-06-08T15:58:05Z</time>
      </trkpt>
      <trkpt lat="43.609" lon="1.31311">
        <ele>169.8</ele>
        <time>2022-06-08T15:58:06Z</time>
      </trkpt>
      <trkpt lat="43.60894" lon="1.31309">
        <ele>169.4</ele>
        <time>2022-06-08T15:58:07Z</time>
      </trkpt>
      <trkpt lat="43.60887" lon="1.31307">
        <ele>168.4</ele>
        <time>2022-06-08T15:58:08Z</time>
      </trkpt>
      <trkpt lat="43.60881" lon="1.31305">
        <ele>167.6</ele>
        <time>2022-06-08T15:58:09Z</time>
      </trkpt>
      <trkpt lat="43.60876" lon="1.31306">
        <ele>166.4</ele>
        <time>2022-06-08T15:58:10Z</time>
      </trkpt>
      <trkpt lat="43.60873" lon="1.31308">
        <ele>165.8</ele>
        <time>2022-06-08T15:58:11Z</time>
      </trkpt>
      <trkpt lat="43.60871" lon="1.31311">
        <ele>165</ele>
        <time>2022-06-08T15:58:12Z</time>
      </trkpt>
      <trkpt lat="43.60867" lon="1.31315">
        <ele>164.2</ele>
        <time>2022-06-08T15:58:14Z</time>
      </trkpt>
      <trkpt lat="43.60864" lon="1.31314">
        <ele>163.2</ele>
        <time>2022-06-08T15:58:15Z</time>
      </trkpt>
      <trkpt lat="43.60853" lon="1.31301">
        <ele>162.2</ele>
        <time>2022-06-08T15:58:19Z</time>
      </trkpt>
      <trkpt lat="43.60849" lon="1.31298">
        <ele>162.2</ele>
        <time>2022-06-08T15:58:20Z</time>
      </trkpt>
      <trkpt lat="43.60846" lon="1.31295">
        <ele>162.2</ele>
        <time>2022-06-08T15:58:21Z</time>
      </trkpt>
      <trkpt lat="43.60833" lon="1.31286">
        <ele>162.4</ele>
        <time>2022-06-08T15:58:24Z</time>
      </trkpt>
      <trkpt lat="43.60825" lon="1.31281">
        <ele>162.6</ele>
        <time>2022-06-08T15:58:26Z</time>
      </trkpt>
      <trkpt lat="43.60806" lon="1.31269">
        <ele>163</ele>
        <time>2022-06-08T15:58:30Z</time>
      </trkpt>
      <trkpt lat="43.60794" lon="1.3126">
        <ele>162.8</ele>
        <time>2022-06-08T15:58:33Z</time>
      </trkpt>
      <trkpt lat="43.6079" lon="1.31257">
        <ele>162.8</ele>
        <time>2022-06-08T15:58:34Z</time>
      </trkpt>
      <trkpt lat="43.60764" lon="1.31243">
        <ele>163</ele>
        <time>2022-06-08T15:58:40Z</time>
      </trkpt>
      <trkpt lat="43.60752" lon="1.31236">
        <ele>163.2</ele>
        <time>2022-06-08T15:58:43Z</time>
      </trkpt>
      <trkpt lat="43.60749" lon="1.31234">
        <ele>163.2</ele>
        <time>2022-06-08T15:58:44Z</time>
      </trkpt>
      <trkpt lat="43.60745" lon="1.31231">
        <ele>163.4</ele>
        <time>2022-06-08T15:58:48Z</time>
      </trkpt>
      <trkpt lat="43.60727" lon="1.31223">
        <ele>162.8</ele>
        <time>2022-06-08T16:01:32Z</time>
      </trkpt>
      <trkpt lat="43.60722" lon="1.31222">
        <ele>162.8</ele>
        <time>2022-06-08T16:01:34Z</time>
      </trkpt>
      <trkpt lat="43.60721" lon="1.31222">
        <ele>162.8</ele>
        <time>2022-06-08T16:01:36Z</time>
      </trkpt>
      <trkpt lat="43.60715" lon="1.31225">
        <ele>163</ele>
        <time>2022-06-08T16:08:00Z</time>
      </trkpt>
      <trkpt lat="43.60699" lon="1.31221">
        <ele>162.8</ele>
        <time>2022-06-08T16:08:04Z</time>
      </trkpt>
      <trkpt lat="43.60683" lon="1.31222">
        <ele>162.6</ele>
        <time>2022-06-08T16:08:08Z</time>
      </trkpt>
      <trkpt lat="43.60677" lon="1.31229">
        <ele>162.6</ele>
        <time>2022-06-08T16:08:10Z</time>
      </trkpt>
      <trkpt lat="43.60676" lon="1.31235">
        <ele>162.8</ele>
        <time>2022-06-08T16:08:12Z</time>
      </trkpt>
      <trkpt lat="43.60675" lon="1.3126">
        <ele>164.2</ele>
        <time>2022-06-08T16:08:18Z</time>
      </trkpt>
      <trkpt lat="43.60676" lon="1.31264">
        <ele>164.6</ele>
        <time>2022-06-08T16:08:19Z</time>
      </trkpt>
      <trkpt lat="43.6068" lon="1.31269">
        <ele>165.2</ele>
        <time>2022-06-08T16:08:21Z</time>
      </trkpt>
      <trkpt lat="43.60683" lon="1.31271">
        <ele>165.4</ele>
        <time>2022-06-08T16:08:22Z</time>
      </trkpt>
      <trkpt lat="43.60695" lon="1.31277">
        <ele>165.6</ele>
        <time>2022-06-08T16:08:25Z</time>
      </trkpt>
      <trkpt lat="43.60721" lon="1.31288">
        <ele>165.4</ele>
        <time>2022-06-08T16:08:30Z</time>
      </trkpt>
      <trkpt lat="43.60726" lon="1.31291">
        <ele>165.4</ele>
        <time>2022-06-08T16:08:31Z</time>
      </trkpt>
      <trkpt lat="43.60732" lon="1.31299">
        <ele>165.4</ele>
        <time>2022-06-08T16:08:33Z</time>
      </trkpt>
      <trkpt lat="43.60733" lon="1.3131">
        <ele>165.2</ele>
        <time>2022-06-08T16:08:35Z</time>
      </trkpt>
      <trkpt lat="43.60732" lon="1.31315">
        <ele>165.2</ele>
        <time>2022-06-08T16:08:36Z</time>
      </trkpt>
      <trkpt lat="43.60724" lon="1.31343">
        <ele>165.2</ele>
        <time>2022-06-08T16:08:40Z</time>
      </trkpt>
      <trkpt lat="43.60718" lon="1.31352">
        <ele>165.2</ele>
        <time>2022-06-08T16:08:42Z</time>
      </trkpt>
      <trkpt lat="43.60699" lon="1.31352">
        <ele>165.4</ele>
        <time>2022-06-08T16:08:46Z</time>
      </trkpt>
      <trkpt lat="43.60693" lon="1.31345">
        <ele>165.6</ele>
        <time>2022-06-08T16:08:48Z</time>
      </trkpt>
      <trkpt lat="43.60692" lon="1.31341">
        <ele>165.6</ele>
        <time>2022-06-08T16:08:49Z</time>
      </trkpt>
      <trkpt lat="43.60691" lon="1.31318">
        <ele>165.8</ele>
        <time>2022-06-08T16:08:52Z</time>
      </trkpt>
      <trkpt lat="43.6069" lon="1.31312">
        <ele>165.8</ele>
        <time>2022-06-08T16:08:53Z</time>
      </trkpt>
      <trkpt lat="43.60687" lon="1.31307">
        <ele>165.8</ele>
        <time>2022-06-08T16:08:54Z</time>
      </trkpt>
      <trkpt lat="43.60678" lon="1.31303">
        <ele>165.8</ele>
        <time>2022-06-08T16:08:56Z</time>
      </trkpt>
      <trkpt lat="43.6066" lon="1.31305">
        <ele>165</ele>
        <time>2022-06-08T16:09:01Z</time>
      </trkpt>
      <trkpt lat="43.60655" lon="1.31305">
        <ele>164.2</ele>
        <time>2022-06-08T16:09:03Z</time>
      </trkpt>
      <trkpt lat="43.60628" lon="1.31305">
        <ele>162.2</ele>
        <time>2022-06-08T16:09:54Z</time>
      </trkpt>
      <trkpt lat="43.60628" lon="1.31318">
        <ele>161.6</ele>
        <time>2022-06-08T16:12:41Z</time>
      </trkpt>
      <trkpt lat="43.60627" lon="1.31318">
        <ele>161.8</ele>
        <time>2022-06-08T16:12:44Z</time>
      </trkpt>
      <trkpt lat="43.60627" lon="1.31316">
        <ele>161.8</ele>
        <time>2022-06-08T16:12:45Z</time>
      </trkpt>
      <trkpt lat="43.60627" lon="1.31301">
        <ele>162.6</ele>
        <time>2022-06-08T16:12:50Z</time>
      </trkpt>
      <trkpt lat="43.60626" lon="1.31298">
        <ele>162.8</ele>
        <time>2022-06-08T16:12:51Z</time>
      </trkpt>
      <trkpt lat="43.60617" lon="1.31295">
        <ele>163.4</ele>
        <time>2022-06-08T16:12:54Z</time>
      </trkpt>
      <trkpt lat="43.60603" lon="1.31295">
        <ele>163.6</ele>
        <time>2022-06-08T16:12:57Z</time>
      </trkpt>
      <trkpt lat="43.60589" lon="1.31295">
        <ele>164</ele>
        <time>2022-06-08T16:13:00Z</time>
      </trkpt>
      <trkpt lat="43.60584" lon="1.31293">
        <ele>164.2</ele>
        <time>2022-06-08T16:13:01Z</time>
      </trkpt>
      <trkpt lat="43.6057" lon="1.31284">
        <ele>164.4</ele>
        <time>2022-06-08T16:13:04Z</time>
      </trkpt>
      <trkpt lat="43.60556" lon="1.31273">
        <ele>164.6</ele>
        <time>2022-06-08T16:13:07Z</time>
      </trkpt>
      <trkpt lat="43.60549" lon="1.31263">
        <ele>164.8</ele>
        <time>2022-06-08T16:13:09Z</time>
      </trkpt>
      <trkpt lat="43.60544" lon="1.31252">
        <ele>164.8</ele>
        <time>2022-06-08T16:13:11Z</time>
      </trkpt>
      <trkpt lat="43.60541" lon="1.31244">
        <ele>164.8</ele>
        <time>2022-06-08T16:13:13Z</time>
      </trkpt>
      <trkpt lat="43.60534" lon="1.3123">
        <ele>164.8</ele>
        <time>2022-06-08T16:13:16Z</time>
      </trkpt>
      <trkpt lat="43.60525" lon="1.31224">
        <ele>164.6</ele>
        <time>2022-06-08T16:13:18Z</time>
      </trkpt>
      <trkpt lat="43.60514" lon="1.31226">
        <ele>164.6</ele>
        <time>2022-06-08T16:13:20Z</time>
      </trkpt>
      <trkpt lat="43.60509" lon="1.3123">
        <ele>164.6</ele>
        <time>2022-06-08T16:13:21Z</time>
      </trkpt>
      <trkpt lat="43.60505" lon="1.31236">
        <ele>164.6</ele>
        <time>2022-06-08T16:13:22Z</time>
      </trkpt>
      <trkpt lat="43.60492" lon="1.31252">
        <ele>164.6</ele>
        <time>2022-06-08T16:13:25Z</time>
      </trkpt>
      <trkpt lat="43.60487" lon="1.31257">
        <ele>164.6</ele>
        <time>2022-06-08T16:13:26Z</time>
      </trkpt>
      <trkpt lat="43.60467" lon="1.3128">
        <ele>164.6</ele>
        <time>2022-06-08T16:13:30Z</time>
      </trkpt>
      <trkpt lat="43.60453" lon="1.31298">
        <ele>164.6</ele>
        <time>2022-06-08T16:13:33Z</time>
      </trkpt>
      <trkpt lat="43.60426" lon="1.31335">
        <ele>164.8</ele>
        <time>2022-06-08T16:13:39Z</time>
      </trkpt>
      <trkpt lat="43.60396" lon="1.31369">
        <ele>165</ele>
        <time>2022-06-08T16:13:45Z</time>
      </trkpt>
      <trkpt lat="43.60391" lon="1.31373">
        <ele>165</ele>
        <time>2022-06-08T16:13:46Z</time>
      </trkpt>
      <trkpt lat="43.60384" lon="1.31376">
        <ele>165</ele>
        <time>2022-06-08T16:13:47Z</time>
      </trkpt>
      <trkpt lat="43.60371" lon="1.31377">
        <ele>165.2</ele>
        <time>2022-06-08T16:13:49Z</time>
      </trkpt>
      <trkpt lat="43.6036" lon="1.3137">
        <ele>165.2</ele>
        <time>2022-06-08T16:13:51Z</time>
      </trkpt>
      <trkpt lat="43.60354" lon="1.31365">
        <ele>165.4</ele>
        <time>2022-06-08T16:13:52Z</time>
      </trkpt>
      <trkpt lat="43.6035" lon="1.31358">
        <ele>165.4</ele>
        <time>2022-06-08T16:13:53Z</time>
      </trkpt>
      <trkpt lat="43.60344" lon="1.31342">
        <ele>165.4</ele>
        <time>2022-06-08T16:13:55Z</time>
      </trkpt>
      <trkpt lat="43.60323" lon="1.31268">
        <ele>165.4</ele>
        <time>2022-06-08T16:14:04Z</time>
      </trkpt>
      <trkpt lat="43.60319" lon="1.31252">
        <ele>165.6</ele>
        <time>2022-06-08T16:14:06Z</time>
      </trkpt>
      <trkpt lat="43.60302" lon="1.31196">
        <ele>165.6</ele>
        <time>2022-06-08T16:14:13Z</time>
      </trkpt>
      <trkpt lat="43.60298" lon="1.3118">
        <ele>165.6</ele>
        <time>2022-06-08T16:14:15Z</time>
      </trkpt>
      <trkpt lat="43.60288" lon="1.31148">
        <ele>165.6</ele>
        <time>2022-06-08T16:14:19Z</time>
      </trkpt>
      <trkpt lat="43.60266" lon="1.31087">
        <ele>165.6</ele>
        <time>2022-06-08T16:14:27Z</time>
      </trkpt>
      <trkpt lat="43.60242" lon="1.31017">
        <ele>165.6</ele>
        <time>2022-06-08T16:14:36Z</time>
      </trkpt>
      <trkpt lat="43.60237" lon="1.31001">
        <ele>165.6</ele>
        <time>2022-06-08T16:14:38Z</time>
      </trkpt>
      <trkpt lat="43.60214" lon="1.30927">
        <ele>165.6</ele>
        <time>2022-06-08T16:14:47Z</time>
      </trkpt>
      <trkpt lat="43.60211" lon="1.30919">
        <ele>165.6</ele>
        <time>2022-06-08T16:14:48Z</time>
      </trkpt>
      <trkpt lat="43.60188" lon="1.30846">
        <ele>166</ele>
        <time>2022-06-08T16:14:57Z</time>
      </trkpt>
      <trkpt lat="43.60172" lon="1.30792">
        <ele>166.2</ele>
        <time>2022-06-08T16:15:04Z</time>
      </trkpt>
      <trkpt lat="43.60154" lon="1.30732">
        <ele>166.4</ele>
        <time>2022-06-08T16:15:12Z</time>
      </trkpt>
      <trkpt lat="43.60136" lon="1.30678">
        <ele>166.8</ele>
        <time>2022-06-08T16:15:19Z</time>
      </trkpt>
      <trkpt lat="43.60126" lon="1.30649">
        <ele>166.8</ele>
        <time>2022-06-08T16:15:23Z</time>
      </trkpt>
      <trkpt lat="43.60118" lon="1.30636">
        <ele>166.8</ele>
        <time>2022-06-08T16:15:25Z</time>
      </trkpt>
      <trkpt lat="43.60089" lon="1.30611">
        <ele>166.4</ele>
        <time>2022-06-08T16:15:31Z</time>
      </trkpt>
      <trkpt lat="43.60081" lon="1.3061">
        <ele>166.4</ele>
        <time>2022-06-08T16:15:34Z</time>
      </trkpt>
      <trkpt lat="43.60079" lon="1.30612">
        <ele>166.2</ele>
        <time>2022-06-08T16:15:35Z</time>
      </trkpt>
      <trkpt lat="43.60072" lon="1.30626">
        <ele>166.2</ele>
        <time>2022-06-08T16:15:38Z</time>
      </trkpt>
      <trkpt lat="43.60065" lon="1.3066">
        <ele>166.4</ele>
        <time>2022-06-08T16:15:43Z</time>
      </trkpt>
      <trkpt lat="43.60054" lon="1.30721">
        <ele>166.8</ele>
        <time>2022-06-08T16:15:51Z</time>
      </trkpt>
      <trkpt lat="43.60051" lon="1.30737">
        <ele>167</ele>
        <time>2022-06-08T16:15:53Z</time>
      </trkpt>
      <trkpt lat="43.60043" lon="1.3076">
        <ele>167</ele>
        <time>2022-06-08T16:15:56Z</time>
      </trkpt>
      <trkpt lat="43.60037" lon="1.30776">
        <ele>167.4</ele>
        <time>2022-06-08T16:15:58Z</time>
      </trkpt>
      <trkpt lat="43.60036" lon="1.30794">
        <ele>167.4</ele>
        <time>2022-06-08T16:16:00Z</time>
      </trkpt>
      <trkpt lat="43.60036" lon="1.30814">
        <ele>167.4</ele>
        <time>2022-06-08T16:16:02Z</time>
      </trkpt>
      <trkpt lat="43.60032" lon="1.30843">
        <ele>167.6</ele>
        <time>2022-06-08T16:16:05Z</time>
      </trkpt>
      <trkpt lat="43.6002" lon="1.30912">
        <ele>167.4</ele>
        <time>2022-06-08T16:16:12Z</time>
      </trkpt>
      <trkpt lat="43.60005" lon="1.30984">
        <ele>167.2</ele>
        <time>2022-06-08T16:16:19Z</time>
      </trkpt>
      <trkpt lat="43.5999" lon="1.31067">
        <ele>166.8</ele>
        <time>2022-06-08T16:16:27Z</time>
      </trkpt>
      <trkpt lat="43.59976" lon="1.31145">
        <ele>166.6</ele>
        <time>2022-06-08T16:16:34Z</time>
      </trkpt>
      <trkpt lat="43.59973" lon="1.31164">
        <ele>166.6</ele>
        <time>2022-06-08T16:16:36Z</time>
      </trkpt>
      <trkpt lat="43.5997" lon="1.31174">
        <ele>166.6</ele>
        <time>2022-06-08T16:16:37Z</time>
      </trkpt>
      <trkpt lat="43.59961" lon="1.31192">
        <ele>166.4</ele>
        <time>2022-06-08T16:16:39Z</time>
      </trkpt>
      <trkpt lat="43.59949" lon="1.31195">
        <ele>166.4</ele>
        <time>2022-06-08T16:16:41Z</time>
      </trkpt>
      <trkpt lat="43.59934" lon="1.31191">
        <ele>166.6</ele>
        <time>2022-06-08T16:16:43Z</time>
      </trkpt>
      <trkpt lat="43.59928" lon="1.31186">
        <ele>166.6</ele>
        <time>2022-06-08T16:16:44Z</time>
      </trkpt>
      <trkpt lat="43.59889" lon="1.31147">
        <ele>166.6</ele>
        <time>2022-06-08T16:16:51Z</time>
      </trkpt>
      <trkpt lat="43.59841" lon="1.31102">
        <ele>166.6</ele>
        <time>2022-06-08T16:16:59Z</time>
      </trkpt>
      <trkpt lat="43.59829" lon="1.31089">
        <ele>166.8</ele>
        <time>2022-06-08T16:17:01Z</time>
      </trkpt>
      <trkpt lat="43.59778" lon="1.31041">
        <ele>167.2</ele>
        <time>2022-06-08T16:17:10Z</time>
      </trkpt>
      <trkpt lat="43.59734" lon="1.30998">
        <ele>167.2</ele>
        <time>2022-06-08T16:17:18Z</time>
      </trkpt>
      <trkpt lat="43.59694" lon="1.30961">
        <ele>167.2</ele>
        <time>2022-06-08T16:17:25Z</time>
      </trkpt>
      <trkpt lat="43.59661" lon="1.30932">
        <ele>167.4</ele>
        <time>2022-06-08T16:17:31Z</time>
      </trkpt>
      <trkpt lat="43.59648" lon="1.30927">
        <ele>167.4</ele>
        <time>2022-06-08T16:17:33Z</time>
      </trkpt>
      <trkpt lat="43.59595" lon="1.30917">
        <ele>167.2</ele>
        <time>2022-06-08T16:17:41Z</time>
      </trkpt>
      <trkpt lat="43.59543" lon="1.3091">
        <ele>166.6</ele>
        <time>2022-06-08T16:17:49Z</time>
      </trkpt>
      <trkpt lat="43.59502" lon="1.30902">
        <ele>167.4</ele>
        <time>2022-06-08T16:17:56Z</time>
      </trkpt>
      <trkpt lat="43.59458" lon="1.30894">
        <ele>167.2</ele>
        <time>2022-06-08T16:18:04Z</time>
      </trkpt>
      <trkpt lat="43.59429" lon="1.30889">
        <ele>168</ele>
        <time>2022-06-08T16:18:10Z</time>
      </trkpt>
      <trkpt lat="43.59419" lon="1.30888">
        <ele>168.8</ele>
        <time>2022-06-08T16:18:12Z</time>
      </trkpt>
      <trkpt lat="43.59414" lon="1.30886">
        <ele>169</ele>
        <time>2022-06-08T16:18:13Z</time>
      </trkpt>
      <trkpt lat="43.59374" lon="1.30879">
        <ele>168.2</ele>
        <time>2022-06-08T16:18:20Z</time>
      </trkpt>
      <trkpt lat="43.59361" lon="1.30877">
        <ele>168</ele>
        <time>2022-06-08T16:18:22Z</time>
      </trkpt>
      <trkpt lat="43.59319" lon="1.30869">
        <ele>168</ele>
        <time>2022-06-08T16:18:29Z</time>
      </trkpt>
      <trkpt lat="43.59259" lon="1.30861">
        <ele>168.4</ele>
        <time>2022-06-08T16:18:38Z</time>
      </trkpt>
      <trkpt lat="43.59246" lon="1.30863">
        <ele>168.4</ele>
        <time>2022-06-08T16:18:40Z</time>
      </trkpt>
      <trkpt lat="43.59234" lon="1.3087">
        <ele>168.2</ele>
        <time>2022-06-08T16:18:42Z</time>
      </trkpt>
      <trkpt lat="43.59223" lon="1.30884">
        <ele>168.2</ele>
        <time>2022-06-08T16:18:44Z</time>
      </trkpt>
      <trkpt lat="43.59219" lon="1.30892">
        <ele>168.2</ele>
        <time>2022-06-08T16:18:45Z</time>
      </trkpt>
      <trkpt lat="43.5921" lon="1.30906">
        <ele>168</ele>
        <time>2022-06-08T16:18:47Z</time>
      </trkpt>
      <trkpt lat="43.59203" lon="1.30912">
        <ele>168</ele>
        <time>2022-06-08T16:18:48Z</time>
      </trkpt>
      <trkpt lat="43.5919" lon="1.30918">
        <ele>168</ele>
        <time>2022-06-08T16:18:50Z</time>
      </trkpt>
      <trkpt lat="43.59179" lon="1.30929">
        <ele>168</ele>
        <time>2022-06-08T16:18:52Z</time>
      </trkpt>
      <trkpt lat="43.59175" lon="1.30946">
        <ele>168</ele>
        <time>2022-06-08T16:18:54Z</time>
      </trkpt>
      <trkpt lat="43.59175" lon="1.30954">
        <ele>168</ele>
        <time>2022-06-08T16:18:55Z</time>
      </trkpt>
      <trkpt lat="43.59175" lon="1.30965">
        <ele>168</ele>
        <time>2022-06-08T16:18:56Z</time>
      </trkpt>
      <trkpt lat="43.59169" lon="1.30982">
        <ele>168</ele>
        <time>2022-06-08T16:18:58Z</time>
      </trkpt>
      <trkpt lat="43.59145" lon="1.3103">
        <ele>168.2</ele>
        <time>2022-06-08T16:19:04Z</time>
      </trkpt>
      <trkpt lat="43.59142" lon="1.31039">
        <ele>168</ele>
        <time>2022-06-08T16:19:05Z</time>
      </trkpt>
      <trkpt lat="43.59118" lon="1.31092">
        <ele>167.6</ele>
        <time>2022-06-08T16:19:11Z</time>
      </trkpt>
      <trkpt lat="43.59102" lon="1.31125">
        <ele>167.6</ele>
        <time>2022-06-08T16:19:15Z</time>
      </trkpt>
      <trkpt lat="43.59091" lon="1.31136">
        <ele>167.4</ele>
        <time>2022-06-08T16:19:17Z</time>
      </trkpt>
      <trkpt lat="43.59079" lon="1.31139">
        <ele>167.2</ele>
        <time>2022-06-08T16:19:19Z</time>
      </trkpt>
      <trkpt lat="43.59071" lon="1.31138">
        <ele>167.4</ele>
        <time>2022-06-08T16:19:20Z</time>
      </trkpt>
      <trkpt lat="43.59065" lon="1.31134">
        <ele>167.4</ele>
        <time>2022-06-08T16:19:21Z</time>
      </trkpt>
      <trkpt lat="43.59055" lon="1.31125">
        <ele>167.6</ele>
        <time>2022-06-08T16:19:23Z</time>
      </trkpt>
      <trkpt lat="43.59016" lon="1.31087">
        <ele>167.8</ele>
        <time>2022-06-08T16:19:30Z</time>
      </trkpt>
      <trkpt lat="43.59008" lon="1.31083">
        <ele>167.8</ele>
        <time>2022-06-08T16:19:31Z</time>
      </trkpt>
      <trkpt lat="43.59003" lon="1.31083">
        <ele>167.8</ele>
        <time>2022-06-08T16:19:32Z</time>
      </trkpt>
      <trkpt lat="43.58989" lon="1.31087">
        <ele>168</ele>
        <time>2022-06-08T16:19:34Z</time>
      </trkpt>
      <trkpt lat="43.58979" lon="1.31098">
        <ele>168</ele>
        <time>2022-06-08T16:19:36Z</time>
      </trkpt>
      <trkpt lat="43.58975" lon="1.31104">
        <ele>168.2</ele>
        <time>2022-06-08T16:19:37Z</time>
      </trkpt>
      <trkpt lat="43.58942" lon="1.3117">
        <ele>168.4</ele>
        <time>2022-06-08T16:19:45Z</time>
      </trkpt>
      <trkpt lat="43.58935" lon="1.31185">
        <ele>168</ele>
        <time>2022-06-08T16:19:47Z</time>
      </trkpt>
      <trkpt lat="43.58905" lon="1.31247">
        <ele>168.2</ele>
        <time>2022-06-08T16:19:54Z</time>
      </trkpt>
      <trkpt lat="43.589" lon="1.31256">
        <ele>168.2</ele>
        <time>2022-06-08T16:19:55Z</time>
      </trkpt>
      <trkpt lat="43.58865" lon="1.31323">
        <ele>168</ele>
        <time>2022-06-08T16:20:03Z</time>
      </trkpt>
      <trkpt lat="43.58851" lon="1.31358">
        <ele>167.8</ele>
        <time>2022-06-08T16:20:07Z</time>
      </trkpt>
      <trkpt lat="43.5885" lon="1.31367">
        <ele>167.8</ele>
        <time>2022-06-08T16:20:08Z</time>
      </trkpt>
      <trkpt lat="43.58851" lon="1.31377">
        <ele>167.8</ele>
        <time>2022-06-08T16:20:09Z</time>
      </trkpt>
      <trkpt lat="43.58859" lon="1.31394">
        <ele>167.8</ele>
        <time>2022-06-08T16:20:11Z</time>
      </trkpt>
      <trkpt lat="43.58882" lon="1.31419">
        <ele>167.6</ele>
        <time>2022-06-08T16:20:15Z</time>
      </trkpt>
      <trkpt lat="43.58891" lon="1.31432">
        <ele>167.4</ele>
        <time>2022-06-08T16:20:17Z</time>
      </trkpt>
      <trkpt lat="43.58893" lon="1.31441">
        <ele>167.2</ele>
        <time>2022-06-08T16:20:18Z</time>
      </trkpt>
      <trkpt lat="43.58892" lon="1.31449">
        <ele>167.2</ele>
        <time>2022-06-08T16:20:19Z</time>
      </trkpt>
      <trkpt lat="43.58889" lon="1.31457">
        <ele>167.2</ele>
        <time>2022-06-08T16:20:20Z</time>
      </trkpt>
      <trkpt lat="43.58884" lon="1.31463">
        <ele>167.2</ele>
        <time>2022-06-08T16:20:21Z</time>
      </trkpt>
      <trkpt lat="43.5888" lon="1.3147">
        <ele>167</ele>
        <time>2022-06-08T16:20:22Z</time>
      </trkpt>
      <trkpt lat="43.58862" lon="1.31499">
        <ele>167</ele>
        <time>2022-06-08T16:20:26Z</time>
      </trkpt>
      <trkpt lat="43.58827" lon="1.31561">
        <ele>167</ele>
        <time>2022-06-08T16:20:34Z</time>
      </trkpt>
      <trkpt lat="43.58819" lon="1.31578">
        <ele>167</ele>
        <time>2022-06-08T16:20:36Z</time>
      </trkpt>
      <trkpt lat="43.58789" lon="1.31632">
        <ele>167.2</ele>
        <time>2022-06-08T16:20:43Z</time>
      </trkpt>
      <trkpt lat="43.58779" lon="1.31649">
        <ele>167.4</ele>
        <time>2022-06-08T16:20:47Z</time>
      </trkpt>
      <trkpt lat="43.58765" lon="1.31675">
        <ele>167.2</ele>
        <time>2022-06-08T16:20:52Z</time>
      </trkpt>
      <trkpt lat="43.58742" lon="1.31715">
        <ele>167</ele>
        <time>2022-06-08T16:20:58Z</time>
      </trkpt>
      <trkpt lat="43.5871" lon="1.31774">
        <ele>166.8</ele>
        <time>2022-06-08T16:21:06Z</time>
      </trkpt>
      <trkpt lat="43.58694" lon="1.31803">
        <ele>166.6</ele>
        <time>2022-06-08T16:21:10Z</time>
      </trkpt>
      <trkpt lat="43.58684" lon="1.31826">
        <ele>166.6</ele>
        <time>2022-06-08T16:21:13Z</time>
      </trkpt>
      <trkpt lat="43.58673" lon="1.31845">
        <ele>166.6</ele>
        <time>2022-06-08T16:21:16Z</time>
      </trkpt>
      <trkpt lat="43.58668" lon="1.31859">
        <ele>166.6</ele>
        <time>2022-06-08T16:21:18Z</time>
      </trkpt>
      <trkpt lat="43.5867" lon="1.31893">
        <ele>166.6</ele>
        <time>2022-06-08T16:21:22Z</time>
      </trkpt>
      <trkpt lat="43.58677" lon="1.31926">
        <ele>166.4</ele>
        <time>2022-06-08T16:21:26Z</time>
      </trkpt>
      <trkpt lat="43.58677" lon="1.31932">
        <ele>166.2</ele>
        <time>2022-06-08T16:21:27Z</time>
      </trkpt>
      <trkpt lat="43.58676" lon="1.31938">
        <ele>166</ele>
        <time>2022-06-08T16:21:29Z</time>
      </trkpt>
      <trkpt lat="43.58674" lon="1.3194">
        <ele>166</ele>
        <time>2022-06-08T16:21:30Z</time>
      </trkpt>
      <trkpt lat="43.58664" lon="1.31958">
        <ele>165.6</ele>
        <time>2022-06-08T16:21:35Z</time>
      </trkpt>
      <trkpt lat="43.5867" lon="1.31971">
        <ele>165.4</ele>
        <time>2022-06-08T16:21:38Z</time>
      </trkpt>
      <trkpt lat="43.58673" lon="1.31976">
        <ele>165.4</ele>
        <time>2022-06-08T16:21:39Z</time>
      </trkpt>
      <trkpt lat="43.58679" lon="1.31988">
        <ele>165.4</ele>
        <time>2022-06-08T16:21:41Z</time>
      </trkpt>
      <trkpt lat="43.58682" lon="1.31996">
        <ele>165.4</ele>
        <time>2022-06-08T16:21:42Z</time>
      </trkpt>
      <trkpt lat="43.58686" lon="1.32048">
        <ele>165</ele>
        <time>2022-06-08T16:21:48Z</time>
      </trkpt>
      <trkpt lat="43.58685" lon="1.32095">
        <ele>164.6</ele>
        <time>2022-06-08T16:21:53Z</time>
      </trkpt>
      <trkpt lat="43.58681" lon="1.32157">
        <ele>165</ele>
        <time>2022-06-08T16:22:00Z</time>
      </trkpt>
      <trkpt lat="43.58676" lon="1.3221">
        <ele>165.4</ele>
        <time>2022-06-08T16:22:07Z</time>
      </trkpt>
      <trkpt lat="43.58675" lon="1.32229">
        <ele>165.2</ele>
        <time>2022-06-08T16:22:12Z</time>
      </trkpt>
      <trkpt lat="43.58676" lon="1.3223">
        <ele>165.2</ele>
        <time>2022-06-08T16:22:13Z</time>
      </trkpt>
      <trkpt lat="43.58678" lon="1.3223">
        <ele>164.6</ele>
        <time>2022-06-08T16:22:15Z</time>
      </trkpt>
      <trkpt lat="43.58678" lon="1.32228">
        <ele>164.2</ele>
        <time>2022-06-08T16:22:18Z</time>
      </trkpt>
    </trkseg>
  </trk>
</gpx>